[[{"header":{"parameterUnit":"m.s-1","parameterCategory":1,"la1":30.6,"la2":28.766,"lo1":-90.7593,"lo2":-88.6598,"dy":0.0162,"dx":0.0183,"nx":116,"ny":114,"refTime":"2024-05-17T12:00:00:Z","depth":0,"parameterNumber":2,"parameterNumberName":"U-component_of_WINDS"},"data":[0.0,0.0,0.0,0.0,0.0,0.0,0.0,0.0,0.0,0.0,0.0,0.0,0.0,0.0,0.0,0.0,0.0,0.0,0.0,0.0,0.0,0.0,0.0,0.0,0.0,0.0,0.0,0.0,0.0,0.0,0.0,0.0,0.0,0.0,0.0,0.0,0.0,0.0,0.0,0.0,0.0,0.0,0.0,0.0,0.0,0.0,0.0,0.0,0.0,0.0,0.0,0.0,0.0,0.0,0.0,0.0,0.0,0.0,0.0,0.0,0.0,0.0,0.0,0.0,0.0,0.0,0.0,0.0,0.0,0.0,0.0,0.0,0.0,0.0,0.0,0.0,0.0,0.0,0.0,0.0,0.0,0.0,0.0,0.0,0.0,0.0,0.0,0.0,0.0,0.0,0.0,0.0,0.0,0.0,0.0,0.0,0.0,0.0,0.0,0.0,0.0,0.0,0.0,0.0,0.0,0.0,0.0,0.0,0.0,0.0,0.0,0.0,0.0,0.0,0.0,0.0,0.0,0.0,0.0,0.0,0.0,0.0,0.0,0.0,0.0,0.0,0.0,0.0,0.0,0.0,0.0,0.0,0.0,0.0,0.0,0.0,0.0,0.0,0.0,0.0,0.0,0.0,0.0,0.0,0.0,0.0,0.0,0.0,0.0,0.0,0.0,0.0,0.0,0.0,0.0,0.0,0.0,0.0,0.0,0.0,0.0,0.0,0.0,0.0,0.0,0.0,0.0,0.0,0.0,0.0,0.0,0.0,0.0,0.0,0.0,0.0,0.0,0.0,0.0,0.0,0.0,0.0,0.0,0.0,0.0,0.0,0.0,0.0,0.0,0.0,0.0,0.0,0.0,0.0,0.0,0.0,0.0,0.0,0.0,0.0,0.0,0.0,0.0,0.0,0.0,0.0,0.0,0.0,0.0,0.0,0.0,0.0,0.0,0.0,0.0,0.0,0.0,0.0,0.0,0.0,0.0,0.0,0.0,0.0,0.0,0.0,0.0,0.0,0.0,0.0,0.0,0.0,0.0,0.0,0.0,0.0,0.0,0.0,0.0,0.0,0.0,0.0,0.0,0.0,0.0,0.0,0.0,0.0,0.0,0.0,0.0,0.0,0.0,0.0,0.0,0.0,0.0,0.0,0.0,0.0,0.0,0.0,0.0,0.0,0.0,0.0,0.0,0.0,0.0,0.0,0.0,0.0,0.0,0.0,0.0,0.0,0.0,0.0,0.0,0.0,0.0,0.0,0.0,0.0,0.0,0.0,0.0,0.0,0.0,0.0,0.0,0.0,0.0,0.0,0.0,0.0,0.0,0.0,0.0,0.0,0.0,0.0,0.0,0.0,0.0,0.0,0.0,0.0,0.0,0.0,0.0,0.0,0.0,0.0,0.0,0.0,0.0,0.0,0.0,0.0,0.0,0.0,0.0,0.0,0.0,0.0,0.0,0.0,0.0,0.0,0.0,0.0,0.0,0.0,0.0,0.0,0.0,0.0,0.0,0.0,0.0,0.0,0.0,0.0,0.0,0.0,0.0,0.0,0.0,0.0,0.0,0.0,0.0,0.0,0.0,0.0,0.0,0.0,0.0,0.0,0.0,0.0,0.0,0.0,0.0,0.0,0.0,0.0,0.0,0.0,0.0,0.0,0.0,0.0,0.0,0.0,0.0,0.0,0.0,0.0,0.0,0.0,0.0,0.0,0.0,0.0,0.0,0.0,0.0,0.0,0.0,0.0,0.0,0.0,0.0,0.0,0.0,0.0,0.0,0.0,0.0,0.0,0.0,0.0,0.0,0.0,0.0,0.0,0.0,0.0,0.0,0.0,0.0,0.0,0.0,0.0,0.0,0.0,0.0,0.0,0.0,0.0,0.0,0.0,0.0,0.0,0.0,0.0,0.0,0.0,0.0,0.0,0.0,0.0,0.0,0.0,0.0,0.0,0.0,0.0,0.0,0.0,0.0,0.0,0.0,0.0,0.0,0.0,0.0,0.0,0.0,0.0,0.0,0.0,0.0,0.0,0.0,0.0,0.0,0.0,0.0,0.0,0.0,0.0,0.0,0.0,0.0,0.0,0.0,0.0,0.0,0.0,0.0,0.0,0.0,0.0,0.0,0.0,0.0,0.0,0.0,0.0,0.0,0.0,0.0,0.0,0.0,0.0,0.0,0.0,0.0,0.0,0.0,0.0,0.0,0.0,0.0,0.0,0.0,0.0,0.0,0.0,0.0,0.0,0.0,0.0,0.0,0.0,0.0,0.0,0.0,0.0,0.0,0.0,0.0,0.0,0.0,0.0,0.0,0.0,0.0,0.0,0.0,0.0,0.0,0.0,0.0,0.0,0.0,0.0,0.0,0.0,0.0,0.0,0.0,0.0,0.0,0.0,0.0,0.0,0.0,0.0,0.0,0.0,0.0,0.0,0.0,0.0,0.0,0.0,0.0,0.0,0.0,0.0,0.0,0.0,0.0,0.0,0.0,0.0,0.0,0.0,0.0,0.0,0.0,0.0,0.0,0.0,0.0,0.0,0.0,0.0,0.0,0.0,0.0,0.0,0.0,0.0,0.0,0.0,0.0,0.0,0.0,0.0,0.0,0.0,0.0,0.0,0.0,0.0,0.0,0.0,0.0,0.0,0.0,0.0,0.0,0.0,0.0,0.0,0.0,0.0,0.0,0.0,0.0,0.0,0.0,0.0,0.0,0.0,0.0,0.0,0.0,0.0,0.0,0.0,0.0,0.0,0.0,0.0,0.0,0.0,0.0,0.0,0.0,0.0,0.0,0.0,0.0,0.0,0.0,0.0,0.0,0.0,0.0,0.0,0.0,0.0,0.0,0.0,0.0,0.0,0.0,0.0,0.0,0.0,0.0,0.0,0.0,0.0,0.0,0.0,0.0,0.0,0.0,0.0,0.0,0.0,0.0,0.0,0.0,0.0,0.0,0.0,0.0,0.0,0.0,0.0,0.0,0.0,0.0,0.0,0.0,0.0,0.0,0.0,0.0,0.0,0.0,0.0,0.0,0.0,0.0,0.0,0.0,0.0,0.0,0.0,0.0,0.0,0.0,0.0,0.0,0.0,0.0,0.0,0.0,0.0,0.0,0.0,0.0,0.0,0.0,0.0,0.0,0.0,0.0,0.0,0.0,0.0,0.0,0.0,0.0,0.0,0.0,0.0,0.0,0.0,0.0,0.0,0.0,0.0,0.0,0.0,0.0,0.0,0.0,0.0,0.0,0.0,0.0,0.0,0.0,0.0,0.0,0.0,0.0,0.0,0.0,0.0,0.0,0.0,0.0,0.0,0.0,0.0,0.0,0.0,0.0,0.0,0.0,0.0,0.0,0.0,0.0,0.0,0.0,0.0,0.0,0.0,0.0,0.0,0.0,0.0,0.0,0.0,0.0,0.0,0.0,0.0,0.0,0.0,0.0,0.0,0.0,0.0,0.0,0.0,0.0,0.0,0.0,0.0,0.0,0.0,0.0,0.0,0.0,0.0,0.0,0.0,0.0,0.0,0.0,0.0,0.0,0.0,0.0,0.0,0.0,0.0,0.0,0.0,0.0,0.0,0.0,0.0,0.0,0.0,0.0,0.0,0.0,0.0,0.0,0.0,0.0,0.0,0.0,0.0,0.0,0.0,0.0,0.0,0.0,0.0,0.0,0.0,0.0,0.0,0.0,0.0,0.0,0.0,0.0,0.0,0.0,0.0,0.0,0.0,0.0,0.0,0.0,0.0,0.0,0.0,0.0,0.0,0.0,0.0,0.0,0.0,0.0,0.0,0.0,0.0,0.0,0.0,0.0,0.0,0.0,0.0,0.0,0.0,0.0,0.0,0.0,0.0,0.0,0.0,0.0,0.0,0.0,0.0,0.0,0.0,0.0,0.0,0.0,0.0,0.0,0.0,0.0,0.0,0.0,0.0,0.0,0.0,0.0,0.0,0.0,0.0,0.0,0.0,0.0,0.0,0.0,0.0,0.0,0.0,0.0,0.0,0.0,0.0,0.0,0.0,0.0,0.0,0.0,0.0,0.0,0.0,0.0,0.0,0.0,0.0,0.0,0.0,0.0,0.0,0.0,0.0,0.0,0.0,0.0,0.0,0.0,0.0,0.0,0.0,0.0,0.0,0.0,0.0,0.0,0.0,0.0,0.0,0.0,0.0,0.0,0.0,0.0,0.0,0.0,0.0,0.0,0.0,0.0,0.0,0.0,0.0,0.0,0.0,0.0,0.0,0.0,0.0,0.0,0.0,0.0,0.0,0.0,0.0,0.0,0.0,0.0,0.0,0.0,0.0,0.0,0.0,0.0,0.0,0.0,0.0,0.0,0.0,0.0,0.0,0.0,0.0,0.0,0.0,0.0,0.0,0.0,0.0,0.0,0.0,0.0,0.0,0.0,0.0,0.0,0.0,0.0,0.0,0.0,0.0,0.0,0.0,0.0,0.0,0.0,0.0,0.0,0.0,0.0,0.0,0.0,0.0,0.0,0.0,0.0,0.0,0.0,0.0,0.0,0.0,0.0,0.0,0.0,0.0,0.0,0.0,0.0,0.0,0.0,0.0,0.0,0.0,0.0,0.0,0.0,0.0,0.0,0.0,0.0,0.0,0.0,0.0,0.0,0.0,0.0,0.0,0.0,0.0,0.0,0.0,0.0,0.0,0.0,0.0,0.0,0.0,0.0,0.0,0.0,0.0,0.0,0.0,0.0,0.0,0.0,0.0,0.0,0.0,0.0,0.0,0.0,0.0,0.0,0.0,0.0,0.0,0.0,0.0,0.0,0.0,0.0,0.0,0.0,0.0,0.0,0.0,0.0,0.0,0.0,0.0,0.0,0.0,0.0,0.0,0.0,0.0,0.0,0.0,0.0,0.0,0.0,0.0,0.0,0.0,0.0,0.0,0.0,0.0,0.0,0.0,0.0,0.0,0.0,0.0,0.0,0.0,0.0,0.0,0.0,0.0,0.0,0.0,0.0,0.0,0.0,0.0,0.0,0.0,0.0,0.0,0.0,0.0,0.0,0.0,0.0,0.0,0.0,0.0,0.0,0.0,0.0,0.0,0.0,0.0,0.0,0.0,0.0,0.0,0.0,0.0,0.0,0.0,0.0,0.0,0.0,0.0,0.0,0.0,0.0,0.0,0.0,0.0,0.0,0.0,0.0,0.0,0.0,0.0,0.0,0.0,0.0,0.0,0.0,0.0,0.0,0.0,0.0,0.0,0.0,0.0,0.0,0.0,0.0,0.0,0.0,0.0,0.0,0.0,0.0,0.0,0.0,0.0,0.0,0.0,0.0,0.0,0.0,0.0,0.0,0.0,0.0,0.0,0.0,0.0,0.0,0.0,0.0,0.0,0.0,0.0,0.0,0.0,0.0,0.0,0.0,0.0,0.0,0.0,0.0,0.0,0.0,0.0,0.0,0.0,0.0,0.0,0.0,0.0,0.0,0.0,0.0,0.0,0.0,0.0,0.0,0.0,0.0,0.0,0.0,0.0,0.0,0.0,0.0,0.0,0.0,0.0,0.0,0.0,0.0,0.0,0.0,0.0,0.0,0.0,0.0,0.0,0.0,0.0,0.0,0.0,0.0,0.0,0.0,0.0,0.0,0.0,0.0,0.0,0.0,0.0,0.0,0.0,0.0,0.0,0.0,0.0,0.0,0.0,0.0,0.0,0.0,0.0,0.0,0.0,0.0,0.0,0.0,0.0,0.0,0.0,0.0,0.0,0.0,0.0,0.0,0.0,0.0,0.0,0.0,0.0,0.0,0.0,0.0,0.0,0.0,0.0,0.0,0.0,0.0,0.0,0.0,0.0,0.0,0.0,0.0,0.0,0.0,0.0,0.0,0.0,0.0,0.0,0.0,0.0,0.0,0.0,0.0,0.0,0.0,0.0,0.0,0.0,0.0,0.0,0.0,0.0,0.0,0.0,0.0,0.0,0.0,0.0,0.0,0.0,0.0,0.0,0.0,0.0,0.0,0.0,0.0,0.0,0.0,0.0,0.0,0.0,0.0,0.0,0.0,0.0,0.0,0.0,0.0,0.0,0.0,0.0,0.0,0.0,0.0,0.0,0.0,0.0,0.0,0.0,0.0,0.0,0.0,0.0,0.0,0.0,0.0,0.0,-3.1292,0.0,0.0,0.0,0.0,0.0,0.0,0.0,0.0,0.0,0.0,0.0,0.0,0.0,0.0,0.0,0.0,0.0,0.0,0.0,0.0,0.0,0.0,0.0,0.0,-2.8066,-2.8927,-2.9266,-2.9301,-2.9141,-2.8802,0.0,0.0,0.0,0.0,0.0,-2.713,-2.6603,-2.6526,-2.69,-2.7248,-2.8139,-2.9478,-2.9087,-2.772,-2.5558,0.0,0.0,0.0,0.0,0.0,0.0,0.0,0.0,0.0,0.0,0.0,0.0,0.0,0.0,0.0,0.0,0.0,0.0,0.0,0.0,0.0,0.0,0.0,0.0,0.0,0.0,0.0,0.0,0.0,0.0,0.0,0.0,0.0,0.0,0.0,0.0,0.0,0.0,0.0,0.0,0.0,0.0,0.0,0.0,0.0,0.0,0.0,0.0,0.0,0.0,0.0,0.0,0.0,0.0,0.0,0.0,0.0,0.0,0.0,0.0,0.0,0.0,0.0,0.0,0.0,0.0,0.0,0.0,0.0,0.0,0.0,-3.2923,0.0,0.0,0.0,0.0,0.0,0.0,0.0,0.0,0.0,0.0,0.0,0.0,0.0,0.0,0.0,0.0,0.0,0.0,0.0,0.0,0.0,-2.6317,-2.7308,-2.8741,-2.999,-3.085,-3.0796,-3.0457,-2.9833,-2.9547,0.0,0.0,0.0,-2.8081,-2.8,-2.8383,-2.9071,-3.0005,-3.0645,-3.1827,-3.3512,-3.4733,-3.3098,-2.9079,-2.7711,0.0,0.0,0.0,0.0,0.0,0.0,0.0,0.0,0.0,0.0,0.0,0.0,0.0,0.0,0.0,0.0,0.0,0.0,0.0,0.0,0.0,0.0,0.0,0.0,0.0,0.0,0.0,0.0,0.0,0.0,0.0,0.0,0.0,0.0,0.0,0.0,0.0,0.0,0.0,0.0,0.0,0.0,0.0,0.0,0.0,0.0,0.0,0.0,0.0,0.0,0.0,0.0,0.0,0.0,0.0,0.0,0.0,0.0,0.0,0.0,0.0,0.0,0.0,-4.0485,-4.1158,-4.1795,-4.1795,-4.2121,-4.2465,-3.8483,-3.7281,-3.7878,0.0,0.0,0.0,0.0,0.0,0.0,0.0,0.0,0.0,0.0,0.0,0.0,0.0,0.0,0.0,0.0,0.0,0.0,0.0,0.0,-2.681,-2.8945,-2.9987,-3.107,-3.2454,-3.1938,-3.1492,-3.1403,-3.0136,0.0,0.0,-2.8293,-2.8211,-2.9155,-2.9565,-3.0512,-3.2019,-3.5459,-3.7376,-3.7906,-3.9108,-3.8551,-3.6344,-3.2401,-3.0673,-3.0522,0.0,0.0,0.0,0.0,0.0,0.0,0.0,0.0,0.0,0.0,0.0,0.0,0.0,0.0,0.0,0.0,0.0,0.0,0.0,0.0,0.0,0.0,0.0,0.0,0.0,0.0,0.0,0.0,0.0,0.0,0.0,0.0,0.0,0.0,0.0,0.0,0.0,0.0,0.0,0.0,0.0,-3.2958,-3.3067,0.0,0.0,0.0,0.0,0.0,0.0,0.0,0.0,0.0,0.0,0.0,0.0,0.0,-4.243,-4.3047,-4.3844,-4.4642,-4.5419,-4.5528,-4.5637,-4.5745,-4.5745,-4.5479,-4.5015,-4.4378,0.0,-4.0432,-3.7915,0.0,0.0,0.0,0.0,0.0,0.0,0.0,0.0,0.0,0.0,0.0,0.0,0.0,0.0,0.0,0.0,0.0,0.0,0.0,0.0,0.0,-3.2134,-3.4022,-3.5568,-3.5802,-3.5283,-3.3856,-3.2729,-3.1285,-2.9476,-2.931,-2.9523,-3.0011,-3.1304,-3.3282,-3.5924,-3.904,-4.07,-4.1028,-4.2237,-4.226,-4.1145,-3.8498,-3.5411,-3.2067,-2.9628,0.0,0.0,0.0,0.0,0.0,0.0,0.0,0.0,0.0,0.0,0.0,0.0,0.0,0.0,0.0,0.0,0.0,0.0,0.0,0.0,0.0,0.0,0.0,0.0,0.0,0.0,0.0,0.0,0.0,0.0,0.0,0.0,0.0,0.0,0.0,0.0,0.0,0.0,0.0,-3.3625,-3.5258,-3.4806,-3.5548,-3.5421,0.0,0.0,0.0,0.0,0.0,0.0,0.0,0.0,0.0,-4.3335,-4.4385,-4.5309,-4.6124,-4.6468,-4.7065,-4.7862,-4.7862,-4.8098,-4.8514,-4.8514,-4.8378,-4.812,-4.7645,-4.6509,-4.4711,-4.1403,-3.9095,-3.7442,0.0,0.0,0.0,0.0,-3.4009,-3.3862,0.0,0.0,0.0,0.0,0.0,0.0,0.0,0.0,0.0,0.0,0.0,0.0,-3.2007,-3.4423,-3.6655,-3.8654,-3.8798,-3.8079,-3.6412,-3.4782,-3.2905,-3.0707,-3.0547,-3.0689,-3.1118,-3.3756,-3.6607,-3.9617,-4.2016,-4.3316,-4.358,-4.4707,-4.4777,-4.3949,-4.2989,-3.9717,-3.4735,-3.2763,-3.046,-2.7909,0.0,0.0,0.0,0.0,0.0,0.0,0.0,0.0,0.0,0.0,0.0,0.0,0.0,0.0,0.0,0.0,0.0,0.0,0.0,0.0,0.0,0.0,0.0,0.0,0.0,0.0,0.0,0.0,0.0,0.0,0.0,0.0,0.0,0.0,0.0,0.0,0.0,-3.5878,-3.783,-3.6852,-3.8663,-3.8898,0.0,0.0,0.0,0.0,0.0,0.0,-4.3679,-4.4023,-4.5037,-4.7065,-4.7518,-4.8116,-4.8931,-4.8731,-4.913,-5.0126,-4.9727,-4.9836,-5.042,-5.042,-5.0337,-5.0148,-4.9528,-4.8989,-4.8236,-4.4471,-4.212,-4.0746,-3.9138,-3.8073,-3.7512,-3.8117,-3.7854,-3.7466,0.0,0.0,0.0,0.0,0.0,0.0,0.0,0.0,0.0,0.0,0.0,-3.1428,-3.6,-3.665,-3.7968,-4.1047,-3.9265,-3.8187,-3.8689,-3.5177,-3.3301,-3.3847,-3.1706,-3.1225,-3.2757,-3.7255,-4.041,-4.2121,-4.446,-4.5619,-4.5673,-4.6498,-4.5923,-4.4172,-4.4112,-4.2843,-4.0544,-3.7153,-3.4833,-3.3044,-2.879,0.0,0.0,0.0,0.0,0.0,0.0,0.0,0.0,0.0,0.0,0.0,0.0,0.0,0.0,0.0,0.0,0.0,0.0,0.0,0.0,0.0,0.0,0.0,0.0,0.0,0.0,0.0,0.0,0.0,0.0,0.0,0.0,0.0,0.0,0.0,0.0,0.0,0.0,-3.9405,-4.2611,0.0,0.0,0.0,0.0,-4.2666,-4.4059,-4.5345,-4.6269,-4.7047,-4.7859,-4.8746,-5.0253,-5.143,-5.2245,-5.1502,-5.19,-5.344,-5.19,-5.1194,-5.123,-5.123,-5.0836,-5.0093,-5.0057,-5.0021,-4.9753,-4.669,-4.4928,-4.3998,-4.2394,-4.1283,-4.0573,-4.0609,-4.0166,-3.9646,0.0,0.0,0.0,0.0,0.0,-2.3806,-2.3806,-2.4483,-2.5389,-2.6482,-2.9826,-3.2944,-3.5157,-3.8575,-4.1179,-4.23,-4.2101,-4.1521,-4.0688,-3.7809,-3.6033,-3.5716,-3.4309,-3.4989,-3.8112,-4.0324,-4.2465,-4.4553,-4.5392,-4.607,-4.6569,-4.6855,-4.6659,-4.5988,-4.5649,-4.4617,-4.2886,-3.905,-3.6572,-3.4916,-3.147,-2.9036,0.0,0.0,0.0,0.0,0.0,0.0,0.0,0.0,0.0,0.0,0.0,0.0,0.0,0.0,0.0,0.0,0.0,0.0,0.0,0.0,0.0,0.0,0.0,0.0,0.0,0.0,0.0,0.0,0.0,0.0,0.0,0.0,0.0,0.0,0.0,0.0,0.0,-4.2484,-4.5037,0.0,-4.3425,-4.4675,-4.5743,-4.5979,-4.7011,-4.8424,-5.0253,-5.0633,-5.1411,-5.2733,-5.3331,-5.3748,-5.4037,-5.3766,-5.3911,-5.4472,-5.3892,-5.3349,-5.2842,-5.2842,-5.2408,-5.1629,-5.1629,-5.1339,-5.08,-4.9724,-4.8208,-4.6433,-4.4851,-4.4106,-4.3889,-4.3889,-4.3707,-4.3451,0.0,0.0,0.0,0.0,-2.3317,-2.3806,-2.3806,-2.4701,-2.5896,-2.7236,-3.1148,-3.4516,-3.6383,-4.013,-4.2701,-4.3263,-4.3534,-4.3206,-4.2081,-3.9698,-3.8042,-3.7398,-3.6756,-3.7898,-4.1038,-4.2394,-4.3964,-4.5802,-4.607,-4.648,-4.6998,-4.6998,-4.6911,-4.6708,-4.6357,-4.5598,-4.438,-4.1285,-3.8842,-3.6887,-3.4428,-3.2409,-3.0593,0.0,0.0,0.0,0.0,0.0,0.0,0.0,0.0,0.0,0.0,0.0,0.0,0.0,0.0,0.0,0.0,0.0,0.0,0.0,0.0,0.0,0.0,0.0,0.0,0.0,0.0,0.0,0.0,0.0,0.0,0.0,0.0,0.0,0.0,0.0,-4.5309,-4.5309,-4.7916,-4.8985,-4.7102,-4.8387,-4.9438,-4.9709,-5.0488,-5.1629,-5.3222,-5.3313,-5.3802,-5.487,-5.4907,-5.5015,-5.5269,-5.5033,-5.5033,-5.5269,-5.5015,-5.4617,-5.411,-5.411,-5.3675,-5.2896,-5.2896,-5.2444,-5.1665,-5.1411,-5.0387,-4.8838,-4.7259,-4.6337,-4.5886,-4.5886,-4.5762,-4.5491,0.0,0.0,0.0,-2.2659,-2.3283,-2.3806,-2.3806,-2.5172,-2.7055,-2.9458,-3.2632,-3.613,-4.0003,-4.1234,-4.2375,-4.3914,-4.3335,-4.2862,-4.2767,-4.0528,-3.9121,-3.894,-3.8953,-3.9664,-4.1217,-4.35,-4.5071,-4.5838,-4.6641,-4.7015,-4.6998,-4.6998,-4.6708,-4.6211,-4.6211,-4.5877,-4.5268,-4.4017,-4.1927,-3.9309,-3.7765,-3.5876,-3.369,0.0,0.0,0.0,0.0,0.0,0.0,0.0,0.0,0.0,0.0,0.0,0.0,0.0,0.0,0.0,0.0,0.0,0.0,0.0,0.0,0.0,0.0,0.0,0.0,0.0,0.0,0.0,0.0,0.0,0.0,0.0,0.0,0.0,-4.1373,-4.5109,-4.7805,-4.7823,-5.1339,-5.2824,-5.0492,-5.3078,-5.4581,-5.3802,-5.4472,-5.4907,-5.4943,-5.4943,-5.4961,-5.4979,-5.4979,-5.5305,-5.6029,-5.5323,-5.5323,-5.6029,-5.5305,-5.4961,-5.4943,-5.4943,-5.4508,-5.3748,-5.3711,-5.3259,-5.248,-5.1665,-5.1303,-5.114,-4.9546,-4.7953,-4.6576,-4.6558,-4.6112,-4.5541,0.0,0.0,-2.1834,-2.1834,-2.292,-2.3806,-2.3806,-2.5172,-2.6862,-2.869,-3.3248,-3.6977,-3.8645,-4.1596,-4.3371,-4.3245,-4.3028,-4.2647,-4.2029,-4.0239,-3.9409,-3.9894,-4.1431,-4.3015,-4.4628,-4.5757,-4.6444,-4.6659,-4.7484,-4.7574,-4.6998,-4.6998,-4.6911,-4.6795,-4.6795,-4.6477,-4.5928,-4.5593,-4.4225,-4.2045,-3.9658,-3.8013,-3.6754,0.0,0.0,0.0,0.0,0.0,0.0,0.0,0.0,0.0,0.0,0.0,0.0,0.0,0.0,0.0,0.0,0.0,0.0,0.0,0.0,0.0,0.0,0.0,0.0,0.0,0.0,0.0,0.0,0.0,0.0,0.0,0.0,-4.4298,-4.4468,-4.7469,-5.0042,-5.1058,-5.3186,-5.4309,-5.3639,-5.4381,-5.4816,-5.4599,-5.478,-5.5124,-5.5667,-5.5703,-5.5957,-5.6554,-5.6573,-5.6663,-5.6862,-5.6663,-5.6663,-5.6862,-5.6663,-5.6265,-5.5703,-5.5703,-5.5287,-5.4544,-5.3947,-5.3566,-5.3313,-5.2498,-5.1828,-5.114,-4.9546,-4.8619,-4.8167,-4.7591,-4.6887,-4.6219,0.0,-2.0749,-2.1643,-2.1989,-2.3031,-2.3806,-2.3806,-2.5172,-2.7019,-2.9318,-3.3628,-3.7178,-3.8971,-4.1814,-4.3262,-4.2466,-4.3317,-4.3136,-4.1325,-4.0565,-4.0564,-4.1302,-4.3488,-4.5272,-4.648,-4.7844,-4.8531,-4.8461,-4.9264,-4.9246,-4.8461,-4.8122,-4.78,-4.7502,-4.7163,-4.6819,-4.6518,-4.6284,-4.5414,-4.4,-4.1887,-4.0427,-3.9355,-3.745,-3.6009,-3.4816,-3.3342,-3.2415,-3.1835,-3.1388,0.0,0.0,0.0,0.0,0.0,0.0,0.0,0.0,0.0,0.0,0.0,0.0,0.0,0.0,0.0,0.0,0.0,0.0,0.0,0.0,0.0,0.0,0.0,0.0,-4.4806,-4.7036,-4.742,-4.9666,-5.1952,-5.376,-5.478,-5.5486,-5.583,-5.5866,-5.5866,-5.5866,-5.5866,-5.6047,-5.6482,-5.65,-5.6717,-5.7188,-5.7188,-5.7188,-5.7188,-5.7188,-5.7188,-5.7188,-5.7188,-5.6953,-5.65,-5.65,-5.6084,0.0,-5.4544,-5.4019,-5.3639,-5.2824,-5.2208,0.0,0.0,0.0,0.0,0.0,-4.7409,-4.7011,0.0,-2.1176,-2.1972,-2.2692,-2.3359,-2.3806,-2.3806,-2.5172,-2.7363,-3.0581,-3.3719,-3.6872,-4.0021,-4.1723,-4.2375,-4.1741,-4.3751,-4.386,-4.1089,-4.1613,-4.2389,-4.3164,-4.532,-4.6852,-4.7622,-4.9751,-5.079,-5.0662,-5.1465,-5.1447,-5.062,-4.9792,-4.9103,-4.8431,-4.7538,-4.7122,-4.71,-4.653,-4.597,-4.5303,-4.4175,-4.2829,-4.1392,-4.0034,-3.9073,-3.8278,-3.687,-3.5528,-3.4402,-3.4319,0.0,0.0,0.0,0.0,0.0,0.0,0.0,0.0,0.0,0.0,0.0,0.0,0.0,0.0,0.0,0.0,0.0,0.0,0.0,0.0,0.0,0.0,0.0,0.0,-4.6954,-4.9143,-5.0333,-5.1756,-5.3496,-5.5641,-5.5991,-5.636,-5.7116,-5.7188,-5.7188,-5.7188,-5.7188,-5.7188,-5.7188,0.0,0.0,0.0,0.0,-5.7188,-5.7188,-5.7188,-5.7188,-5.7188,-5.7188,-5.7188,-5.7188,-5.7188,-5.6808,-5.6084,-5.5341,-5.4581,-5.3766,-5.2969,-5.257,-5.2426,-5.1611,-5.0325,-4.88,-4.8094,-4.779,-4.7717,0.0,-2.1651,-2.2694,-2.2858,-2.3437,-2.3886,-2.3886,-2.5205,-2.7363,-3.0581,-3.3248,-3.6055,-3.926,-4.0419,-4.1144,-4.165,-4.2719,-4.3371,-4.3389,-4.413,-4.4945,-4.5759,-4.7352,-4.8874,-5.0317,-5.1317,-5.1754,-5.1632,-5.2437,-5.2351,-5.144,-5.0637,-5.0191,-4.9995,-4.8609,-4.7966,-4.7931,-4.7155,-4.6525,-4.6003,-4.5763,-4.4306,-4.2175,-4.1326,-4.0564,-3.9852,-3.8984,-3.8486,-3.8155,-3.7549,-3.6671,-3.5727,-3.5131,0.0,0.0,0.0,0.0,0.0,0.0,0.0,0.0,0.0,0.0,0.0,0.0,0.0,0.0,0.0,0.0,0.0,0.0,0.0,0.0,-4.6272,-4.8203,-5.0489,-5.3651,-5.3979,-5.4221,-5.5142,-5.5866,-5.65,-5.7138,-5.7188,-5.7188,-5.7188,-5.7188,-5.7188,-5.7188,-5.7188,0.0,-5.7188,-5.7188,-5.7188,-5.7188,-5.7188,-5.7188,-5.7188,0.0,0.0,-5.7188,-5.7188,-5.7116,-5.6917,-5.612,-5.5359,-5.4617,-5.3802,-5.3078,-5.2426,-5.1611,-5.0325,-4.8873,-4.8728,-4.8257,-4.7717,-2.1667,-2.2374,-2.3023,-2.3425,-2.3712,-2.3907,-2.3937,-2.5259,-2.7271,-3.0129,-3.2601,-3.5166,-3.795,-3.8948,-3.9385,-3.9351,-4.0075,-4.156,-4.3932,-4.4838,-4.5834,-4.7065,-4.8956,-5.0539,-5.1679,-5.278,-5.3475,-5.3753,-5.4561,-5.4466,-5.3524,-5.2369,-5.1551,-5.103,-4.9442,-4.8532,-4.8181,-4.777,-4.7057,-4.6211,-4.6211,-4.5278,-4.3747,-4.2377,-4.1455,-4.0763,-3.9696,-3.9299,-3.9249,-3.8858,-3.8261,-3.7599,-3.7218,-3.5843,-3.4054,0.0,0.0,0.0,0.0,0.0,0.0,0.0,0.0,0.0,0.0,0.0,0.0,0.0,0.0,-4.084,0.0,0.0,-4.6401,-4.8707,-5.0144,-5.1576,-5.3428,-5.4069,-5.4641,-5.5569,-5.6052,-5.642,-5.6732,-5.7018,-5.7188,-5.7188,-5.7188,-5.7188,-5.7188,-5.7188,-5.7188,-5.7188,-5.7188,-5.7188,-5.7188,-5.7188,-5.7188,-5.7188,-5.7188,-5.7188,-5.7188,-5.7188,-5.7188,-5.7152,-5.6337,-5.5776,-5.5359,-5.4182,-5.3222,-5.2462,-5.2063,-5.1158,-4.9999,-4.918,-4.8637,-4.8239,-2.3088,-2.3198,-2.3353,-2.4003,-2.4016,-2.4002,-2.4217,-2.5433,-2.7207,-2.9685,-3.1836,-3.3978,-3.616,-3.698,-3.733,-3.723,-3.8245,-4.0419,-4.4077,-4.5526,-4.6812,-4.8116,-5.0325,-5.1927,-5.2786,-5.4032,-5.5058,-5.5875,-5.6523,-5.6355,-5.539,-5.4018,-5.2892,-5.1926,-5.0311,-4.9258,-4.865,-4.8323,-4.7571,-4.6568,-4.6427,-4.5915,-4.5044,-4.3297,-4.2182,-4.1394,-4.0124,-3.9395,-3.9116,-3.9249,-3.8871,-3.8341,-3.8404,-3.7559,-3.6288,-3.4864,-3.3806,0.0,0.0,0.0,0.0,0.0,0.0,0.0,0.0,0.0,-3.8791,-4.0276,-4.217,-4.4155,-4.6101,-4.7289,-4.8651,-5.0808,-5.173,-5.2317,-5.265,-5.3584,-5.4641,-5.5801,-5.6045,-5.6174,-5.6284,-5.6758,-5.7036,-5.7036,-5.7138,-5.7188,-5.7188,-5.7188,-5.7188,-5.7188,-5.7188,-5.7188,-5.7188,-5.7188,-5.7188,-5.7188,-5.7188,-5.7188,-5.7188,-5.7188,-5.7188,-5.7152,-5.6337,-5.5993,-5.5866,-5.4345,-5.3313,-5.2715,-5.2552,-5.21,-5.1357,-4.9908,-4.9162,-4.88,0.0,-2.4061,-2.407,-2.4162,-2.4141,-2.4322,-2.5037,-2.5862,-2.726,-2.9667,-3.087,-3.2088,-3.3724,-3.3982,-3.5115,-3.7828,-4.0057,-4.2411,-4.5001,-4.7916,-4.9641,-4.9818,-5.1448,-5.3078,-5.4575,-5.4792,-5.5514,-5.6832,-5.6923,-5.6485,-5.5564,-5.4719,-5.3893,-5.3041,-5.1311,-5.051,-5.0331,-4.8835,-4.8122,-4.7909,-4.7196,-4.6165,-4.4949,-4.4067,-4.3093,-4.2098,-4.1201,-3.9795,-3.8427,-3.9083,-3.9081,-3.8874,-3.9109,-3.8906,-3.8334,-3.7103,0.0,-3.4468,-3.364,-3.3475,-3.417,-3.682,-3.7599,-3.8725,0.0,0.0,-4.3284,-4.4771,-4.6311,-4.7471,-4.7752,-4.8928,-5.0291,-5.1497,-5.1799,-5.2387,-5.3962,-5.383,-5.3832,-5.4548,-5.5129,-5.5705,-5.6257,-5.6366,-5.6393,-5.6393,-5.6889,-5.7188,-5.7188,-5.7188,-5.7188,-5.7188,-5.7188,-5.7188,-5.7188,-5.7188,-5.7188,-5.7188,-5.7188,-5.7188,-5.7188,-5.7188,-5.7188,-5.7152,-5.6337,-5.5993,-5.5866,-5.4345,-5.3657,-5.3494,-5.277,-5.2444,-5.2263,-5.1357,-5.0126,-4.8873,0.0,-2.419,-2.419,-2.419,-2.4133,-2.4388,-2.5234,-2.5989,-2.7163,-2.9161,-3.0125,-3.1033,-3.21,-3.2151,-3.3037,-3.5324,-3.8061,-4.0691,-4.3102,-4.7122,-4.9601,-5.0093,-5.1629,-5.3023,-5.4182,-5.42,-5.4719,-5.5767,-5.5767,-5.5537,-5.5008,-5.4258,-5.3711,-5.3235,-5.2054,-5.1257,-5.0737,-4.9577,-4.8772,-4.8238,-4.7433,-4.6453,-4.5356,-4.429,-4.2897,-4.1353,-4.0213,-3.9303,0.0,0.0,-3.8353,-3.828,-3.8396,-3.805,-3.7472,-3.6688,-3.6025,0.0,-3.6208,-3.6671,-3.7409,0.0,-4.0431,-4.1811,-4.3661,-4.4489,-4.5185,-4.6212,-4.7603,-4.8779,-4.921,-5.0189,-5.1256,0.0,-5.2469,-5.2876,-5.3582,-5.3538,-5.3472,-5.3722,-5.4,-5.4598,-5.5669,-5.642,-5.6811,-5.6811,-5.7061,-5.7188,-5.7188,-5.7188,-5.7188,-5.7188,-5.7188,-5.7188,-5.7188,-5.7188,-5.7188,-5.7188,-5.7188,-5.7188,-5.7188,-5.7188,-5.7188,-5.717,-5.6826,-5.6428,-5.5939,-5.5287,-5.4508,-5.3675,-5.3331,-5.2915,-5.2389,-5.1593,-5.0868,-5.0234,0.0,-2.419,-2.419,-2.419,-2.4161,-2.4481,-2.5566,-2.6177,-2.7109,-2.8773,-2.95,-3.0075,-3.0582,-3.0529,-3.121,-3.3071,-3.5911,-3.8785,-4.1597,-4.5856,-4.8735,-4.9727,-5.1303,-5.2552,-5.3349,-5.3585,-5.4092,-5.4907,-5.4907,-5.4707,-5.4338,-5.3803,-5.3382,-5.3069,-5.2426,-5.17,-5.089,-5.0075,-4.9216,-4.8339,-4.7335,-4.6372,-4.5418,-4.4032,-4.2462,-4.0819,-3.9395,-3.8408,0.0,0.0,-3.7111,-3.7188,-3.7064,-3.6993,-3.6949,-3.6671,-3.6754,-3.7135,-3.8212,-3.9172,0.0,-4.1044,-4.2767,-4.4274,-4.4442,-4.55,-4.656,-4.709,-4.8216,-4.9276,-4.9806,-5.0738,-5.1639,-5.2189,-5.27,-5.3041,-5.311,-5.2987,-5.2912,-5.296,-5.2943,-5.3406,-5.4702,-5.5801,-5.6438,-5.6438,-5.6767,-5.6941,-5.6941,-5.7112,-5.7188,-5.7188,-5.7188,-5.7188,-5.7188,-5.7188,-5.7188,-5.7188,-5.7188,-5.7188,-5.7188,-5.7188,-5.7188,-5.7188,-5.7188,-5.6862,-5.6301,-5.6084,-5.5214,-5.4019,-5.3784,-5.3204,-5.2426,-5.1846,-5.1484,-5.1212,0.0,0.0,-2.419,-2.419,-2.419,-2.474,-2.6319,-2.6583,-2.717,-2.8785,-2.9023,-2.9019,-2.899,-2.8907,-2.9817,-3.2151,-3.4626,-3.7669,-4.147,-4.4824,-4.7366,-4.8876,-5.047,-5.1701,-5.2516,-5.3295,-5.4092,-5.4907,-5.4907,-5.4508,-5.3729,-5.3711,-5.3277,-5.2511,-5.2358,-5.1836,-5.1025,-5.0099,-4.9243,-4.8362,-4.6834,-4.5755,-4.4836,-4.3187,-4.2036,-4.1069,-3.9473,0.0,0.0,-3.4989,-3.5348,-3.5673,-3.5138,-3.6269,0.0,-3.8051,-3.8626,-3.9216,-3.9249,0.0,-4.1707,-4.3135,-4.4638,-4.5914,-4.6643,-4.7388,-4.7934,-4.7968,-4.858,-4.911,-4.9144,-5.0303,-5.135,-5.1523,-5.2157,-5.2711,-5.2868,-5.2301,-5.1934,-5.2102,-5.2026,-5.2306,0.0,-5.4053,-5.4468,-5.4468,-5.5629,-5.6339,-5.6339,-5.6889,-5.7188,-5.7188,-5.7188,-5.7188,-5.7188,-5.7188,-5.7188,-5.7188,-5.7188,-5.7188,-5.7188,-5.7188,-5.7188,-5.7188,-5.7188,-5.7188,-5.7098,-5.6319,-5.554,-5.4798,-5.4001,-5.3204,-5.2498,-5.2462,-5.1973,-5.1285,0.0,0.0,0.0,-2.5695,-2.5786,-2.6153,-2.7236,-2.6943,-2.6998,-2.8062,-2.8675,0.0,0.0,0.0,0.0,0.0,-3.381,-3.6409,-3.9372,-4.294,-4.5441,-4.6531,-4.859,-4.9836,-5.0126,-5.0904,-5.143,-5.1719,-5.1719,-5.1574,-5.1303,-5.1303,-5.118,-5.0904,-5.0841,-5.0697,-5.0367,-4.9527,-4.9261,-4.9235,-4.7122,-4.6071,-4.5569,-4.3604,-4.1209,-3.8827,0.0,0.0,-3.5645,-3.4329,-3.4009,-3.4223,-3.4532,0.0,0.0,-3.6372,-3.7895,-3.9404,-4.0436,0.0,-4.3776,-4.4809,-4.6105,-4.7239,-4.7551,-4.8124,-4.8331,-4.7451,-4.7868,-4.8216,-4.7736,-4.8845,-5.0039,-5.0554,-5.1321,-5.2092,-5.2802,-5.2386,-5.2051,-5.2201,-5.2194,0.0,0.0,0.0,0.0,-5.5004,-5.5473,-5.5705,-5.5705,-5.6284,-5.6582,-5.6582,-5.6992,-5.7188,-5.7188,-5.7188,-5.7188,-5.7188,-5.7188,-5.7188,-5.7188,-5.7188,-5.7188,-5.7188,-5.7188,-5.7188,-5.717,-5.6899,-5.6047,-5.487,-5.4599,-5.3675,-5.2498,-5.2498,-5.2317,-5.21,0.0,0.0,0.0,0.0,0.0,0.0,0.0,0.0,0.0,0.0,0.0,0.0,0.0,0.0,0.0,0.0,0.0,-3.4991,-3.7445,-4.0702,-4.3014,-4.4141,-4.5878,-4.6962,-4.7252,-4.772,-4.8224,-4.8804,-4.8804,-4.8949,-4.9238,-4.9238,-4.9238,-4.9238,-4.9238,-4.9075,-4.8768,-4.8261,-4.8127,-4.8063,-4.5949,-4.5059,-4.4741,-4.2172,-3.9767,0.0,0.0,0.0,-3.5015,-3.3175,-3.2936,-3.3406,-3.3455,-3.416,-3.5245,-3.6654,-3.8562,-4.062,-4.2423,-4.4096,-4.5607,-4.6659,-4.7547,-4.8203,-4.8318,-4.8232,-4.7862,-4.6738,-4.6676,-4.6676,-4.6195,-4.6891,-4.8034,-4.9574,-5.0289,-5.1123,-5.2527,-5.2181,-5.1849,-5.2018,-5.1849,-5.1864,0.0,0.0,0.0,-5.4655,-5.4905,-5.5039,-5.5039,-5.5647,-5.5978,-5.5978,-5.6555,-5.6889,-5.6889,-5.7087,-5.7188,-5.7188,-5.7188,-5.7188,-5.7188,-5.7188,-5.7188,-5.7188,-5.7188,-5.7188,-5.7188,-5.7188,-5.6283,-5.4907,-5.4907,-5.3929,-5.2498,-5.2498,-5.2498,-5.2498,0.0,0.0,0.0,0.0,0.0,0.0,0.0,0.0,0.0,0.0,0.0,0.0,0.0,0.0,0.0,0.0,0.0,0.0,-3.5811,-3.8172,-4.0181,-4.1684,-4.2541,-4.3341,-4.4103,-4.4081,-4.4784,-4.6323,-4.6323,-4.6721,-4.7464,-4.7464,-4.7464,-4.7464,-4.7464,-4.7029,-4.6323,-4.6323,-4.5888,-4.5017,-4.3388,-4.2737,-4.2374,-3.9174,0.0,0.0,0.0,0.0,-3.321,-3.1684,-3.2242,0.0,0.0,0.0,-3.8119,-3.8957,-4.0722,-4.2844,-4.5106,-4.6285,-4.7183,-4.8558,-4.8914,-4.8914,-4.8801,-4.7814,-4.6673,-4.5831,-4.5052,-4.4506,0.0,0.0,-4.5582,-4.8465,-4.9061,-4.9922,-5.2111,-5.1812,-5.1418,0.0,0.0,0.0,0.0,0.0,0.0,-5.345,0.0,-5.4359,-5.4359,-5.4996,-5.5355,-5.5355,-5.5932,-5.6257,-5.6311,-5.6889,-5.7188,-5.7188,-5.7188,-5.7188,-5.7188,-5.7188,-5.7188,-5.7188,-5.7188,-5.7188,-5.7188,-5.7188,-5.6301,-5.4961,-5.4925,-5.3947,-5.2552,-5.2516,-5.2498,-5.2498,0.0,0.0,0.0,0.0,0.0,0.0,0.0,0.0,0.0,0.0,0.0,0.0,0.0,0.0,0.0,0.0,0.0,0.0,-3.5135,-3.6309,-3.7411,-3.8446,-4.0353,-4.145,-4.1615,-4.2759,-4.3502,-4.3806,-4.3806,-4.3914,-4.4114,-4.4114,-4.4114,-4.4114,-4.4114,-4.4005,-4.3806,-4.3806,-4.3561,-4.3001,0.0,-4.0547,-4.0101,0.0,0.0,0.0,0.0,-3.3987,-3.2549,0.0,0.0,0.0,0.0,-3.8373,-4.0393,-4.1736,0.0,-4.4964,-4.6701,-4.8054,-4.899,-4.8904,-4.9231,-4.9197,-4.7747,-4.7074,-4.626,-4.4514,-4.3148,-4.2088,0.0,0.0,0.0,-4.6344,-4.8498,0.0,-5.2302,-5.2509,0.0,-5.2756,0.0,-5.2859,-5.3129,-5.3045,0.0,0.0,-5.3634,-5.3734,-5.3734,-5.433,-5.4641,-5.4641,-5.5278,-5.5848,-5.6284,-5.6889,-5.7188,-5.7188,-5.7188,-5.7188,-5.7188,-5.7188,-5.7188,-5.7188,-5.7188,-5.7188,-5.7188,-5.7188,-5.6609,-5.5649,-5.5106,-5.4291,-5.3313,-5.2715,-5.2498,-5.2498,0.0,0.0,0.0,0.0,0.0,0.0,0.0,0.0,0.0,0.0,0.0,0.0,0.0,0.0,0.0,0.0,0.0,0.0,0.0,-3.4779,-3.559,-3.6208,-3.7453,-3.82,-3.8359,-3.9385,-3.9949,-4.004,-4.0583,-4.0854,-4.0854,-4.0854,-4.0854,-4.0854,-4.0854,-4.0854,-4.0854,-4.0854,-4.0617,0.0,0.0,0.0,0.0,0.0,0.0,0.0,-3.4158,-3.404,-3.4071,0.0,0.0,-3.8777,-4.0087,-4.1527,-4.2927,-4.3883,0.0,-4.6855,-4.7511,-4.8924,-5.0096,-4.944,-4.9318,-4.8919,-4.7162,-4.5774,-4.4252,-4.2157,-4.0812,0.0,-3.9504,0.0,0.0,0.0,0.0,0.0,-5.1719,-5.2405,-5.2711,0.0,-5.3075,0.0,-5.3246,-5.3298,-5.3348,0.0,-5.3382,-5.3416,-5.3518,-5.3816,-5.4011,-5.4011,-5.4627,-5.5249,-5.5904,-5.6501,-5.6811,-5.6811,-5.7087,-5.7188,-5.7188,-5.7188,-5.7188,-5.7188,0.0,-5.7188,-5.7188,-5.7188,-5.6717,-5.5921,-5.5196,-5.4418,-5.3603,-5.2788,-5.2498,-5.2498,0.0,0.0,0.0,0.0,0.0,0.0,0.0,0.0,0.0,0.0,0.0,0.0,0.0,0.0,0.0,0.0,0.0,0.0,0.0,0.0,-3.4322,-3.4651,-3.4596,-3.4764,-3.5226,-3.5519,-3.5831,-3.6167,-3.7267,-3.7798,-3.7798,-3.7849,-3.7883,-3.7883,-3.7832,-3.7798,-3.7798,-3.7747,-3.7433,-3.6934,-3.6221,0.0,0.0,0.0,0.0,0.0,-3.2687,-3.3899,-3.6267,-3.879,-4.0038,-4.0864,-4.2765,-4.4429,-4.5703,-4.5891,-4.7187,-4.8504,-4.8204,-4.935,-5.053,-4.9971,-4.9281,-4.8349,-4.6591,-4.4271,-4.1841,-3.9597,0.0,-3.7914,-3.7914,-3.8659,-4.0426,-4.3843,0.0,-4.7918,-5.0901,-5.1862,-5.231,-5.2393,-5.2711,-5.2903,-5.2903,-5.3212,-5.3348,-5.3179,-5.3144,-5.323,-5.3433,-5.3467,-5.3501,-5.3501,-5.4091,-5.4672,-5.5266,-5.5876,-5.6174,-5.6201,-5.6785,-5.7087,-5.7087,-5.7163,-5.7188,-5.7188,0.0,0.0,-5.7188,-5.7188,-5.679,-5.6066,-5.5233,-5.4472,-5.3748,-5.2842,-5.2498,-5.2498,0.0,0.0,0.0,0.0,0.0,0.0,0.0,0.0,0.0,0.0,-3.1935,-3.1439,0.0,0.0,0.0,0.0,0.0,0.0,0.0,0.0,0.0,-3.34,-3.3713,-3.4008,-3.4316,-3.4761,-3.4996,-3.4994,-3.549,-3.5716,-3.5733,-3.6053,-3.622,-3.6202,-3.5869,-3.5716,-3.5699,-3.5421,-3.469,-3.3707,0.0,0.0,0.0,0.0,0.0,0.0,-3.3539,-3.4533,-3.5794,-3.9237,-4.1899,-4.4072,-4.5761,-4.7333,-4.862,-4.881,-4.9109,-4.9537,-5.0183,-5.0171,-4.9976,-4.9954,-4.9342,-4.7929,-4.4833,-4.3205,0.0,0.0,-3.7317,-3.639,-3.639,-3.7963,-4.0094,-4.2502,-4.5152,-4.7918,0.0,0.0,-5.1871,0.0,0.0,0.0,0.0,0.0,0.0,0.0,0.0,-5.2972,-5.2989,-5.3314,-5.3501,-5.3501,-5.4091,-5.4454,-5.4579,-5.5236,-5.556,-5.556,-5.6174,-5.6447,-5.6474,-5.6966,-5.7188,-5.7188,-5.7188,0.0,-5.7188,-5.7188,-5.7116,-5.6844,-5.545,-5.4816,-5.4508,-5.3041,-5.2498,-5.2498,0.0,0.0,0.0,0.0,0.0,0.0,0.0,-3.1409,-3.2586,-3.4758,-3.4754,-3.435,-3.3899,-3.3482,-3.3318,0.0,0.0,0.0,0.0,0.0,0.0,0.0,-3.2889,-3.2913,-3.2844,0.0,0.0,0.0,0.0,0.0,0.0,0.0,0.0,0.0,0.0,0.0,0.0,0.0,0.0,0.0,0.0,0.0,0.0,0.0,0.0,0.0,0.0,-3.5269,-3.6258,-3.8427,-4.1202,-4.4161,-4.631,-4.8068,-4.9339,-4.9537,-4.9818,-5.0197,-5.0778,-5.0639,-5.0343,-5.0472,-4.88,-4.6357,-4.3609,0.0,0.0,0.0,-3.5926,-3.5429,-3.5429,-3.692,0.0,-4.0531,-4.2965,-4.5781,-4.9094,0.0,0.0,0.0,0.0,0.0,0.0,0.0,0.0,0.0,0.0,-5.2903,-5.2903,-5.3195,-5.3348,-5.3348,-5.3617,-5.3798,-5.3798,-5.4422,-5.4717,-5.4717,-5.5484,-5.5819,-5.5848,-5.6447,-5.6732,-5.6732,-5.6732,0.0,-5.6732,-5.6732,-5.6732,-5.665,-5.5803,-5.5233,-5.4762,-5.3566,-5.286,-5.2498,0.0,0.0,0.0,0.0,0.0,0.0,0.0,-3.2403,-3.3949,-3.6398,-3.73,-3.7166,-3.5684,-3.463,-3.38,0.0,0.0,0.0,0.0,0.0,0.0,0.0,0.0,-3.195,0.0,0.0,0.0,0.0,0.0,0.0,0.0,0.0,0.0,0.0,0.0,0.0,0.0,0.0,0.0,0.0,0.0,0.0,0.0,0.0,0.0,0.0,0.0,-3.5564,-3.6304,-3.7439,-3.9623,-4.2273,-4.4728,-4.715,-4.9054,-4.9097,-4.9768,-5.0531,-5.0702,-5.0667,-5.0631,-5.074,-4.8165,-4.4993,-4.2696,-4.0215,0.0,0.0,-3.4899,-3.4899,-3.4899,-3.5976,-3.74,0.0,-4.0961,-4.3532,-4.7255,0.0,0.0,0.0,0.0,0.0,0.0,0.0,0.0,0.0,0.0,0.0,-5.2903,-5.3007,-5.311,-5.3179,-5.3144,-5.3144,-5.3179,-5.3649,-5.3828,-5.3828,-5.4717,-5.5129,-5.5129,-5.5819,-5.6118,-5.6118,-5.6118,0.0,0.0,-5.6101,-5.6174,-5.6249,-5.5731,-5.5279,-5.478,-5.3802,-5.3041,-5.2498,0.0,0.0,0.0,0.0,0.0,0.0,0.0,-3.3158,-3.5308,-3.8018,-3.8602,-3.8374,-3.7307,-3.574,-3.4263,0.0,0.0,0.0,0.0,0.0,0.0,0.0,0.0,0.0,0.0,0.0,0.0,0.0,0.0,0.0,0.0,0.0,0.0,0.0,0.0,0.0,0.0,0.0,0.0,0.0,0.0,0.0,0.0,0.0,0.0,0.0,0.0,0.0,0.0,0.0,0.0,-3.8471,-4.0127,-4.417,-4.8188,-4.7586,0.0,0.0,-5.0009,-4.9907,-4.9906,-5.0062,-4.7831,-4.4901,-4.2132,0.0,0.0,-3.5466,-3.4899,-3.4899,-3.4899,-3.5562,-3.6804,-3.895,-4.0531,-4.28,-4.6477,0.0,0.0,0.0,0.0,0.0,0.0,0.0,0.0,0.0,0.0,0.0,-5.2868,-5.2729,-5.2834,-5.3179,-5.3007,-5.3007,-5.3179,-5.3076,-5.299,-5.3025,-5.3845,-5.4215,-5.4247,-5.5099,-5.5473,-5.5473,-5.5473,0.0,0.0,-5.5455,-5.5791,-5.6151,-5.4661,-5.4424,-5.4707,-5.3186,-5.2552,-5.2498,0.0,0.0,0.0,0.0,0.0,0.0,-3.1882,-3.2664,-3.4401,-3.8713,-3.8938,-3.8538,-3.8098,-3.6652,-3.4796,-3.2597,0.0,0.0,0.0,0.0,0.0,0.0,0.0,0.0,0.0,0.0,0.0,0.0,0.0,0.0,0.0,0.0,0.0,0.0,0.0,0.0,0.0,0.0,0.0,0.0,0.0,0.0,0.0,0.0,0.0,0.0,0.0,0.0,0.0,0.0,0.0,0.0,-3.7733,-4.0337,0.0,0.0,-4.6968,-4.8513,-5.0435,-5.0377,-4.9815,-4.9936,-4.7459,-4.4255,-4.1444,0.0,-3.7302,-3.5295,-3.4899,-3.4899,-3.4899,-3.5131,-3.5777,-3.7085,-3.7781,-3.9421,-4.3081,0.0,0.0,0.0,0.0,0.0,0.0,0.0,0.0,0.0,0.0,0.0,-5.2622,-5.2605,-5.2659,-5.2834,-5.2764,-5.2764,-5.2834,-5.2764,-5.2729,-5.2729,-5.3179,-5.3433,-5.36,-5.4296,-5.4686,-5.4795,-5.4795,0.0,0.0,-5.4795,-5.4931,-5.5126,-5.4764,-5.449,-5.4202,-5.3502,-5.2915,-5.2498,0.0,0.0,0.0,0.0,0.0,-2.842,-3.1731,-3.2369,-3.3973,-3.8119,-3.8584,-3.8436,-3.8094,-3.65,-3.4805,-3.3146,-3.2402,0.0,0.0,0.0,0.0,0.0,0.0,0.0,0.0,0.0,0.0,0.0,0.0,0.0,0.0,0.0,0.0,0.0,0.0,0.0,0.0,0.0,0.0,0.0,0.0,0.0,0.0,0.0,0.0,0.0,0.0,0.0,0.0,0.0,0.0,0.0,0.0,-3.72,-3.9537,0.0,-4.4786,-4.6421,-4.9113,-4.9501,-4.912,-4.9005,-4.659,-4.3557,0.0,-3.8676,-3.6688,-3.5197,-3.4899,-3.4899,-3.4899,-3.4899,-3.5131,-3.5876,-3.6373,-3.7765,-4.0933,-4.2419,0.0,0.0,0.0,0.0,0.0,0.0,0.0,0.0,0.0,0.0,0.0,-5.2499,-5.257,-5.2589,-5.257,-5.257,-5.2589,-5.257,-5.2535,-5.2535,-5.2729,-5.2868,-5.3041,-5.3583,-5.3927,-5.4057,0.0,0.0,0.0,-5.4106,-5.4186,-5.4302,-5.4244,-5.4081,-5.3813,-5.3086,-5.2558,-5.2209,0.0,0.0,0.0,0.0,0.0,0.0,-3.0368,-3.2629,-3.4608,-3.6053,-3.7504,-3.8066,-3.7121,-3.5057,-3.4028,-3.4801,-3.288,0.0,0.0,0.0,0.0,0.0,0.0,0.0,0.0,0.0,-3.4472,-3.4472,-3.5211,0.0,0.0,0.0,0.0,0.0,0.0,0.0,0.0,0.0,0.0,0.0,0.0,0.0,0.0,0.0,0.0,0.0,0.0,0.0,0.0,0.0,0.0,0.0,0.0,-3.5155,-3.6855,-4.0023,-4.2538,-4.4491,-4.5252,-4.6512,-4.7475,-4.6859,-4.5055,-4.2861,-4.0862,-3.8676,-3.6688,-3.5197,-3.4899,-3.4899,-3.4899,-3.4899,-3.5131,-3.5876,-3.7235,-3.8914,-4.111,-4.3297,0.0,0.0,0.0,0.0,0.0,0.0,0.0,0.0,0.0,0.0,0.0,-5.2409,-5.248,-5.2605,-5.248,-5.248,-5.2589,-5.248,-5.2409,-5.2409,-5.2535,-5.2589,-5.2624,-5.3007,-5.3213,0.0,0.0,0.0,0.0,-5.3416,-5.3716,-5.3965,-5.2643,-5.2851,-5.3637,-5.152,-5.1087,-5.1525,0.0,0.0,0.0,0.0,0.0,0.0,0.0,-3.0489,-3.1868,-3.4433,-3.5173,-3.5714,-3.637,-3.4964,-3.4266,-3.4977,-3.3416,0.0,0.0,0.0,0.0,0.0,0.0,0.0,0.0,0.0,-3.552,-3.6084,-3.6299,-3.6304,-3.6068,0.0,0.0,0.0,0.0,0.0,0.0,0.0,0.0,0.0,0.0,0.0,0.0,0.0,0.0,0.0,0.0,0.0,0.0,0.0,0.0,0.0,0.0,0.0,0.0,-3.5776,-3.8698,0.0,-4.2873,-4.3941,-4.4494,-4.3311,-4.2113,-4.0671,-3.8617,-3.7218,-3.6075,-3.5098,-3.4899,-3.4899,-3.4899,-3.4899,-3.5313,-3.6555,-3.7152,-3.8212,0.0,0.0,0.0,0.0,0.0,0.0,0.0,0.0,0.0,0.0,0.0,0.0,0.0,-5.2409,-5.2409,-5.248,-5.2409,-5.2409,-5.248,-5.2409,-5.2409,-5.2409,-5.2445,-5.2499,-5.2589,-5.2729,0.0,0.0,0.0,0.0,0.0,-5.3264,-5.3382,-5.3364,-5.2206,-5.2037,-5.2288,-5.0882,-5.0589,-5.0813,0.0,0.0,0.0,0.0,0.0,0.0,0.0,-2.9317,-3.0385,-3.2829,-3.3156,-3.3805,-3.5484,-3.4438,-3.4097,-3.5334,-3.4326,0.0,0.0,0.0,0.0,0.0,0.0,0.0,0.0,-3.5211,-3.6146,-3.7235,-3.7235,-3.7371,-3.7625,-3.7127,-3.618,0.0,0.0,0.0,0.0,0.0,0.0,0.0,0.0,0.0,0.0,0.0,0.0,0.0,0.0,0.0,0.0,0.0,0.0,0.0,0.0,0.0,0.0,0.0,-3.5536,-3.8243,-3.978,-4.118,-4.195,-4.0828,-4.0147,-3.9268,-3.7502,-3.6539,-3.5794,-3.5048,-3.4899,-3.4899,-3.4899,-3.4899,-3.5197,-3.6125,-3.6738,-3.7781,0.0,0.0,0.0,0.0,0.0,0.0,0.0,0.0,0.0,0.0,0.0,0.0,0.0,-5.2409,-5.2409,-5.2409,-5.2409,-5.2409,-5.2409,-5.2409,-5.2409,-5.2409,-5.2409,-5.2445,-5.2535,-5.257,0.0,0.0,0.0,0.0,0.0,-5.3041,-5.2874,-5.247,-5.1592,-5.1281,-5.1179,-4.9987,-4.9775,-5.0067,0.0,0.0,0.0,0.0,0.0,0.0,0.0,-2.8954,-2.992,-3.1273,-3.1514,-3.2297,-3.4349,-3.3459,-3.3568,-3.5651,0.0,0.0,0.0,0.0,0.0,0.0,0.0,0.0,-3.4556,-3.5318,-3.6411,-3.7905,-3.8024,-3.8413,-3.9073,-3.9123,-3.7939,-3.5752,-3.5752,0.0,0.0,0.0,0.0,0.0,0.0,0.0,0.0,0.0,0.0,0.0,0.0,0.0,0.0,0.0,0.0,0.0,0.0,0.0,0.0,0.0,0.0,0.0,0.0,-3.8137,-3.9505,-3.8966,-3.8681,-3.8248,-3.7062,-3.6257,0.0,-3.4949,-3.4816,-3.4849,-3.4965,-3.4932,-3.4965,-3.5181,-3.6357,0.0,0.0,0.0,0.0,0.0,0.0,0.0,0.0,0.0,0.0,0.0,0.0,0.0,0.0,-5.2409,-5.2409,-5.2409,-5.2409,-5.2409,-5.2409,-5.2409,-5.2409,-5.2409,-5.2409,-5.2409,-5.2409,-5.2535,0.0,0.0,0.0,0.0,0.0,-5.2749,-5.228,-5.1441,-5.0844,-5.0532,-5.0274,-4.8957,-4.8827,-4.9269,0.0,0.0,0.0,0.0,0.0,0.0,0.0,0.0,0.0,0.0,-3.0523,-3.1278,-3.2246,-3.2059,-3.252,0.0,0.0,0.0,0.0,0.0,0.0,0.0,0.0,0.0,-3.5329,-3.6113,-3.6975,-3.7905,-3.9014,-3.9656,-3.9842,-4.0426,-3.9495,-3.7364,-3.7364,-3.6495,0.0,0.0,0.0,0.0,0.0,0.0,0.0,0.0,0.0,0.0,0.0,0.0,0.0,0.0,0.0,0.0,0.0,0.0,0.0,0.0,-3.1979,-3.2227,-3.274,0.0,-3.5105,-3.4416,-3.4203,-3.4089,0.0,-3.3613,-3.3597,-3.3972,-3.4054,-3.4386,-3.5528,-3.528,-3.5628,-3.7906,-3.8569,-3.9471,0.0,0.0,0.0,0.0,0.0,0.0,0.0,0.0,0.0,0.0,0.0,0.0,0.0,-5.2409,-5.2409,-5.2409,-5.2409,-5.2409,-5.2409,-5.2409,-5.2409,-5.2409,-5.2409,-5.2409,-5.2409,-5.2445,0.0,0.0,0.0,0.0,-5.2555,-5.2042,-5.1709,-5.1357,-5.0025,-4.9543,-4.9537,-4.8478,-4.826,-4.8467,0.0,0.0,0.0,0.0,0.0,0.0,0.0,0.0,0.0,0.0,0.0,0.0,0.0,0.0,0.0,0.0,0.0,0.0,0.0,0.0,0.0,0.0,0.0,-3.4692,-3.5098,-3.6237,-3.7337,-3.8396,-3.9521,-4.0434,-4.1119,-4.117,-4.0206,-3.8362,-3.7313,-3.6377,0.0,0.0,0.0,0.0,0.0,0.0,0.0,0.0,0.0,0.0,-3.1802,-3.2256,0.0,-3.3288,-3.4124,-3.4885,0.0,0.0,0.0,0.0,-3.1366,-3.1101,-3.1101,-3.268,-3.4203,-3.3806,-3.3707,-3.3707,-3.3707,-3.3199,-3.2818,-3.3193,-3.3557,-3.4038,-3.4833,-3.5214,-3.6042,0.0,-3.8868,0.0,0.0,0.0,0.0,0.0,0.0,0.0,0.0,0.0,0.0,0.0,0.0,0.0,0.0,-5.2409,-5.2409,-5.2409,-5.2409,-5.2409,-5.2409,-5.2409,-5.2409,-5.2409,-5.2409,-5.2409,-5.2409,-5.2409,-5.2445,0.0,0.0,0.0,-5.1968,-5.1552,-5.1004,-5.0323,-4.9442,-4.8962,-4.8679,-4.8183,-4.8066,-4.8115,0.0,0.0,0.0,0.0,0.0,0.0,0.0,0.0,0.0,0.0,0.0,0.0,0.0,0.0,0.0,0.0,0.0,0.0,0.0,0.0,0.0,0.0,0.0,-3.4726,-3.4844,-3.6135,-3.7472,-3.8819,-3.9817,-4.0916,-4.2117,-4.1728,-4.0629,-3.8903,-3.6755,-3.5701,0.0,0.0,0.0,0.0,0.0,0.0,0.0,0.0,0.0,0.0,0.0,0.0,0.0,-3.2899,-3.3694,-3.4433,-3.399,0.0,0.0,0.0,0.0,0.0,-3.077,-3.2829,-3.4816,-3.4485,-3.4568,-3.47,-3.4584,-3.3613,-3.2735,-3.2851,-3.3381,-3.3889,-3.4237,-3.533,0.0,0.0,0.0,0.0,0.0,0.0,0.0,0.0,0.0,0.0,0.0,0.0,0.0,0.0,0.0,0.0,0.0,-5.2409,-5.2409,-5.2409,-5.2409,-5.2409,-5.2409,-5.2409,-5.2409,-5.2409,-5.2409,-5.2409,-5.2409,-5.2409,-5.2359,0.0,0.0,0.0,-5.1133,-5.1017,-5.022,-4.9094,-4.8978,-4.8547,-4.8001,-4.8001,-4.8001,-4.8001,0.0,0.0,0.0,0.0,0.0,0.0,0.0,0.0,0.0,0.0,0.0,0.0,0.0,0.0,0.0,0.0,0.0,0.0,0.0,0.0,0.0,-3.543,-3.543,-3.5757,-3.644,-3.6677,-3.7235,-3.8075,-4.007,-4.1153,-4.139,-4.254,-4.161,-3.892,-3.7337,-3.6231,-3.56,0.0,0.0,0.0,0.0,0.0,0.0,0.0,0.0,0.0,0.0,0.0,0.0,-3.1698,-3.2848,-3.4264,-3.2798,0.0,0.0,0.0,0.0,0.0,-3.2017,-3.3591,-3.4452,-3.2558,-3.3061,-3.3829,-3.3176,-3.2868,-3.2884,-3.3491,-3.3707,-3.4369,-3.6257,-3.6787,-3.7781,0.0,0.0,0.0,0.0,0.0,0.0,0.0,0.0,0.0,0.0,0.0,0.0,0.0,0.0,0.0,0.0,0.0,-5.2409,-5.2409,-5.2409,-5.2409,-5.2409,-5.2409,-5.2409,-5.2409,-5.2409,-5.2409,-5.2409,-5.2409,-5.2078,0.0,0.0,-5.1032,-5.032,-4.9707,-4.9309,-4.9044,-4.8415,-4.81,-4.8001,-4.8001,-4.8001,-4.8001,0.0,0.0,0.0,0.0,0.0,0.0,0.0,0.0,0.0,0.0,0.0,0.0,0.0,0.0,0.0,0.0,0.0,0.0,0.0,0.0,0.0,-3.56,-3.56,-3.5994,-3.6778,-3.7591,-3.8548,-3.9681,-4.1508,-4.2608,-4.3014,-4.2049,-4.046,-3.8345,-3.6823,-3.596,-3.56,-3.56,0.0,0.0,0.0,0.0,0.0,0.0,0.0,0.0,0.0,0.0,0.0,0.0,-3.273,-3.3689,-3.2442,0.0,0.0,0.0,0.0,0.0,-3.1338,-3.2878,-3.4054,-3.3044,-3.4203,-3.5495,-3.5148,-3.4452,-3.3972,-3.4319,-3.47,-3.5297,-3.6324,0.0,-3.9355,-4.2651,0.0,0.0,0.0,0.0,0.0,0.0,0.0,0.0,0.0,0.0,0.0,0.0,0.0,0.0,0.0,0.0,-5.2409,-5.2409,-5.2409,-5.2409,-5.2409,-5.2409,-5.2409,-5.2409,-5.2409,-5.2409,-5.2409,-5.2011,-5.163,-5.1299,0.0,-5.0286,-4.9591,-4.9243,-4.8879,-4.8481,-4.8133,-4.8001,-4.8001,-4.8001,-4.8001,-4.8001,0.0,0.0,0.0,0.0,0.0,0.0,0.0,0.0,0.0,0.0,0.0,0.0,0.0,0.0,0.0,0.0,0.0,0.0,0.0,0.0,-3.5414,-3.5583,-3.56,-3.6062,-3.7049,-3.8159,-3.9478,-4.095,-4.2439,-4.3453,-4.4005,-4.1322,-3.9309,-3.7855,-3.6502,-3.5769,-3.56,-3.56,-3.56,0.0,0.0,0.0,0.0,0.0,0.0,0.0,0.0,0.0,0.0,0.0,0.0,0.0,0.0,0.0,0.0,-3.1116,-3.0476,-3.0357,-3.087,-3.2133,-3.3408,-3.3922,-3.533,-3.6721,-3.7251,-3.6357,-3.5512,-3.586,-3.6522,-3.697,0.0,-3.8709,0.0,-4.4671,0.0,0.0,0.0,0.0,0.0,0.0,0.0,0.0,0.0,0.0,0.0,0.0,0.0,0.0,0.0,0.0,-5.2409,-5.2409,-5.2243,-5.2161,-5.2161,-5.1959,-5.2042,-5.2409,-5.2243,-5.2161,-5.2127,-5.1363,-5.0932,-5.0734,-5.0187,-4.9525,-4.8845,-4.8845,-4.8514,-4.8001,-4.8001,-4.8001,-4.8001,-4.8001,-4.8001,-4.8001,0.0,0.0,0.0,0.0,0.0,0.0,0.0,0.0,0.0,0.0,0.0,0.0,0.0,0.0,0.0,0.0,0.0,0.0,0.0,0.0,-3.4878,-3.5566,-3.56,-3.6293,-3.7787,-3.7922,-3.8717,-4.018,-4.166,-4.2405,-4.2422,-4.0849,-3.9301,-3.7872,-3.706,-3.6299,-3.56,-3.56,-3.56,-3.5464,0.0,0.0,0.0,0.0,0.0,0.0,0.0,0.0,0.0,0.0,0.0,0.0,0.0,0.0,-3.1909,-3.0966,-3.0111,-2.993,-3.1967,-3.2166,-3.2243,-3.4303,-3.4932,-3.5595,-3.7665,-3.7516,-3.7334,-3.8702,-3.958,-3.9879,0.0,-4.1375,0.0,0.0,0.0,0.0,0.0,0.0,0.0,0.0,0.0,0.0,0.0,0.0,0.0,0.0,0.0,0.0,0.0,0.0,0.0,-5.2409,-5.1746,-5.1398,-5.1398,-5.0701,-5.1048,-5.2409,-5.173,-5.1398,-5.1365,-5.0618,-4.9922,-4.926,-4.921,-4.8763,-4.8084,-4.8084,-4.805,-4.8001,-4.8001,-4.8001,-4.8001,-4.8001,-4.8001,-4.8001,0.0,0.0,0.0,0.0,0.0,0.0,0.0,0.0,0.0,0.0,0.0,0.0,0.0,0.0,0.0,0.0,0.0,0.0,0.0,-3.3981,-3.4624,-3.4912,-3.5368,-3.6113,-3.7178,-3.8565,-4.0214,-4.2141,-4.32,-4.3244,-4.2252,-4.0324,-3.8633,-3.7178,-3.64,-3.5893,-3.56,-3.56,-3.56,-3.5464,-3.3977,0.0,0.0,0.0,0.0,0.0,0.0,0.0,0.0,0.0,-3.0395,-3.1393,-3.0154,-3.0793,-3.1742,-3.046,-2.9752,-2.9579,-3.0427,-3.1454,-3.2597,-3.3889,-3.4899,-3.6158,-3.8377,-3.9355,-4.0199,-4.1674,-4.2204,-4.2303,0.0,0.0,0.0,0.0,0.0,0.0,0.0,0.0,0.0,0.0,0.0,0.0,0.0,0.0,0.0,0.0,0.0,0.0,0.0,0.0,0.0,-5.1048,-5.0767,-5.0618,-5.0618,-5.0353,-5.0485,-5.1032,-5.075,-5.0618,-5.0585,-4.9856,-4.9375,-4.9077,-4.863,-4.8266,-4.8001,-4.8001,-4.8001,-4.8001,-4.8001,-4.8001,-4.8001,-4.8001,-4.8001,-4.8001,0.0,0.0,0.0,0.0,0.0,0.0,0.0,0.0,0.0,0.0,0.0,0.0,0.0,0.0,0.0,0.0,0.0,0.0,-3.2276,-3.3241,-3.3897,-3.4134,-3.4861,-3.5622,-3.64,-3.8616,-4.0603,-4.2344,-4.3132,-4.2861,-4.1559,-3.958,-3.8108,-3.7094,-3.6056,-3.5735,-3.596,-3.5447,-3.5245,-3.5131,-3.3643,-3.3051,0.0,0.0,0.0,0.0,0.0,0.0,0.0,0.0,-2.9448,-3.0381,-2.9602,-3.0244,-3.1072,-3.0031,-2.9742,-2.9744,-2.9744,-3.1023,-3.258,-3.3557,-3.5081,-3.6986,-3.9404,-4.0713,-4.1955,-4.388,-4.4125,-4.4108,-4.4542,0.0,0.0,0.0,0.0,0.0,0.0,0.0,0.0,0.0,0.0,0.0,0.0,0.0,0.0,0.0,0.0,0.0,0.0,0.0,0.0,0.0,-4.9988,-4.9856,-4.9856,-4.9624,-4.9525,-4.9525,-4.9525,-4.9641,-4.9839,-4.9094,-4.8763,-4.873,-4.8216,-4.8001,-4.8001,-4.8001,-4.8001,-4.8001,-4.8001,-4.8001,-4.8001,-4.8001,-4.8001,-4.8001,0.0,0.0,0.0,0.0,0.0,0.0,0.0,0.0,0.0,0.0,0.0,0.0,0.0,0.0,0.0,0.0,0.0,0.0,-3.2242,-3.2293,-3.2632,-3.3372,-3.4117,-3.4844,-3.5583,-3.7821,-3.9343,-4.0113,-4.0849,-4.0815,-4.0045,-3.8599,-3.7905,-3.7821,-3.6276,-3.6045,-3.6677,-3.5131,-3.4489,-3.4353,-3.2886,-3.2293,0.0,0.0,0.0,0.0,0.0,0.0,0.0,0.0,-2.8332,-2.9128,-2.9854,-2.9921,-2.9713,-2.9783,-3.0125,-3.0506,-3.0472,-3.1035,-3.1962,-3.3442,-3.5479,-3.7897,-4.0779,-4.1413,-4.227,-4.5202,-4.5218,-4.5152,-4.6626,-4.5698,0.0,0.0,0.0,0.0,0.0,0.0,0.0,0.0,0.0,0.0,0.0,0.0,0.0,0.0,0.0,0.0,0.0,0.0,0.0,0.0,-4.9475,-4.9094,-4.9094,-4.8365,-4.8001,-4.8001,-4.8001,-4.8382,-4.9077,-4.8332,-4.8001,-4.8001,-4.8001,-4.8001,-4.8001,-4.8001,-4.8001,-4.8001,-4.8001,-4.8001,-4.8001,-4.8001,-4.8001,-4.8001,0.0,0.0,0.0,0.0,0.0,0.0,0.0,0.0,0.0,0.0,0.0,0.0,0.0,0.0,0.0,0.0,0.0,0.0,-3.1495,-3.2005,-3.2632,-3.3372,-3.4117,-3.4844,-3.5583,-3.6823,-3.8565,-4.0882,-4.0561,-3.9783,-3.8524,-3.8108,-3.733,-3.6276,-3.64,-3.596,-3.5131,-3.4675,-3.4201,-3.3643,-3.2682,-3.2293,0.0,0.0,0.0,0.0,0.0,0.0,0.0,0.0,0.0,0.0,-2.8415,-2.9454,-3.0398,-2.9353,-2.9785,-3.0414,-2.9321,-3.104,-3.3375,-3.4336,-3.7367,-4.063,-4.2506,-4.3363,-4.4406,-4.6841,-4.6758,-4.6378,-4.6825,0.0,0.0,0.0,0.0,0.0,0.0,0.0,0.0,0.0,0.0,0.0,0.0,0.0,0.0,0.0,0.0,0.0,0.0,0.0,0.0,0.0,-4.8448,-4.8332,-4.8332,-4.8117,-4.8001,-4.8001,-4.8001,-4.8117,-4.8315,-4.81,-4.8001,-4.8001,-4.8001,-4.8001,-4.8001,-4.8001,-4.8001,-4.8001,-4.8001,-4.8001,-4.8001,-4.8001,-4.8001,-4.8001,0.0,0.0,0.0,0.0,0.0,0.0,0.0,0.0,0.0,0.0,-3.119,-3.119,0.0,0.0,0.0,0.0,0.0,0.0,0.0,-3.1633,-3.2192,-3.2933,-3.366,-3.4692,-3.6045,-3.6535,-3.7499,-3.8988,-3.8836,-3.8335,-3.7449,-3.7449,-3.7127,-3.6529,-3.7026,-3.6575,-3.5374,-3.4759,-3.3897,-3.2899,-3.2175,-3.187,-3.165,0.0,0.0,0.0,0.0,0.0,0.0,0.0,0.0,0.0,-2.7705,-2.8664,-2.9616,-2.9292,-3.0112,-3.1054,-3.0713,-3.2608,-3.4982,-3.6307,-3.904,-4.2009,-4.436,-4.5483,-4.646,-4.81,-4.7852,-4.7438,-4.7719,0.0,0.0,0.0,0.0,0.0,0.0,0.0,0.0,0.0,0.0,0.0,0.0,0.0,0.0,0.0,0.0,0.0,0.0,0.0,0.0,0.0,-4.8001,-4.8001,-4.8001,-4.8001,-4.8001,-4.8001,-4.8001,-4.8001,-4.8001,-4.8001,-4.8001,-4.8001,-4.8001,-4.8001,-4.8001,-4.8001,-4.8001,-4.7968,-4.7686,-4.7554,-4.7537,-4.7222,-4.7305,-4.752,0.0,0.0,0.0,0.0,0.0,0.0,0.0,0.0,0.0,0.0,-3.119,-3.119,0.0,0.0,0.0,0.0,0.0,0.0,0.0,0.0,-3.1546,-3.2361,-3.3169,-3.4573,-3.666,-3.6626,-3.6214,-3.5498,-3.6299,-3.666,-3.6592,-3.6728,-3.7144,-3.7804,-3.7804,-3.7313,-3.6389,-3.4844,-3.3359,-3.1938,-3.1278,-3.0987,-3.0835,-2.9433,0.0,0.0,0.0,0.0,0.0,0.0,0.0,0.0,-2.757,-2.7805,-2.8037,-2.9332,-3.0687,-3.2095,-3.3339,-3.4861,-3.663,-3.8768,-4.0547,-4.2717,-4.6212,-4.752,-4.8199,-4.8862,0.0,-4.8199,-4.8895,0.0,0.0,0.0,0.0,0.0,0.0,0.0,0.0,0.0,0.0,0.0,0.0,0.0,0.0,0.0,0.0,0.0,0.0,0.0,0.0,0.0,-4.8001,-4.8001,-4.8001,-4.8001,-4.8001,0.0,-4.8001,-4.8001,-4.8001,-4.8001,-4.8001,-4.8001,-4.8001,-4.8001,-4.8001,-4.7934,-4.7901,-4.7835,-4.709,-4.6792,-4.6709,-4.6046,-4.6212,-4.6692,0.0,0.0,0.0,0.0,0.0,0.0,0.0,0.0,0.0,0.0,0.0,0.0,0.0,0.0,0.0,0.0,0.0,0.0,0.0,0.0,-3.1782,-3.3119,-3.4416,-3.5346,-3.5859,-3.5284,-3.4912,-3.4742,-3.5504,-3.5571,-3.5035,-3.6237,-3.688,-3.7049,-3.7049,-3.5943,-3.4032,-3.2544,-3.1055,-2.9704,-2.9534,-2.9467,-2.9365,-2.8433,-2.806,0.0,0.0,0.0,0.0,0.0,0.0,0.0,-2.757,-2.8141,-2.8506,-2.8182,-2.9939,-3.1851,-3.1373,-3.408,-3.7394,-3.8927,-4.2116,-4.5351,-4.7322,-4.7885,-4.805,-4.8199,-4.8117,-4.805,0.0,0.0,0.0,0.0,0.0,0.0,0.0,0.0,0.0,0.0,0.0,0.0,0.0,0.0,0.0,0.0,0.0,0.0,0.0,0.0,0.0,-4.8001,-4.8001,-4.8001,-4.8001,-4.8001,-4.8001,0.0,-4.8001,-4.8001,-4.8001,-4.8001,-4.8001,-4.8001,-4.8001,-4.8001,-4.7968,-4.7371,-4.7139,-4.7057,-4.6311,-4.603,-4.6013,-4.5847,-4.5897,-4.6013,0.0,0.0,0.0,0.0,0.0,0.0,0.0,0.0,0.0,0.0,0.0,0.0,0.0,0.0,0.0,0.0,0.0,0.0,0.0,-3.0666,-3.1495,-3.3322,-3.4472,-3.5081,-3.5081,-3.4692,-3.415,-3.3461,-3.3829,-3.4184,-3.4523,-3.5977,-3.6888,-3.7313,-3.7266,-3.5999,-3.3829,-3.2341,-3.0668,-2.8993,-2.8993,-2.8993,-2.8874,-2.7706,-2.7283,-2.7131,-2.6031,0.0,0.0,0.0,0.0,0.0,0.0,0.0,-2.7363,-2.7982,-2.92,-3.0673,-3.2259,-3.4662,-3.7344,-4.0144,-4.333,-4.6079,-4.7222,-4.7752,-4.8001,-4.8001,-4.8001,0.0,0.0,0.0,0.0,0.0,0.0,0.0,0.0,0.0,0.0,0.0,0.0,0.0,0.0,0.0,0.0,0.0,0.0,0.0,0.0,-4.8001,-4.8001,-4.8001,-4.8001,-4.8001,-4.8001,-4.8001,-4.8001,-4.8001,-4.7636,-4.7289,-4.6957,-4.7686,-4.8001,-4.7984,-4.7636,-4.7471,-4.7421,-4.6676,-4.6361,-4.6295,-4.5549,-4.5251,-4.5218,-4.4887,-4.497,-4.5218,0.0,0.0,0.0,0.0,0.0,0.0,0.0,0.0,0.0,0.0,0.0,0.0,0.0,0.0,0.0,0.0,0.0,0.0,0.0,-3.0159,-3.1106,-3.2949,-3.3846,-3.4252,-3.4117,-3.3981,-3.3322,-3.2107,-3.1948,-3.2827,-3.4682,-3.5801,-3.6862,-3.7841,-3.7475,-3.6116,-3.402,-3.2276,-3.033,-2.84,-2.8265,-2.8214,-2.8079,-2.6809,-2.6319,-2.6166,-2.4931,-2.4897,-2.5439,-2.5558,0.0,0.0,0.0,0.0,-2.5815,-2.7495,-2.8157,-2.9126,-3.2768,-3.4861,-3.7085,-4.1562,-4.4075,-4.5682,-4.6676,-4.7371,-4.7852,-4.7968,0.0,0.0,0.0,0.0,0.0,0.0,0.0,0.0,0.0,0.0,0.0,0.0,0.0,0.0,0.0,0.0,0.0,0.0,0.0,0.0,-4.8001,-4.8001,-4.7934,-4.7819,-4.7819,-4.7752,-4.762,-4.762,-4.762,-4.7603,-4.699,-4.6394,-4.5831,-4.7057,-4.762,-4.7587,-4.6974,-4.6709,-4.6643,-4.5897,-4.5599,-4.5533,-4.4787,-4.4506,-4.444,-4.3843,-4.3992,-4.4423,0.0,0.0,0.0,0.0,0.0,0.0,0.0,0.0,0.0,0.0,-3.119,-3.092,-3.0192,-3.0108,0.0,0.0,0.0,0.0,-2.9145,0.0,0.0,-3.1478,-3.2814,-3.3254,-3.2615,-3.1857,-3.1415,-3.1343,-3.0547,-3.1896,-3.5261,-3.5469,-3.6333,-3.767,-3.6316,-3.4565,-3.2412,-2.96,-2.7486,-2.5998,-2.5354,-2.51,-2.5066,-2.4863,-2.4795,-2.4762,-2.4558,-2.4558,-2.4745,-2.5389,-2.566,0.0,0.0,0.0,0.0,-2.4846,-2.6097,-2.7748,-2.8218,-3.2089,-3.7201,-4.2191,-4.3664,-4.444,-4.6444,0.0,-4.7222,0.0,0.0,0.0,0.0,0.0,0.0,0.0,0.0,0.0,0.0,0.0,0.0,0.0,0.0,0.0,0.0,0.0,0.0,0.0,0.0,0.0,-4.8001,-4.8001,-4.7703,-4.7073,-4.704,-4.6742,-4.6096,-4.6079,-4.6079,-4.6079,-4.598,-4.5897,-4.5798,-4.5997,-4.6079,-4.6079,-4.598,-4.5947,-4.5881,-4.5135,-4.4868,-4.4754,-4.4042,-4.3731,-4.3714,-4.3631,-4.3648,-4.3714,0.0,0.0,0.0,0.0,0.0,0.0,0.0,0.0,0.0,0.0,0.0,-3.0751,-2.96,-2.9482,0.0,0.0,0.0,0.0,-2.8298,-2.9347,0.0,0.0,-3.1207,-3.1171,-3.0355,-3.0034,-2.9644,-2.9183,-2.8388,-3.0278,-3.462,-3.4626,-3.6128,-3.8749,-3.7125,-3.5304,-3.3233,-3.0246,-2.7906,-2.615,-2.5406,-2.5879,-2.6793,-2.4677,-2.4898,-2.6082,-2.4002,-2.3528,-2.4,-2.4745,-2.5222,-2.5528,-2.5512,0.0,0.0,0.0,-2.478,-2.6242,-2.9457,-3.3392,-3.745,-4.0945,-4.2717,-4.3847,-4.4837,-4.5698,-4.6378,0.0,0.0,0.0,0.0,0.0,0.0,0.0,0.0,0.0,0.0,0.0,0.0,0.0,0.0,0.0,0.0,0.0,0.0,0.0,0.0,-4.7388,-4.7388,-4.699,-4.6609,-4.6278,-4.6278,-4.6129,-4.5798,-4.5798,-4.5582,-4.5168,-4.5168,-4.497,-4.4572,-4.4572,-4.5019,-4.5765,-4.5351,-4.5168,-4.5119,-4.439,-4.4092,-4.4059,-4.3714,-4.3598,-4.3598,-4.3598,-4.3598,-4.3598,0.0,0.0,0.0,0.0,0.0,0.0,0.0,0.0,0.0,0.0,0.0,0.0,-2.9145,0.0,0.0,0.0,0.0,0.0,-2.7215,0.0,0.0,0.0,0.0,-2.9327,-2.8293,-2.8346,-2.7938,-2.7075,-2.6671,-2.9075,-3.3999,-3.4176,-3.6254,-3.9797,-3.8202,-3.6176,-3.3789,-3.1019,-2.8826,-2.7112,-2.6421,-2.713,-2.8378,-2.6185,-2.6674,-2.814,-2.4819,-2.3992,-2.4496,0.0,0.0,0.0,0.0,0.0,0.0,0.0,0.0,-2.463,-3.0133,-3.321,-3.5644,-3.8775,-4.0912,-4.2456,0.0,0.0,0.0,0.0,0.0,0.0,0.0,0.0,0.0,0.0,0.0,0.0,0.0,0.0,0.0,0.0,0.0,0.0,0.0,0.0,0.0,0.0,0.0,-4.6609,-4.6609,-4.6096,-4.5698,-4.5516,-4.5516,-4.5417,-4.5235,-4.5235,-4.4953,-4.4423,-4.4423,-4.4141,-4.3598,-4.3598,-4.4208,-4.5202,-4.4655,-4.4423,-4.4373,-4.3843,-4.3598,-4.3598,-4.3598,-4.3598,-4.3598,-4.3598,-4.3598,-4.3598,0.0,0.0,0.0,0.0,0.0,0.0,0.0,0.0,0.0,0.0,0.0,0.0,-2.9077,-2.8993,-2.8383,-2.6826,0.0,0.0,0.0,0.0,0.0,0.0,0.0,0.0,-2.6843,-2.6707,-2.6302,-2.5613,-2.6012,-2.8896,-3.4016,-3.4582,-3.6829,-4.032,-3.889,-3.6328,-3.2926,-3.0667,-2.9245,-2.8459,-2.7849,-2.7595,-2.7786,-2.9825,-3.0627,-3.0343,-2.8131,-2.7344,0.0,0.0,0.0,0.0,0.0,-2.3664,-2.2916,0.0,0.0,0.0,-2.7398,-2.874,-3.0216,-3.586,-3.7897,-3.9361,0.0,0.0,0.0,0.0,0.0,0.0,0.0,0.0,0.0,0.0,0.0,0.0,0.0,0.0,0.0,0.0,0.0,0.0,0.0,0.0,0.0,0.0,0.0,-4.5847,-4.5847,-4.5814,-4.5467,-4.4771,-4.4754,-4.4423,-4.3714,-4.3698,-4.3698,-4.3648,-4.3648,-4.3631,-4.3598,-4.3598,-4.3631,-4.3698,-4.3664,-4.3648,-4.3648,-4.3615,-4.3598,-4.3598,-4.3598,-4.3598,-4.3598,-4.3598,-4.3598,-4.3598,0.0,0.0,0.0,0.0,0.0,0.0,0.0,0.0,0.0,0.0,0.0,0.0,0.0,-2.8535,-2.7638,-2.6116,-2.5998,0.0,0.0,0.0,0.0,0.0,0.0,0.0,-2.5949,-2.5411,-2.4976,-2.4611,-2.4297,-2.6524,-3.1065,-3.2232,-3.4253,-3.6887,-3.7326,-3.6837,-3.5461,-3.1862,-3.0503,-3.063,-2.9448,-3.0081,-3.1663,-3.1102,-3.2018,-3.3283,-3.0613,0.0,0.0,0.0,0.0,0.0,-2.498,-2.4264,-2.3403,-2.216,-2.246,-2.3752,-2.6303,-2.7992,-2.988,-3.3392,-3.5909,-3.7963,-3.9725,-4.1182,0.0,0.0,0.0,0.0,0.0,0.0,0.0,0.0,0.0,0.0,0.0,0.0,0.0,0.0,0.0,0.0,0.0,0.0,0.0,0.0,0.0,0.0,-4.5086,-4.4655,-4.4274,-4.4009,-4.3992,-4.3863,-4.3598,-4.3598,-4.3598,-4.3598,-4.3598,-4.3598,-4.3598,-4.3598,-4.3598,-4.3598,-4.3598,-4.3598,-4.3598,-4.3598,-4.3598,-4.3598,-4.3598,-4.3598,-4.3598,-4.3598,-4.3598,-4.3539,0.0,0.0,0.0,0.0,0.0,0.0,0.0,0.0,-3.0108,-3.0108,0.0,0.0,0.0,0.0,-2.7604,-2.6099,-2.5981,-2.5862,-2.5625,-2.6269,0.0,0.0,0.0,0.0,-2.5446,-2.4926,-2.4359,-2.3731,-2.3716,-2.5427,-2.8721,-3.0174,-3.2161,-3.4535,-3.4783,-3.5586,-3.6605,-3.3715,-3.2513,-3.2495,-3.2071,-3.2867,-3.4345,-3.4168,-3.5135,-3.6261,0.0,0.0,0.0,0.0,0.0,0.0,-2.621,-2.4697,-2.3073,-2.2094,-2.2659,-2.3835,-2.4829,-2.6483,-2.8671,-3.1603,-3.3442,-3.5297,-3.8261,0.0,0.0,0.0,0.0,0.0,0.0,0.0,0.0,0.0,0.0,0.0,0.0,0.0,0.0,0.0,0.0,0.0,0.0,0.0,0.0,0.0,0.0,0.0,-4.4324,-4.3863,-4.3598,-4.3598,-4.3598,-4.3598,-4.3598,-4.3598,-4.3598,-4.3598,-4.3598,-4.3598,-4.3598,-4.3598,-4.3462,-4.3265,-4.3265,-4.3402,-4.3582,-4.3372,-4.3265,-4.3235,-4.3005,-4.2912,-4.2912,-4.2912,-4.2912,-4.2834,0.0,0.0,0.0,0.0,0.0,0.0,0.0,0.0,-3.0106,-3.0089,0.0,0.0,0.0,0.0,0.0,-2.6894,-2.6742,-2.642,-2.5677,-2.6236,0.0,0.0,0.0,0.0,-2.5347,-2.5247,-2.4496,-2.3031,-2.4398,-2.5806,-2.7265,-2.8671,-3.0907,-3.3607,-3.1466,-3.2508,-3.5876,-3.581,-3.5032,-3.3995,-3.5497,-3.5673,-3.5437,-3.9149,-4.007,0.0,-3.7826,-3.6829,0.0,-3.3783,0.0,0.0,0.0,-2.4795,-2.1865,-2.1849,-2.2378,-2.2974,0.0,0.0,0.0,0.0,0.0,0.0,0.0,0.0,0.0,0.0,0.0,0.0,0.0,0.0,0.0,0.0,0.0,0.0,0.0,0.0,0.0,0.0,0.0,0.0,0.0,0.0,0.0,0.0,0.0,-4.3598,-4.3598,-4.3598,-4.3598,-4.3598,-4.3598,-4.3598,-4.3598,-4.3598,-4.3568,-4.3568,-4.3568,-4.3568,-4.3568,-4.3568,-4.3204,-4.2617,-4.2585,-4.2943,-4.3492,-4.2851,-4.2585,-4.2491,-4.1787,-4.1492,-4.1492,-4.1492,-4.1492,-4.1492,0.0,0.0,0.0,0.0,0.0,-3.2073,-3.0798,-3.0613,-3.0412,0.0,0.0,0.0,-2.9741,-2.9154,-2.8587,-2.824,-2.7647,-2.7008,-2.6371,-2.6454,-2.6436,-2.6235,-2.6402,-2.6401,-2.6184,-2.553,-2.4746,-2.3798,-2.4133,-2.4795,-2.574,-2.7199,-2.9135,-3.1421,-3.1333,-3.1863,-3.2707,-3.1156,-3.2381,-3.528,-3.4117,-3.5444,0.0,0.0,0.0,0.0,0.0,-3.9458,-3.8247,0.0,-3.4913,-3.1946,0.0,-2.5377,-2.3581,-2.2705,-2.3552,-2.456,-2.355,0.0,0.0,0.0,0.0,0.0,0.0,0.0,0.0,0.0,0.0,0.0,0.0,0.0,0.0,0.0,0.0,0.0,0.0,0.0,0.0,0.0,0.0,0.0,0.0,0.0,0.0,0.0,-4.3598,-4.3598,-4.3598,-4.3598,-4.3598,-4.3598,-4.3598,-4.3598,-4.3598,-4.3113,-4.2881,-4.2881,-4.2881,-4.2881,-4.2881,-4.2881,-4.2772,-4.2585,-4.2061,-4.1917,-4.2078,-4.1884,-4.1787,-4.1787,-4.1591,-4.1492,-4.1492,-4.1492,-4.1492,-4.1426,0.0,0.0,0.0,-3.2428,-3.2742,-3.2703,-3.1851,-3.1717,-3.147,0.0,0.0,0.0,-3.0165,-3.0312,-3.0098,-2.9238,-2.8427,-2.7672,-2.7023,-2.6618,-2.6416,-2.6416,-2.6398,-2.653,-2.6831,-2.6028,-2.5411,-2.4979,-2.463,-2.4679,-2.5127,-2.5971,-2.7214,-2.8701,-2.8834,-2.9214,-2.9682,-2.781,-2.9963,-3.4667,-3.5238,0.0,0.0,-4.0166,-4.0945,0.0,0.0,0.0,-4.0073,-3.9358,-3.6757,0.0,0.0,0.0,0.0,-2.4351,-2.5259,-2.6416,-2.446,-2.5268,0.0,0.0,0.0,0.0,0.0,-3.1243,0.0,0.0,0.0,0.0,0.0,0.0,0.0,0.0,0.0,0.0,0.0,0.0,0.0,0.0,0.0,0.0,0.0,0.0,0.0,-4.3151,-4.3135,-4.2973,-4.2629,-4.2541,-4.2541,-4.2613,-4.2361,-4.2242,-4.2301,-4.1648,-4.1322,-4.1322,-4.1322,-4.1435,-4.1724,-4.1724,-4.1726,-4.1689,-4.126,-4.0907,-4.0634,-4.0634,-4.0805,-4.1042,-4.0737,-4.0634,-4.0634,-4.0634,-4.0634,-4.0566,0.0,0.0,-3.3083,-3.3083,-3.3166,-3.3217,-3.3217,-3.315,-3.2899,0.0,-3.2323,-3.2085,-3.1441,-3.246,-3.2431,-3.048,-2.9454,-2.8586,-2.7805,-2.6897,-2.6361,-2.6278,-2.6305,-2.6584,-2.7166,-2.6617,-2.6235,-2.607,-2.5425,-2.511,-2.511,-2.511,-2.5458,-2.6036,-2.5391,-2.5822,-2.6984,-2.6005,-2.829,-3.2934,-3.6945,-3.8536,0.0,0.0,-4.2059,-4.1711,-4.2315,-4.2088,-4.1395,-4.0572,-3.7564,0.0,0.0,0.0,0.0,0.0,-2.7238,-2.8345,-2.5864,-2.578,-2.6633,0.0,0.0,0.0,-3.1302,-3.0917,0.0,0.0,0.0,0.0,0.0,0.0,0.0,0.0,0.0,0.0,0.0,0.0,0.0,0.0,0.0,0.0,0.0,-4.335,-4.3085,-4.2423,-4.2299,-4.196,-4.1271,-4.1025,-4.0967,-4.1079,-4.0567,-4.0282,-4.0372,-3.9703,-3.9377,-3.9377,-3.9377,-3.9708,-4.0276,-4.0355,-4.0374,-4.0404,-4.0378,-4.0021,-3.9388,-3.9388,-3.9788,-4.032,-3.9646,-3.9388,-3.9388,-3.9388,-3.9388,-3.9388,0.0,-3.3145,-3.3642,-3.3642,-3.414,-3.4539,-3.4539,-3.4024,-3.3808,-3.4273,-3.4323,-3.4506,-3.493,-3.4721,-3.4403,-3.4078,-3.2192,-3.051,-2.9282,-2.7871,-2.6836,-2.6254,-2.6785,-2.6866,-2.6419,-2.6868,-2.6485,-2.5308,-2.5176,-2.511,-2.511,-2.511,-2.5193,-2.5309,-2.5176,-2.5259,-2.5657,-2.7692,0.0,-3.1929,-3.3392,0.0,-4.0083,-4.1193,-4.2258,-4.3125,-4.2713,-4.248,-4.2079,-4.0163,-3.8195,-3.6061,0.0,0.0,0.0,0.0,0.0,-2.9751,-2.8636,0.0,0.0,0.0,0.0,0.0,0.0,-2.7375,0.0,0.0,0.0,0.0,0.0,0.0,0.0,0.0,0.0,0.0,0.0,0.0,0.0,0.0,0.0,0.0,0.0,-4.1839,-4.1716,-4.1453,-4.1001,-4.089,-4.134,-4.0759,-4.0402,-4.0399,-4.019,-3.9887,-3.9548,-3.8822,-3.8513,-3.8707,-3.8707,-3.8769,-3.8924,-3.9433,-3.9707,-3.9693,-3.9652,-3.9517,-3.9388,-3.9228,-3.9322,-3.9589,-3.9445,-3.9388,-3.9388,-3.9388,-3.9388,-3.9388,-3.2702,-3.3574,-3.4336,-3.4336,-3.4651,-3.5015,-3.5396,-3.5131,-3.5164,-3.5909,-3.6324,-3.6406,-3.6042,-3.6009,-3.5735,-3.506,-3.2917,-3.099,-2.9596,-2.8113,-2.6967,-2.6219,-2.6551,-2.6916,-2.728,-2.6932,-2.675,-2.675,-2.564,-2.511,-2.511,-2.511,-2.5491,-2.6171,-2.5425,-2.5905,-2.728,-2.7642,-2.9264,-3.1863,-3.48,0.0,-4.0558,-4.1972,-4.2953,-4.3568,-4.3235,-4.2648,-4.1726,-3.9643,-3.8192,0.0,0.0,-3.3734,-3.3345,0.0,-3.1074,-3.1543,0.0,0.0,0.0,-2.8955,0.0,0.0,0.0,0.0,-2.7366,0.0,0.0,0.0,0.0,0.0,0.0,0.0,0.0,0.0,0.0,0.0,0.0,0.0,0.0,0.0,0.0,-4.0639,-4.0224,-3.975,-3.9026,-3.8774,-3.913,-3.8745,-3.8534,-3.8562,-3.8151,-3.7888,-3.7763,-3.6947,-3.6667,-3.6862,-3.6748,-3.6881,-3.7213,-3.7661,-3.8027,-3.8391,-3.8652,-3.8737,-3.8767,-3.8898,-3.9017,-3.9104,-3.9228,-3.9265,-3.9265,-3.9337,-3.9337,-3.9265,-3.2669,-3.3756,-3.4634,-3.4502,-3.47,-3.5098,-3.5694,-3.5794,-3.6158,-3.7185,-3.8079,-3.8228,-3.7168,-3.7334,-3.7152,-3.6224,-3.3866,-3.1879,-3.0559,-2.8986,-2.7746,-2.6848,-2.6682,-2.7181,-2.8376,-2.7081,-2.6932,-2.7978,-2.6038,-2.511,-2.511,-2.511,-2.574,-2.6834,-2.5922,-2.6965,-2.9297,-2.7692,0.0,-3.3038,0.0,-3.9365,-4.0001,-4.2319,-4.3168,-4.3171,-4.3196,-4.238,-4.1027,-3.9188,0.0,-3.7196,-3.5232,-3.5302,0.0,0.0,0.0,0.0,0.0,0.0,0.0,0.0,0.0,-2.8903,0.0,0.0,0.0,-3.0308,0.0,0.0,0.0,0.0,0.0,0.0,0.0,0.0,0.0,0.0,0.0,0.0,0.0,0.0,0.0,-3.901,-3.8349,-3.807,-3.6858,-3.6349,-3.6905,-3.6662,-3.6538,-3.6646,-3.6087,-3.5832,-3.5926,-3.5216,-3.4949,-3.5148,-3.4968,-3.5167,-3.5716,-3.6018,-3.6442,-3.6976,-3.7594,-3.786,-3.792,-3.8376,-3.8568,-3.862,-3.8899,-3.9031,-3.9068,-3.9228,-3.9177,-3.9031,-3.2564,-3.3365,-3.3707,-3.3066,-3.4021,-3.4932,-3.5015,-3.5015,-3.576,-3.7814,-3.9288,-4.0299,-4.0746,-3.9736,-3.9497,-4.058,-3.75,0.0,-3.4336,0.0,-3.0489,-2.9099,-2.8456,-2.8227,-2.8392,-2.7597,-2.695,-2.6434,-2.554,-2.511,-2.511,-2.511,-2.5193,-2.5408,-2.6536,-2.7945,-2.943,0.0,-3.2508,0.0,-3.7847,-3.798,0.0,-4.0569,-4.1645,-4.1651,-4.1724,-4.126,-4.0389,0.0,-3.8412,-3.8092,0.0,-3.5839,-3.5404,0.0,0.0,0.0,0.0,0.0,0.0,0.0,-3.2512,0.0,0.0,0.0,-2.7961,-2.6621,0.0,0.0,0.0,0.0,0.0,0.0,0.0,0.0,0.0,0.0,0.0,0.0,0.0,0.0,0.0,0.0,-3.5427,-3.7354,-3.4857,-3.4373,-3.6931,-3.6259,-3.5785,-3.5755,-3.5546,-3.5267,-3.485,-3.4765,-3.4783,-3.4935,-3.4902,-3.4931,-3.5019,-3.5642,-3.5971,-3.6074,-3.6758,-3.7054,-3.7063,-3.7548,-3.7754,-3.7798,-3.8539,-3.8819,-3.8819,-3.887,-3.887,-3.8819,-3.1934,-3.2663,-3.3066,-3.2752,-3.3193,-3.3905,-3.4767,-3.7052,-3.8874,-3.9404,-4.1094,-4.2369,-4.2638,-4.1392,0.0,0.0,0.0,-3.7235,0.0,0.0,-3.2415,-3.1355,-2.9814,-2.9185,-2.9615,-2.783,-2.6874,-2.6851,-2.5445,-2.4656,-2.4481,-2.4911,-2.6005,-2.7609,-2.8241,0.0,-3.3806,0.0,-3.3723,0.0,0.0,0.0,0.0,-4.1082,-4.245,-4.2034,-4.1645,-4.106,-4.0274,0.0,-3.8193,0.0,0.0,0.0,0.0,0.0,0.0,0.0,0.0,0.0,0.0,0.0,0.0,0.0,-2.9037,0.0,-2.753,0.0,0.0,0.0,0.0,0.0,0.0,0.0,0.0,0.0,0.0,0.0,0.0,0.0,0.0,0.0,0.0,0.0,0.0,0.0,0.0,-3.3201,-3.5042,-3.5205,-3.5184,-3.507,-3.5019,-3.4902,-3.4698,-3.4597,-3.4616,-3.4783,-3.4683,-3.4601,-3.4616,-3.5028,-3.5179,-3.5223,-3.5889,-3.6153,-3.6162,-3.666,-3.7084,-3.7463,-3.7799,-3.8231,-3.8649,-3.876,-3.8723,-3.8612,-3.1184,-3.1901,-3.2332,-3.2133,-3.2597,-3.3491,-3.4982,-3.8063,-4.0266,-4.0393,-4.1922,-4.33,-4.4095,-4.3081,0.0,0.0,-4.2137,-4.0028,0.0,0.0,-3.4906,-3.3938,-3.1785,0.0,0.0,-2.8657,-2.7342,-2.7298,-2.554,-2.4637,-2.4613,-2.4944,-2.6435,-2.887,-2.9645,-3.2409,-3.6423,0.0,-3.5578,-3.7027,-3.7508,-3.7752,-3.819,-4.1671,-4.2813,-4.2506,-4.1754,-4.106,-4.0293,-3.8938,-3.8118,0.0,-3.7464,0.0,0.0,0.0,0.0,0.0,-3.4277,0.0,0.0,0.0,0.0,0.0,0.0,0.0,0.0,0.0,0.0,0.0,0.0,0.0,0.0,0.0,0.0,0.0,0.0,0.0,0.0,0.0,0.0,0.0,0.0,0.0,0.0,0.0,0.0,0.0,-3.3586,-3.4208,-3.4559,-3.4616,-3.4631,-3.4631,-3.4631,-3.4481,-3.4481,-3.4631,-3.4481,-3.4414,-3.4414,-3.4563,-3.4631,-3.4645,-3.5083,-3.5273,-3.5297,-3.5848,-3.633,-3.6809,-3.7172,-3.7652,-3.8208,-3.8517,-3.8538,-3.8404,-3.0522,-3.1135,-3.1416,-3.0688,-3.2348,-3.4253,-3.5744,-3.6688,-3.7996,-4.0127,0.0,0.0,0.0,0.0,0.0,0.0,0.0,-4.4191,-4.34,0.0,-3.8486,-3.7036,-3.4833,-3.3326,0.0,0.0,-2.8635,-2.7298,-2.5822,-2.5441,-2.6103,-2.5407,-2.5905,-2.7481,-3.0294,-3.2806,-3.5048,-3.6423,-3.904,-4.2096,-4.0037,-4.0483,-4.2337,0.0,-4.1927,-4.2506,-4.1754,0.0,0.0,-3.8902,-3.8397,0.0,0.0,0.0,0.0,0.0,0.0,0.0,0.0,0.0,0.0,-3.2497,0.0,0.0,0.0,0.0,-2.9352,0.0,0.0,0.0,0.0,0.0,0.0,0.0,0.0,0.0,0.0,0.0,0.0,0.0,0.0,0.0,0.0,0.0,0.0,0.0,0.0,0.0,-3.3484,-3.3602,-3.3808,-3.4399,-3.4414,-3.4414,-3.4414,-3.4414,-3.4414,-3.4414,-3.4414,-3.4414,-3.4414,-3.4414,-3.4414,-3.4414,-3.4428,-3.4443,-3.4486,-3.516,-3.5436,-3.5581,-3.6809,-3.7317,-3.7404,-3.7984,-3.8202,-3.8202,-3.1234,-3.1813,-3.1951,-3.0704,-3.1515,-3.3336,-3.629,-3.8179,-4.0233,0.0,0.0,0.0,0.0,-4.805,-4.8216,0.0,0.0,-4.6831,-4.5049,-4.3164,0.0,0.0,0.0,-3.5852,0.0,0.0,-3.0603,-2.9417,-2.8148,-2.7594,-2.7644,-2.7027,-2.7528,-2.9049,-3.1041,-3.3654,0.0,0.0,0.0,0.0,0.0,-4.0645,-4.2537,0.0,0.0,-4.1722,-4.0531,-3.997,0.0,-3.9212,-3.8766,-3.8437,-3.8676,-3.8123,-3.7449,-3.7689,-3.7584,0.0,0.0,0.0,-3.733,-3.4247,0.0,0.0,0.0,0.0,0.0,0.0,0.0,0.0,0.0,0.0,0.0,0.0,0.0,0.0,0.0,0.0,0.0,0.0,0.0,0.0,0.0,0.0,0.0,0.0,0.0,0.0,0.0,-3.2905,-3.3689,-3.3808,-3.4196,-3.4414,-3.4414,-3.4414,-3.4414,-3.4414,-3.4414,-3.4414,-3.4414,-3.4414,-3.4414,-3.4414,-3.4414,-3.4414,-3.4428,-3.4646,-3.498,-3.5479,-3.6315,-3.6925,-3.7375,-3.7984,-3.8202,-3.8202,-3.2,-3.2166,-3.2017,-3.1052,0.0,-3.3938,-3.735,0.0,0.0,0.0,-4.5566,0.0,-4.9922,0.0,-4.9906,0.0,-5.0303,-4.8909,-4.6582,-4.5646,0.0,-4.2815,-4.0626,0.0,0.0,-3.5005,-3.27,-3.0995,0.0,-2.8979,-2.8611,-2.7991,-2.8233,-2.9255,0.0,-3.4015,-3.6777,0.0,-4.003,0.0,0.0,-4.0798,0.0,0.0,-4.1459,-4.1722,0.0,-3.9788,-3.9753,-3.9481,-3.9125,-3.8841,-3.9239,-3.8826,-3.8153,-3.8332,-3.8257,-3.8018,-3.7539,-3.7883,0.0,-3.5444,-3.4517,0.0,-3.0881,0.0,0.0,0.0,0.0,0.0,0.0,0.0,0.0,0.0,0.0,0.0,0.0,0.0,0.0,0.0,0.0,0.0,0.0,0.0,-2.4973,-2.6854,0.0,0.0,0.0,0.0,-3.3339,-3.3503,-3.4095,-3.4414,-3.4414,-3.4414,-3.4414,-3.4414,-3.4414,-3.4414,-3.4414,-3.4414,-3.4414,-3.4414,-3.4414,-3.4414,-3.4414,-3.4414,-3.4646,-3.5145,-3.5967,-3.6577,-3.7056,-3.7897,-3.8202,-3.8202,-3.2818,-3.2315,0.0,0.0,-3.3673,0.0,0.0,0.0,-4.3081,0.0,-4.6113,-4.7852,-5.0088,-5.032,-5.0883,-5.2258,-5.1779,-5.0436,-4.8283,-4.8117,0.0,0.0,-4.3665,-4.2329,-3.9497,-3.7345,-3.4917,0.0,0.0,0.0,-2.9155,-2.8346,-2.8023,-2.8207,-3.1501,0.0,-3.5432,-3.8824,-4.112,-4.2412,-4.1722,-4.106,-4.0512,-4.0512,-4.1327,-4.2317,-4.094,-4.0443,-4.0355,-3.9661,-3.9388,-3.9388,-3.9388,-3.9388,-3.9254,-3.8631,-3.8901,-3.914,-3.7853,-3.7958,-3.7988,-3.6118,0.0,0.0,0.0,0.0,-3.344,0.0,0.0,0.0,0.0,0.0,0.0,0.0,0.0,0.0,0.0,0.0,0.0,0.0,0.0,0.0,0.0,0.0,-2.3507,-2.6553,-2.6145,0.0,0.0,0.0,-3.2687,-3.3387,-3.4051,-3.4414,-3.4414,-3.4414,-3.4414,-3.4414,-3.4414,-3.4414,-3.4414,-3.4414,-3.4414,-3.4414,-3.4414,-3.4414,-3.4414,-3.4414,-3.4428,-3.4588,-3.5822,-3.6344,-3.6548,-3.7752,-3.8202,-3.8202,-3.4336,-3.5065,-3.6042,0.0,-3.6887,-3.7516,0.0,0.0,0.0,0.0,-4.7968,-4.9375,-5.1578,-5.1827,-5.1976,-5.2393,-5.2243,0.0,0.0,0.0,0.0,-4.5929,-4.4893,-4.3451,-4.1553,-3.947,0.0,-3.5841,0.0,0.0,-3.1259,-2.9688,-2.8998,-2.9093,0.0,0.0,-3.4215,-3.7058,-3.9341,-4.1008,-4.0839,-4.0634,0.0,0.0,-4.0703,-4.0907,-4.0021,-3.9681,-3.9646,-3.9445,-3.9388,-3.9388,-3.9388,-3.9388,-3.9394,-3.92,-3.929,-3.9313,-3.899,-3.902,-3.8916,-3.7898,-3.6926,-3.5923,0.0,0.0,0.0,0.0,0.0,0.0,0.0,0.0,0.0,0.0,0.0,0.0,0.0,0.0,0.0,0.0,0.0,0.0,0.0,0.0,-2.3162,-2.39,0.0,0.0,0.0,0.0,0.0,-3.199,-3.3572,-3.4414,-3.4414,-3.4414,-3.4414,-3.4414,-3.4414,-3.4414,-3.4414,-3.4414,-3.4414,-3.4414,-3.4414,-3.4414,-3.4414,-3.4414,-3.469,-3.5232,-3.5996,-3.6881,-3.7752,-3.8086,-3.8202,-3.8202,-3.629,0.0,0.0,-4.0067,0.0,0.0,-4.2601,0.0,0.0,-4.7653,-4.8928,0.0,-5.0772,-5.1798,-5.2089,-5.1327,-5.1619,0.0,-4.9657,0.0,0.0,-4.6671,-4.5856,-4.4788,-4.3297,-4.0665,0.0,-3.7292,0.0,0.0,-3.1369,-2.975,-2.8693,-2.8265,0.0,-3.176,-3.3392,-3.6909,-3.8836,-3.963,-3.9899,0.0,0.0,-4.0021,-4.0021,-3.995,-3.9553,-3.9388,-3.9388,-3.9388,-3.9388,-3.9388,-3.9388,-3.9388,-3.9388,-3.9388,-3.9388,-3.9388,-3.9388,-3.9388,-3.9334,-3.8931,-3.8302,-3.7524,-3.6552,-3.6626,-3.6671,0.0,0.0,0.0,0.0,0.0,0.0,0.0,0.0,0.0,0.0,0.0,0.0,0.0,0.0,0.0,0.0,0.0,0.0,0.0,0.0,0.0,0.0,0.0,0.0,-3.1451,-3.3137,-3.4124,-3.4414,-3.4414,-3.4414,-3.4414,-3.4414,-3.4414,-3.4414,-3.4414,-3.4414,-3.4414,-3.4414,-3.4414,-3.4414,-3.4414,-3.4791,-3.5494,-3.6388,-3.7346,-3.8202,-3.8202,-3.8202,-3.8202,-3.8344,0.0,0.0,0.0,0.0,0.0,0.0,-4.5669,0.0,-4.8067,0.0,-5.007,-4.9437,-5.1172,-5.1782,-5.029,0.0,-5.0215,-4.8181,-4.9164,-4.8851,-4.6718,-4.6695,-4.601,-4.4488,-4.1397,0.0,0.0,0.0,-3.1941,-3.0357,-2.916,-2.7874,0.0,0.0,0.0,0.0,-3.7443,-3.8971,-3.8571,-3.9185,-3.9388,-3.9388,-3.9388,-3.9388,-3.9388,-3.9388,-3.9388,-3.9388,-3.9388,-3.9388,-3.9388,-3.9388,-3.9388,-3.9388,-3.9388,-3.9388,-3.9388,-3.9388,-3.9388,-3.9388,-3.9388,-3.9388,-3.9074,-3.7943,-3.7674,-3.7639,-3.7639,-3.6144,-3.5337,0.0,0.0,0.0,0.0,0.0,0.0,0.0,0.0,0.0,0.0,0.0,0.0,0.0,0.0,0.0,0.0,0.0,0.0,0.0,0.0,0.0,-3.1366,-3.2777,0.0,-3.4399,0.0,-3.4414,-3.4414,-3.4414,-3.4414,-3.4414,-3.4414,-3.4414,-3.4414,-3.4414,-3.4414,-3.4414,-3.4414,-3.4835,-3.5654,-3.6925,-3.7738,-3.8202,-3.8202,-3.8202,-3.8202,0.0,0.0,0.0,0.0,0.0,-4.518,-4.7125,-4.7454,-4.8036,-4.9605,-5.0484,-5.1169,-5.1726,-5.2137,-5.2266,-5.198,-5.1434,0.0,0.0,0.0,0.0,-4.7475,-4.7432,-4.6477,-4.4394,-4.2652,-4.0633,0.0,-3.5444,-3.2599,-2.9729,-2.8966,-2.7874,0.0,0.0,0.0,-3.5112,-3.6992,0.0,-3.9245,-3.9328,-3.9388,-3.9388,-3.9388,-3.9388,-3.9388,-3.9388,-3.9388,-3.9388,-3.9388,-3.9388,-3.9388,-3.9388,-3.9388,-3.9388,-3.9388,-3.9388,-3.9388,-3.9388,-3.9388,-3.9388,-3.9388,-3.9388,-3.9328,-3.9089,-3.9065,-3.8994,-3.8835,-3.7704,-3.6614,-3.6236,0.0,0.0,0.0,0.0,0.0,0.0,0.0,0.0,0.0,0.0,0.0,0.0,0.0,0.0,0.0,0.0,0.0,0.0,0.0,0.0,0.0,-3.2544,0.0,0.0,0.0,-3.4414,-3.4414,-3.4414,-3.4414,-3.4414,-3.4414,-3.4414,-3.4414,-3.4414,-3.4414,-3.4414,-3.4414,-3.5096,-3.6272,-3.7549,-3.8115,-3.8202,-3.8202,-3.8202,-3.8202,0.0,0.0,0.0,0.0,0.0,0.0,0.0,-4.8691,0.0,-5.0081,-5.0046,-4.9948,-4.9895,-5.0595,-5.0707,-4.9837,-4.9797,-4.9599,-4.9172,-4.8723,-4.8186,-4.7479,-4.713,0.0,-4.484,-4.3217,-4.121,-3.8931,-3.5918,-3.3124,-3.0567,-2.922,0.0,-2.7225,0.0,-3.2422,0.0,0.0,0.0,-3.8916,-3.9275,-3.9388,-3.9388,-3.9388,-3.9388,-3.9388,-3.9388,-3.9388,-3.9388,-3.9388,-3.9388,-3.9388,-3.9388,-3.9388,-3.9388,-3.9388,-3.9388,-3.9388,-3.9388,-3.9388,-3.9388,-3.9388,-3.9301,-3.9228,-3.9228,-3.9141,-3.9068,-3.8943,-3.7923,-3.662,-3.5174,-3.3391,0.0,0.0,0.0,0.0,0.0,0.0,0.0,0.0,0.0,0.0,0.0,0.0,0.0,0.0,0.0,0.0,0.0,0.0,0.0,0.0,0.0,0.0,0.0,0.0,0.0,-3.4414,-3.4414,-3.4414,-3.4414,-3.4414,-3.4414,-3.4414,-3.4414,-3.4414,-3.4472,-3.5125,-3.5764,-3.6431,-3.7709,-3.8202,-3.8202,-3.8202,-3.8202,-3.8202,0.0,-4.5567,0.0,0.0,-4.7896,0.0,-4.884,-4.9655,-5.0188,-5.0131,-4.9382,-4.8632,-4.8108,-4.9102,-4.9262,-4.7934,-4.8282,-4.8282,-4.7624,-4.7381,-4.7309,-4.7309,-4.6815,-4.6217,-4.5529,-4.3718,-4.1743,0.0,0.0,-3.3739,-3.1466,-2.9926,0.0,0.0,0.0,0.0,0.0,0.0,-3.8003,-3.8661,-3.92,-3.9388,-3.9388,-3.9388,-3.9388,-3.9388,-3.9388,-3.9388,-3.9388,-3.9388,-3.9388,-3.9388,-3.9388,-3.9388,-3.9388,-3.9388,-3.9388,-3.9388,-3.9388,-3.9388,-3.9388,-3.9337,-3.9228,-3.9104,-3.9068,-3.8907,-3.8752,-3.8583,-3.7502,-3.604,-3.4268,-3.324,0.0,0.0,0.0,0.0,0.0,0.0,0.0,0.0,0.0,0.0,0.0,0.0,0.0,0.0,0.0,0.0,-2.2815,-2.45,0.0,0.0,0.0,-3.2292,-3.3993,0.0,-3.4414,0.0,-3.4414,-3.4414,-3.4414,-3.4414,-3.4414,-3.4414,-3.4414,-3.4414,-3.4516,-3.5778,-3.6301,-3.6431,-3.7709,-3.8202,-3.8202,-3.8202,-3.8202,-3.8202,0.0,0.0,0.0,0.0,0.0,0.0,-4.8528,-5.0365,-5.1236,-5.0002,-4.9115,-4.8873,-4.9537,-4.9726,-4.9726,-4.9583,-4.8953,-4.8573,-4.849,-4.7737,-4.7309,-4.7309,-4.7249,-4.6905,-4.6204,-4.4855,-4.288,0.0,0.0,-3.4666,-3.1511,-3.1316,0.0,0.0,0.0,0.0,0.0,-3.7764,-3.8691,-3.9334,-3.9358,-3.9388,-3.9388,-3.9388,-3.9388,-3.9388,-3.9388,-3.9388,-3.9388,-3.9388,-3.9388,-3.9388,-3.9388,-3.9388,-3.9388,-3.9388,-3.9388,-3.9388,-3.9388,-3.9388,-3.9337,-3.9177,-3.9104,-3.9068,-3.887,-3.8819,-3.8583,-3.7879,-3.6558,-3.5175,-3.3952,-3.3984,-3.386,0.0,0.0,0.0,0.0,0.0,0.0,0.0,0.0,0.0,0.0,0.0,0.0,0.0,0.0,0.0,-2.2757,-2.3659,-2.5556,-2.8781,0.0,-3.1872,-3.2655,-3.3833,0.0,-3.4414,-3.4414,-3.4414,-3.4414,-3.4414,-3.4414,-3.4414,-3.4414,-3.4414,-3.4516,-3.5778,-3.6301,-3.6431,-3.7709,-3.8202,-3.8202,-3.8202,-3.8202,-3.8202,0.0,0.0,0.0,0.0,0.0,0.0,0.0,-5.1329,-5.133,-4.9723,-5.062,-5.1351,-5.125,-5.0755,-5.0079,-4.9147,-4.8805,-4.8366,-4.7849,-4.7495,-4.7309,-4.7309,-4.7309,-4.6995,-4.6294,-4.5394,-4.3808,0.0,0.0,-3.6357,-3.3872,-3.3095,0.0,0.0,0.0,-3.6402,-3.7689,-3.8616,-3.9394,-4.0053,-4.0442,-4.0367,-4.0008,-4.0008,-4.0008,-4.0008,-4.0008,-4.0262,-4.0591,-4.0591,-4.0068,-3.9388,-3.9388,-3.9388,-3.9388,-3.9265,-3.9228,-3.9177,-3.9068,-3.9031,-3.9017,-3.8943,-3.8833,-3.8738,-3.8664,-3.8538,-3.8251,-3.7565,-3.6343,-3.5131,-3.4282,-3.4039,-3.3908,0.0,0.0,0.0,0.0,0.0,0.0,0.0,0.0,0.0,0.0,0.0,0.0,0.0,0.0,0.0,0.0,-2.2954,0.0,-2.8013,0.0,-3.1453,-3.2481,-3.3775,-3.4414,-3.4414,-3.4414,-3.4414,-3.4414,-3.4414,-3.4414,-3.4414,-3.4414,-3.4414,-3.4516,-3.5778,-3.6301,-3.6431,-3.7709,-3.8202,-3.8202,-3.8202,-3.8202,-3.8202,-4.9243,0.0,-5.0284,0.0,-5.1715,-5.1685,-5.1439,-5.1793,-5.1678,-5.0425,-5.2146,-5.295,-5.1501,-5.0624,-4.9708,-4.8634,-4.8321,-4.7976,-4.7337,-4.7309,-4.7309,-4.7309,-4.7309,0.0,-4.6621,-4.5948,-4.4721,-4.298,-4.0703,0.0,-3.6626,0.0,0.0,0.0,-3.7345,-3.8138,-3.902,-3.9709,-4.0262,-4.0726,-4.119,-4.11,-4.0681,-4.0681,-4.0681,-4.0681,-4.0681,-4.0995,-4.1422,-4.1422,-4.0771,-3.9963,-3.9768,-3.9672,-3.9555,-3.92,-3.9068,-3.898,-3.8819,-3.8782,-3.8797,-3.8723,-3.8627,-3.8478,-3.8441,-3.8277,-3.797,-3.7172,-3.5981,-3.4951,-3.4501,-3.4137,-3.3951,-3.4128,0.0,0.0,0.0,0.0,0.0,0.0,0.0,-2.5905,0.0,0.0,0.0,0.0,0.0,0.0,0.0,0.0,0.0,0.0,0.0,0.0,0.0,-3.3775,-3.4414,-3.4414,-3.4414,-3.4414,-3.4414,-3.4414,-3.4414,-3.4414,-3.4414,-3.4516,-3.4777,-3.5865,-3.6417,-3.6707,-3.7781,-3.8202,-3.8202,-3.8202,-3.8202,-3.8202,-5.0327,-4.9833,-4.9553,-5.0386,-5.0349,-5.0258,-5.0227,-5.1546,-5.2575,-5.2575,-5.3399,-5.2797,-4.9689,-4.8715,-4.8326,-4.8326,-4.7727,-4.7294,-4.7309,-4.7309,-4.7309,0.0,0.0,-4.7309,-4.7294,-4.6651,-4.5648,-4.4287,0.0,0.0,-3.9328,0.0,-3.8706,-3.9394,-4.0053,-4.0367,-4.0412,-4.107,-4.1392,-4.1407,-4.1422,-4.1422,-4.1407,-4.1407,-4.1407,-4.1407,-4.1407,-4.1407,-4.1422,-4.1422,-4.1407,-4.125,-4.0591,-4.0271,-3.9973,-3.9297,-3.8943,-3.8782,-3.8782,-3.8782,-3.8745,-3.8553,-3.8478,-3.8441,-3.824,-3.8202,-3.7839,-3.6577,-3.5314,-3.4428,-3.4414,-3.4414,-3.4196,-3.362,0.0,0.0,0.0,0.0,0.0,0.0,-2.7009,-2.5585,-2.496,0.0,0.0,0.0,0.0,0.0,0.0,0.0,0.0,-2.8593,-3.051,0.0,-3.2481,-3.3775,-3.4414,-3.4414,-3.4414,-3.4414,-3.4414,-3.4414,-3.4414,-3.4414,-3.4414,-3.4777,-3.5436,-3.604,-3.6693,-3.736,-3.797,-3.8202,-3.8202,-3.8202,-3.8202,-3.8202,-5.038,-5.1091,-5.1797,-5.1911,-5.2394,-5.2577,-5.1939,-5.2288,-5.2381,-5.1742,-5.1911,-5.1713,-5.0677,-5.1095,-5.1002,0.0,-4.9197,-4.8574,0.0,-4.7549,-4.7309,-4.7309,-4.7309,-4.7309,-4.7309,-4.6651,-4.607,-4.5636,0.0,0.0,0.0,-3.9858,-4.0113,-4.0771,-4.098,-4.107,-4.1115,-4.1811,-4.2096,-4.2126,-4.2536,-4.2447,-4.2096,-4.2096,-4.2096,-4.2043,-4.1873,-4.2118,-4.2465,-4.2347,-4.2283,-4.2164,-4.1513,-4.1047,-4.0611,-3.9666,-3.9325,-3.9147,-3.8543,-3.8389,-3.8389,-3.8315,-3.8277,-3.8277,-3.8202,-3.7883,-3.7346,-3.6489,-3.5633,-3.4922,-3.4486,-3.4414,-3.4356,-3.4138,-3.4283,0.0,0.0,0.0,0.0,0.0,0.0,-2.6866,0.0,-2.54,0.0,0.0,0.0,0.0,0.0,0.0,0.0,0.0,-3.0712,0.0,-3.2481,-3.3775,-3.4414,-3.4414,-3.4414,-3.4414,-3.4414,-3.4414,-3.4414,-3.4443,-3.4878,-3.5203,-3.5479,-3.6533,-3.7114,-3.736,-3.797,-3.8202,-3.8202,-3.8202,-3.8202,-3.8202,-5.0695,-5.1499,-5.2215,-5.2093,-5.2561,-5.274,-5.217,-5.2078,-5.1865,-5.1261,-5.1214,-5.1214,-5.1214,-5.1833,0.0,-5.051,-4.9796,-4.9107,-4.8341,-4.7908,-4.7563,-4.7309,-4.7309,-4.7309,-4.7309,0.0,0.0,-4.6279,-4.4152,-4.2686,-4.1863,-4.1624,-4.1713,-4.2117,-4.2117,-4.2117,-4.2147,-4.2551,-4.2731,-4.2761,-4.3086,-4.2956,-4.2638,-4.252,-4.252,-4.248,-4.2308,-4.2534,-4.2875,-4.2729,-4.2688,-4.2614,-4.2096,-4.1794,-4.1371,-4.0173,-3.9633,-3.9279,-3.8719,-3.8391,-3.8202,-3.8202,-3.8202,-3.8202,-3.8202,-3.7738,-3.7186,-3.6765,-3.5981,-3.5276,-3.4835,-3.4574,-3.4414,-3.4414,-3.4414,-3.4109,-3.3224,0.0,0.0,0.0,0.0,0.0,0.0,-2.7403,0.0,0.0,0.0,0.0,0.0,0.0,0.0,-2.9102,-3.1584,0.0,-3.3191,-3.4008,-3.4414,-3.4414,-3.4414,-3.4414,-3.4414,-3.4414,-3.4545,-3.4791,-3.5218,-3.5683,-3.6191,-3.6968,-3.7433,-3.768,-3.8057,-3.8202,-3.8202,-3.8202,-3.8202,-3.8202,-5.1214,-5.1214,0.0,0.0,-5.1214,0.0,-5.1214,-5.1214,-5.1214,-5.1214,-5.1214,-5.1214,-5.1214,-5.1214,-5.0928,-5.0315,0.0,0.0,0.0,-4.8371,-4.8057,-4.7399,-4.7369,-4.7354,-4.7309,-4.7309,-4.698,-4.6279,-4.5065,-4.4436,-4.4362,-4.3663,-4.3364,-4.3364,-4.3305,-4.329,-4.329,-4.329,-4.329,-4.329,-4.3076,-4.2996,-4.2996,-4.2769,-4.2688,-4.2688,-4.2688,-4.2688,-4.2688,-4.2648,-4.2662,-4.2622,-4.2433,-4.2392,-4.2103,-4.0831,-3.994,-3.9305,-3.9218,-3.8739,-3.826,-3.8217,-3.8202,-3.8202,-3.8202,-3.7767,-3.736,-3.7317,-3.6301,-3.545,-3.5407,-3.4835,-3.4414,-3.4414,-3.437,-3.392,-3.2655,0.0,0.0,0.0,0.0,0.0,0.0,-2.9639,-3.0408,0.0,0.0,0.0,0.0,0.0,-2.9116,-3.148,-3.2861,-3.3819,-3.4399,-3.4414,-3.4414,-3.4414,-3.4414,-3.4414,-3.4414,-3.4457,-3.4806,-3.5392,-3.5494,-3.6185,-3.7302,-3.736,-3.7694,-3.8202,-3.8202,-3.8202,-3.8202,-3.8202,-3.8202,-3.8202,0.0,0.0,-5.1214,-5.1214,-5.1214,-5.1214,-5.1214,-5.1214,-5.1214,-5.1214,-5.1214,-5.1214,-5.1214,-5.1214,-5.1154,-5.1005,-5.0345,-4.9942,-4.9747,-4.9314,-4.8745,-4.8072,-4.8057,-4.7818,-4.7309,-4.7309,-4.698,-4.6279,-4.5965,-4.5574,-4.505,-4.4392,-4.3971,-4.3834,-4.3434,-4.321,-4.3076,-4.3076,-4.3155,-4.325,-4.293,-4.2875,-4.2996,-4.2769,-4.2688,-4.2688,-4.2541,-4.2474,-4.2433,-4.2284,-4.2242,-4.2242,-4.2175,-4.2175,-4.2015,-4.1186,-4.0797,-4.0437,-3.9465,-3.9088,-3.8841,-3.8333,-3.8202,-3.8202,-3.8202,-3.8086,-3.7854,-3.7404,-3.6649,-3.5938,-3.5479,-3.4835,-3.4414,-3.4414,-3.4008,-3.3427,-3.2597,-3.2481,0.0,0.0,-3.1656,-3.1685,-3.0683,-3.1496,-3.138,0.0,0.0,0.0,0.0,-3.1163,-3.1625,-3.2234,-3.3514,-3.4269,-3.4414,-3.4414,-3.4414,-3.4414,-3.4414,-3.4414,-3.4428,-3.4907,-3.5261,-3.545,-3.6417,-3.7027,-3.7346,-3.7796,-3.8072,-3.8202,-3.8202,-3.8202,-3.8202,-3.8202,-3.8202,-3.8202,-5.1214,-5.1214,-5.1214,-5.1214,-5.1214,-5.1214,-5.1214,-5.1214,-5.1214,-5.1214,-5.1214,-5.1214,-5.1214,-5.1214,-5.1214,-5.1214,-5.0885,-5.051,-5.0211,-4.9898,-4.9419,-4.8805,-4.8446,-4.8117,-4.7758,-4.7459,-4.713,-4.677,-4.6429,-4.6127,-4.5753,-4.4956,-4.4601,-4.4601,-4.4229,-4.4024,-4.3901,-4.3901,-4.3901,-4.3861,-4.3546,-4.3313,-4.313,-4.2925,-4.2843,-4.2802,-4.2692,-4.265,-4.265,-4.254,-4.2324,-4.2092,-4.2092,-4.2092,-4.2034,-4.1657,-4.1337,-4.0873,-3.9886,-3.9407,-3.9044,-3.8376,-3.8202,-3.8202,-3.8202,-3.8202,-3.8115,-3.7781,-3.7201,-3.6562,-3.5909,-3.527,-3.4661,-3.4066,-3.3935,-3.3572,-3.2643,-3.2759,0.0,-3.2063,-3.2556,-3.2687,-3.2002,-3.28,-3.2832,-3.1482,0.0,0.0,-3.2353,-3.2991,-3.3253,-3.2962,-3.3906,-3.4414,-3.4414,-3.4414,-3.4414,-3.4414,-3.4414,-3.4414,-3.4428,-3.5101,-3.5552,-3.5886,-3.6867,-3.7462,-3.7738,-3.8072,-3.8202,-3.8202,-3.8202,-3.8202,-3.8202,-3.8202,-3.8202,-3.8202,-5.1214,-5.1214,-5.1214,-5.1214,-5.1214,-5.1214,-5.1214,-5.1214,-5.1214,-5.1214,-5.1214,-5.1214,-5.1214,-5.1214,-5.1214,-5.1214,-5.1214,-5.0943,-5.0375,-5.0345,-5.0092,-4.9434,-4.888,-4.8491,-4.8282,-4.7595,-4.7251,-4.7251,-4.6655,-4.6386,-4.6371,-4.5531,-4.5203,-4.5272,-4.5057,-4.4929,-4.4902,-4.4902,-4.4761,-4.4577,-4.4351,-4.3929,-4.3447,-4.3236,-4.3137,-4.3137,-4.3137,-4.3137,-4.3137,-4.3137,-4.2731,-4.2237,-4.2237,-4.2165,-4.2092,-4.2092,-4.17,-4.1091,-4.0423,-3.9741,-3.9059,-3.8492,-3.8275,-3.8202,-3.8202,-3.8202,-3.8202,-3.8202,-3.7723,-3.7114,-3.6431,-3.5793,-3.4985,-3.3707,-3.392,-3.3862,-3.2655,0.0,-3.33,-3.273,-3.3224,-3.3398,-3.2861,-3.3775,-3.4196,-3.3678,-3.4109,-3.4414,0.0,-3.4414,-3.4167,-3.3663,-3.4124,-3.4414,-3.4414,-3.4414,-3.4414,-3.4414,-3.4501,-3.4559,-3.4588,-3.5348,-3.5988,-3.6504,-3.7157,-3.7738,-3.8202,-3.8202,-3.8202,-3.8202,-3.8202,-3.8202,-3.8202,-3.8202,-3.8202,-3.8165,-5.1214,-5.1214,-5.1214,-5.1214,-5.1214,-5.1214,-5.1214,-5.1214,-5.1214,-5.1214,-5.1214,-5.1214,-5.1214,-5.1214,-5.1214,-5.1214,-5.1214,-5.1169,-5.1065,-5.1018,-5.0765,-5.0061,-4.9941,-4.9419,-4.8312,-4.7405,-4.6975,-4.6975,-4.6871,-4.6826,-4.6797,-4.6144,-4.5661,-4.53,-4.487,-4.4592,-4.4394,-4.4394,-4.4464,-4.4577,-4.4194,-4.4093,-4.4105,-4.392,-4.3834,-4.3834,-4.3834,-4.3834,-4.3834,-4.3834,-4.3398,-4.2861,-4.2861,-4.2498,-4.2092,-4.2092,-4.202,-4.1802,-4.112,-4.0089,-3.9175,-3.9073,-3.8623,-3.8202,-3.8202,-3.8202,-3.8202,-3.8202,-3.7723,-3.7114,-3.6431,-3.5793,-3.4985,-3.3707,-3.359,-3.3354,-3.2629,0.0,-3.346,-3.3373,-3.3877,-3.4225,-3.4124,-3.4264,-3.437,-3.4283,-3.4356,-3.4414,-3.4414,-3.4414,-3.437,-3.4269,-3.4356,-3.4414,-3.4414,-3.4414,-3.4414,-3.4428,-3.4951,-3.5247,-3.529,-3.646,-3.7056,-3.7186,-3.7796,-3.8115,-3.8202,-3.8202,-3.8202,-3.8202,-3.8202,-3.8202,-3.8202,-3.8202,-3.8202,-3.8089,-5.1214,-5.1214,-5.1214,-5.1214,-5.1214,-5.1214,-5.1214,-5.1214,-5.1214,-5.1214,-5.1214,-5.1214,-5.1214,-5.1214,-5.1214,-5.1214,-5.1214,-5.1214,-5.1214,-5.1214,-5.1079,-5.0734,-5.0375,-4.9702,-4.8656,-4.7837,-4.7362,-4.7229,-4.6889,-4.6712,-4.6712,-4.6329,-4.6065,-4.5991,-4.5624,-4.5405,-4.5332,-4.5332,-4.5332,-4.5288,-4.5098,-4.488,-4.4589,-4.4516,-4.4472,-4.4472,-4.4472,-4.4472,-4.4472,-4.4472,-4.4052,-4.3471,-4.3108,-4.2803,-4.2513,-4.2194,-4.1845,-4.1482,-4.1178,-4.0408,-3.961,-3.9276,-3.8971,-3.8638,-3.8275,-3.8202,-3.8202,-3.8202,-3.7984,-3.7593,-3.6968,-3.6315,-3.561,-3.4666,-3.423,0.0,0.0,-3.379,-3.3978,-3.3978,-3.424,-3.4414,-3.4414,-3.4414,-3.4414,-3.4414,-3.4414,-3.4414,-3.4414,-3.4414,-3.4414,-3.4414,-3.4414,-3.4414,-3.4414,-3.4414,-3.4588,-3.4922,-3.5261,-3.5581,-3.5909,-3.6867,-3.7302,-3.7346,-3.7941,-3.8202,-3.8202,-3.8202,-3.8202,-3.8202,-3.8202,-3.7924,-3.7567,-3.8037,-3.7591,-3.683,-5.1214,-5.1214,-5.1214,-5.1214,-5.1214,-5.1214,-5.1214,-5.1214,-5.1214,-5.1214,-5.1214,-5.1214,-5.1214,-5.1214,-5.1214,-5.1214,-5.1214,-5.1214,-5.1214,-5.1214,-5.1214,-5.1214,-5.0493,-4.9788,-4.9052,-4.8325,-4.779,-4.7417,-4.6977,-4.6653,-4.6506,-4.6314,-4.6269,-4.6417,-4.6225,-4.6135,-4.6135,-4.6135,-4.6046,-4.588,-4.588,-4.5576,-4.5111,-4.5111,-4.5111,-4.5111,-4.5111,-4.5111,-4.5111,-4.5111,-4.4705,-4.411,-4.3587,-4.334,-4.3108,-4.2484,-4.1845,-4.1323,-4.1323,-4.0844,-4.0176,-3.9567,-3.9305,-3.903,-3.8362,-3.8202,-3.8202,-3.8202,-3.8202,-3.8028,-3.7418,-3.6881,-3.6228,-3.5334,0.0,0.0,0.0,-3.4312,-3.4414,-3.4414,-3.4414,-3.4414,-3.4414,-3.4414,-3.4414,-3.4414,-3.4414,-3.4414,-3.4414,-3.4414,-3.4414,-3.4414,-3.4414,-3.4414,-3.4414,-3.4559,-3.4878,-3.5392,-3.5697,-3.6069,-3.6562,-3.7215,-3.752,-3.7535,-3.776,-3.7886,-3.7886,-3.7682,-3.7591,-3.7591,-3.7591,-3.7193,-3.6688,-3.7362,-3.6752,-3.5655,-5.1214,-5.1214,-5.1214,-5.1214,-5.1214,-5.1214,-5.1214,-5.1214,-5.1214,-5.1214,-5.1214,-5.1214,-5.1214,-5.1214,-5.1214,-5.1214,-5.1214,-5.1214,-5.1214,-5.1214,-5.1214,-5.1214,-5.0368,-4.9764,-4.9471,-4.8576,-4.7821,-4.7219,-4.7175,-4.6824,-4.621,-4.621,-4.609,-4.5925,-4.5925,-4.5925,-4.5925,-4.5925,-4.5925,-4.588,-4.588,-4.5851,-4.5808,-4.5808,-4.5808,-4.5808,-4.5808,-4.5808,-4.5808,-4.5808,-4.5372,-4.4806,-4.4763,-4.4371,-4.379,-4.3123,-4.2498,-4.202,-4.202,-4.1541,-4.0858,-4.0191,-3.961,-3.903,-3.8362,-3.8202,-3.8202,-3.8202,-3.8202,-3.8028,-3.7418,-3.7259,-3.6635,-3.4777,0.0,0.0,-3.3736,-3.4051,-3.4414,-3.4414,-3.4414,-3.4414,-3.4414,-3.4414,-3.4414,-3.4414,-3.4414,-3.4414,-3.4414,-3.4414,-3.4414,-3.4414,-3.4414,-3.4414,-3.4414,-3.5029,-3.5348,-3.5407,-3.6591,-3.7186,-3.7259,-3.7854,-3.813,-3.8092,-3.7309,-3.7014,-3.6922,-3.6108,-3.5775,-3.5775,-3.5775,-3.5735,-3.5695,-3.5775,-3.5695,-3.5507,-5.1214,-5.1214,-5.1214,-5.1214,-5.1214,-5.1214,-5.1214,-5.1214,-5.1214,-5.1214,-5.1214,-5.1214,-5.1214,-5.1214,-5.1214,-5.1214,-5.1058,-5.0964,-5.0964,-5.0852,-5.0899,-5.1182,-5.0741,-5.0372,-5.0117,-4.9204,-4.8515,-4.8108,-4.7762,-4.7238,-4.6552,-4.6552,-4.6349,-4.588,-4.588,-4.588,-4.588,-4.588,-4.588,-4.588,-4.588,-4.588,-4.588,-4.588,-4.588,-4.588,-4.588,-4.588,-4.588,-4.588,-4.5721,-4.543,-4.5024,-4.4734,-4.4342,-4.3297,-4.2832,-4.2571,-4.2194,-4.1903,-4.1555,-4.0887,-4.0234,-3.9596,-3.8971,-3.8507,-3.8202,-3.8202,-3.8202,-3.813,-3.7897,-3.7549,-3.7186,-3.6823,0.0,-3.5923,-3.5865,-3.5706,-3.559,-3.559,-3.5241,-3.5009,-3.5009,-3.4646,-3.4414,-3.4414,-3.4414,-3.4414,-3.4414,-3.4414,-3.4588,-3.4994,-3.5009,-3.5009,-3.5009,-3.5276,-3.5813,-3.6577,-3.707,-3.7506,-3.7831,-3.7544,-3.7414,-3.7376,-3.6478,-3.6108,-3.6068,-3.5735,-3.5615,-3.5615,-3.5615,-3.5318,-3.4937,-3.5427,-3.4938,-3.4079,-5.1214,-5.112,-5.112,-5.1167,-5.112,-5.112,-5.1167,-5.1214,-5.1214,-5.1214,-5.112,-5.1058,-5.1058,-5.1058,-5.1058,-5.1058,-5.0917,-5.0807,-5.0807,-5.0614,-5.0629,-5.0947,-5.0728,-5.0504,-5.039,-4.9681,-4.9106,-4.8677,-4.829,-4.7753,-4.7129,-4.6879,-4.6606,-4.6171,-4.5967,-4.588,-4.588,-4.588,-4.588,-4.588,-4.588,-4.588,-4.588,-4.588,-4.588,-4.588,-4.588,-4.588,-4.588,-4.588,-4.588,-4.5808,-4.5343,-4.5053,-4.4676,-4.3616,-4.3152,-4.2861,-4.2266,-4.2092,-4.1932,-4.1265,-4.0742,-4.0249,-3.9625,-3.8986,-3.8507,-3.8507,-3.8347,-3.8202,-3.8202,-3.7868,-3.7665,-3.7883,-3.7186,-3.6707,-3.6954,-3.6591,-3.6301,-3.6301,-3.5923,-3.5697,-3.5697,-3.527,-3.5009,-3.5009,-3.5009,-3.5009,-3.5009,-3.5009,-3.5212,-3.5683,-3.5697,-3.5799,-3.6002,-3.6017,-3.6431,-3.7302,-3.7491,-3.7796,-3.8165,-3.7285,-3.6897,-3.6858,-3.5722,-3.5237,-3.5196,-3.4951,-3.4828,-3.4828,-3.4828,-3.4483,-3.4063,-3.4594,-3.4066,-3.321,-5.1214,-5.0964,-5.0855,-5.1167,-5.0964,-5.0902,-5.1167,-5.1214,-5.1214,-5.1214,-5.0964,-5.0807,-5.0807,-5.0807,-5.0807,-5.0807,-5.0807,-5.0807,-5.0807,-5.0614,-5.0501,-5.0501,-5.0246,-5.0086,-5.0086,-4.9829,-4.9364,-4.8692,-4.8692,-4.8406,-4.7782,-4.7143,-4.6792,-4.6763,-4.6185,-4.5895,-4.5895,-4.5895,-4.5895,-4.5895,-4.588,-4.588,-4.588,-4.588,-4.588,-4.588,-4.588,-4.588,-4.588,-4.588,-4.588,-4.588,-4.588,-4.543,-4.4777,-4.4168,-4.3529,-4.2876,-4.2266,-4.2107,-4.1947,-4.1279,-4.1091,-4.0916,-4.0249,-3.9639,-3.9218,-3.9204,-3.8667,-3.8217,-3.8202,-3.8202,-3.8014,-3.7404,-3.7317,-3.7085,-3.6417,-3.6315,-3.6315,-3.6315,-3.6315,-3.6315,-3.6315,-3.6301,-3.6301,-3.6301,-3.6301,-3.6301,-3.6301,-3.6301,-3.6301,-3.6315,-3.6315,-3.6635,-3.7302,-3.7302,-3.7302,-3.7317,-3.7912,-3.8202,-3.8165,-3.7285,-3.6897,-3.678,-3.5101,-3.4397,-3.4314,-3.3454,-3.3124,-3.3124,-3.3124,-3.3124,-3.3124,-3.3124,-3.3124,-3.3124,-5.0964,-5.0855,-5.0775,-5.071,-5.0742,-5.0807,-5.0917,-5.1073,-5.112,-5.0964,-5.0855,-5.0728,-5.0614,-5.0567,-5.0567,-5.0567,-5.0423,-5.0216,-5.0057,-4.9975,-4.9926,-4.9926,-5.0038,-5.0086,-5.0086,-4.9829,-4.9582,-4.9393,-4.9393,-4.9074,-4.8435,-4.8246,-4.7927,-4.7491,-4.7303,-4.7216,-4.7187,-4.6737,-4.6548,-4.6505,-4.6069,-4.588,-4.588,-4.588,-4.588,-4.588,-4.588,-4.588,-4.588,-4.588,-4.588,-4.588,-4.588,-4.575,-4.5459,-4.4806,-4.4472,-4.4081,-4.3007,-4.2716,-4.2571,-4.1961,-4.1439,-4.1047,-4.0844,-4.0292,-3.9712,-3.9291,-3.9044,-3.8754,-3.8289,-3.8202,-3.8144,-3.797,-3.7941,-3.7868,-3.7665,-3.7636,-3.7636,-3.7636,-3.7259,-3.7012,-3.7012,-3.6591,-3.6301,-3.6301,-3.6301,-3.6301,-3.6301,-3.6301,-3.6519,-3.6997,-3.7012,-3.7302,-3.7941,-3.752,-3.752,-3.7941,-3.8115,-3.7886,-3.7246,-3.6399,-3.5682,-3.5073,-3.3979,-3.3496,-3.3454,-3.3197,-3.3124,-3.3124,-3.3124,-3.3124,-3.3124,-3.3124,-3.3124,-3.3124,-5.0742,-5.0585,-5.0504,-5.0486,-5.0519,-5.0585,-5.076,-5.0885,-5.0885,-5.0807,-5.0632,-5.0504,-5.0342,-5.0342,-5.0342,-5.0342,-5.0183,-4.999,-4.9732,-4.9717,-4.9717,-4.9717,-4.9878,-4.9926,-4.9926,-4.9781,-4.9717,-4.9717,-4.9717,-4.948,-4.9088,-4.8841,-4.8522,-4.8145,-4.7898,-4.7782,-4.7753,-4.7375,-4.7216,-4.7172,-4.6795,-4.6635,-4.6606,-4.6359,-4.6258,-4.6229,-4.5982,-4.588,-4.588,-4.588,-4.588,-4.588,-4.588,-4.588,-4.575,-4.5082,-4.4879,-4.4661,-4.366,-4.3195,-4.2905,-4.2542,-4.1961,-4.1497,-4.1497,-4.0974,-4.0321,-3.9683,-3.9363,-3.9,-3.8318,-3.8202,-3.8202,-3.8202,-3.8202,-3.8202,-3.8202,-3.8202,-3.8202,-3.8202,-3.7883,-3.7665,-3.7665,-3.7302,-3.7056,-3.7056,-3.7056,-3.7056,-3.7056,-3.7056,-3.7244,-3.7651,-3.7302,-3.7474,-3.8202,-3.7489,-3.7489,-3.8202,-3.7848,-3.7414,-3.6858,-3.5682,-3.4855,-3.4356,-3.3496,-3.3124,-3.3124,-3.3124,-3.3124,-3.3124,-3.3124,-3.3124,-3.3124,-3.3124,-3.3124,-3.3124,-5.0486,-5.0294,-5.0183,-5.039,-5.0246,-5.0216,-5.0665,-5.0614,-5.0581,-5.0728,-5.0361,-5.0086,-5.0086,-5.0038,-5.0038,-5.0038,-5.0038,-4.9975,-4.9732,-4.9717,-4.9717,-4.9717,-4.9717,-4.9717,-4.9717,-4.9717,-4.9717,-4.9717,-4.9717,-4.9717,-4.9717,-4.9088,-4.8812,-4.8783,-4.8217,-4.7956,-4.7956,-4.7898,-4.7869,-4.7869,-4.7796,-4.7782,-4.7724,-4.7143,-4.6836,-4.6705,-4.6185,-4.5938,-4.588,-4.588,-4.588,-4.588,-4.588,-4.588,-4.5764,-4.5155,-4.498,-4.485,-4.424,-4.3616,-4.3137,-4.3021,-4.2586,-4.2165,-4.2107,-4.1628,-4.1004,-4.0321,-3.9697,-3.9088,-3.8405,-3.8246,-3.8202,-3.8202,-3.8202,-3.8202,-3.8202,-3.8202,-3.8202,-3.8202,-3.8202,-3.8202,-3.8202,-3.8202,-3.8202,-3.8202,-3.8127,-3.8089,-3.8089,-3.8089,-3.8037,-3.7962,-3.7285,-3.7246,-3.7962,-3.7169,-3.7208,-3.8089,-3.7285,-3.6819,-3.6624,-3.5114,-3.4356,-3.423,-3.3441,-3.3124,-3.3124,-3.3124,-3.3124,-3.3124,-3.3124,-3.3124,-3.3124,-3.3124,-3.3124,-3.3124,-5.0246,-5.0135,-5.0038,-4.9878,-4.999,-5.0135,-5.0216,-5.039,-5.0438,-5.0279,-5.0183,-5.0038,-4.9829,-4.9781,-4.9781,-4.9781,-4.9781,-4.9781,-4.9717,-4.9717,-4.9717,-4.9717,-4.9717,-4.9717,-4.9717,-4.9717,-4.9717,-4.9717,-4.9717,-4.9717,-4.9717,-4.9538,-4.9465,-4.9465,-4.932,-4.9311,-4.9233,-4.8725,-4.8522,-4.8478,-4.7985,-4.7782,-4.7767,-4.7622,-4.7274,-4.6763,-4.6633,-4.6301,-4.588,-4.588,-4.588,-4.588,-4.588,-4.588,-4.5851,-4.5706,-4.5663,-4.5532,-4.4864,-4.4589,-4.424,-4.3239,-4.289,-4.2673,-4.2208,-4.199,-4.1686,-4.1018,-4.0365,-3.9712,-3.9102,-3.8551,-3.8202,-3.8202,-3.8202,-3.8202,-3.8202,-3.8202,-3.8202,-3.8202,-3.8202,-3.8202,-3.8202,-3.8202,-3.8202,-3.8202,-3.7567,-3.7169,-3.7169,-3.7169,-3.6883,-3.6188,-3.6635,-3.6635,-3.6188,-3.5989,-3.632,-3.7169,-3.6975,-3.6215,-3.4909,-3.4551,-3.4021,-3.3368,-3.3197,-3.3124,-3.3124,-3.3124,-3.3124,-3.3124,-3.3124,-3.3124,-3.3124,-3.3124,-3.3124,-3.3124,-4.9975,-4.9926,-4.9878,-4.9732,-4.9829,-4.9926,-5.0086,-5.0086,-5.0086,-5.0086,-4.999,-4.9878,-4.9732,-4.9717,-4.9717,-4.9717,-4.9717,-4.9717,-4.9717,-4.9717,-4.9717,-4.9717,-4.9717,-4.9717,-4.9717,-4.9717,-4.9717,-4.9717,-4.9717,-4.9717,-4.9717,-4.9717,-4.9717,-4.9717,-4.9717,-4.9717,-4.9703,-4.932,-4.9175,-4.9146,-4.8812,-4.8729,-4.8653,-4.8348,-4.8029,-4.7604,-4.701,-4.6417,-4.588,-4.588,-4.588,-4.588,-4.588,-4.588,-4.588,-4.588,-4.588,-4.5808,-4.5459,-4.5126,-4.4734,-4.4066,-4.3442,-4.2832,-4.2237,-4.2092,-4.1903,-4.1236,-4.0815,-4.0292,-3.9363,-3.8913,-3.858,-3.826,-3.8202,-3.8202,-3.8202,-3.8202,-3.8202,-3.8202,-3.8202,-3.8037,-3.7606,-3.7567,-3.74,-3.6986,-3.6557,-3.6281,-3.6281,-3.6281,-3.6068,-3.5615,-3.5655,-3.5655,-3.5615,-3.5237,-3.5251,-3.5709,-3.5709,-3.5237,-3.4397,-3.3992,-3.3526,-3.3124,-3.3124,-3.3124,-3.3124,-3.3124,-3.3124,-3.3124,-3.3124,-3.3124,-3.3124,-3.3124,-3.3124,-3.3124,-4.9732,-4.9717,-4.9717,-4.9717,-4.9717,-4.9781,-4.999,-4.9829,-4.9781,-4.999,-4.9829,-4.9717,-4.9717,-4.9717,-4.9717,-4.9717,-4.9717,-4.9717,-4.9717,-4.9717,-4.9717,-4.9717,-4.9717,-4.9717,-4.9717,-4.9717,-4.9717,-4.9717,-4.9717,-4.9717,-4.9717,-4.9717,-4.9717,-4.9717,-4.9717,-4.9717,-4.9717,-4.9717,-4.9717,-4.9717,-4.9717,-4.9717,-4.9611,-4.9088,-4.8827,-4.8547,-4.7488,-4.6679,-4.604,-4.604,-4.5982,-4.588,-4.588,-4.588,-4.588,-4.588,-4.588,-4.588,-4.588,-4.5474,-4.5024,-4.4922,-4.4095,-4.3123,-4.2411,-4.2165,-4.1932,-4.1381,-4.1178,-4.0771,-3.9712,-3.9349,-3.903,-3.8463,-3.8275,-3.8202,-3.8202,-3.8202,-3.8202,-3.8202,-3.8202,-3.7848,-3.6975,-3.6897,-3.6517,-3.5655,-3.5467,-3.5386,-3.5386,-3.5386,-3.5305,-3.5183,-3.4662,-3.4662,-3.5183,-3.4496,-3.4189,-3.4189,-3.4189,-3.4189,-3.4147,-3.3411,-3.3124,-3.3124,-3.3124,-3.3124,-3.3124,-3.3124,-3.3124,-3.3124,-3.3124,-3.3124,-3.3124,-3.3124,-3.3124,-3.3124,-4.9717,-4.9717,-4.9717,-4.9717,-4.9717,-4.9717,-4.9732,-4.9732,-4.9717,-4.9732,-4.9732,-4.9717,-4.9717,-4.9717,-4.9717,-4.9717,-4.9717,-4.9717,-4.9717,-4.9717,-4.9717,-4.9717,-4.9717,-4.9717,-4.9717,-4.9717,-4.9717,-4.9717,-4.9717,-4.9717,-4.9717,-4.9717,-4.9717,-4.9717,-4.9717,-4.9717,-4.9717,-4.9717,-4.9717,-4.9717,-4.9717,-4.9717,-4.9717,-4.9582,-4.9204,-4.8663,-4.8489,-4.7662,-4.6662,-4.6662,-4.633,-4.588,-4.588,-4.588,-4.588,-4.588,-4.588,-4.588,-4.588,-4.5822,-4.5619,-4.5024,-4.4748,-4.4313,-4.3137,-4.2469,-4.2063,-4.1976,-4.1497,-4.1047,-4.0873,-3.9944,-3.9175,-3.9088,-3.858,-3.8202,-3.8202,-3.8202,-3.8202,-3.8202,-3.8202,-3.7848,-3.6975,-3.6897,-3.6517,-3.5655,-3.4978,-3.4551,-3.4551,-3.4551,-3.4217,-3.3484,-3.4063,-3.4105,-3.3441,-3.3326,-3.3283,-3.3283,-3.3283,-3.3283,-3.3283,-3.3154,-3.3124,-3.3124,-3.3124,-3.3124,-3.3124,-3.3124,-3.3124,-3.3124,-3.3124,-3.3124,-3.3124,-3.3124,-3.3124,-3.3124,-4.9717,-4.9717,-4.9717,-4.9717,-4.9717,-4.9717,-4.9717,-4.9717,-4.9717,-4.9717,-4.9717,-4.9717,-4.9717,-4.9717,-4.9717,-4.9717,-4.9717,-4.9717,-4.9717,-4.9717,-4.9717,-4.9717,-4.9717,-4.9717,-4.9717,-4.9717,-4.9717,-4.9717,-4.9717,-4.9717,-4.9717,-4.9717,-4.9717,-4.9717,-4.9717,-4.9717,-4.9717,-4.9717,-4.9717,-4.9717,-4.9717,-4.9717,-4.9717,-4.9717,-4.9494,-4.9204,-4.8856,-4.813,-4.7303,-4.6954,-4.6635,-4.6345,-4.5996,-4.588,-4.588,-4.588,-4.588,-4.588,-4.588,-4.588,-4.5822,-4.5518,-4.5169,-4.4734,-4.4182,-4.3297,-4.2498,-4.2165,-4.186,-4.1541,-4.1163,-4.0641,-4.0133,-3.9755,-3.8744,-3.8043,-3.8043,-3.7289,-3.6752,-3.6752,-3.6752,-3.6439,-3.5588,-3.5507,-3.5142,-3.4275,-3.3882,-3.3654,-3.3654,-3.3654,-3.3484,-3.3124,-3.3454,-3.3496,-3.3124,-3.3124,-3.3124,-3.3124,-3.3124,-3.3124,-3.3124,-3.3124,-3.3124,-3.3124,-3.3124,-3.3124,-3.3124,-3.3124,-3.3124,-3.3124,-3.3124,-3.3124,-3.3124,-3.3124,-3.3124,-3.3081]},{"header":{"parameterUnit":"m.s-1","parameterCategory":1,"la1":30.6,"la2":28.766,"lo1":-90.7593,"lo2":-88.6598,"dy":0.0162,"dx":0.0183,"nx":116,"ny":114,"refTime":"2024-05-17T12:00:00:Z","depth":0,"parameterNumber":3,"parameterNumberName":"V-component_of_WINDS"},"data":[0.0,0.0,0.0,0.0,0.0,0.0,0.0,0.0,0.0,0.0,0.0,0.0,0.0,0.0,0.0,0.0,0.0,0.0,0.0,0.0,0.0,0.0,0.0,0.0,0.0,0.0,0.0,0.0,0.0,0.0,0.0,0.0,0.0,0.0,0.0,0.0,0.0,0.0,0.0,0.0,0.0,0.0,0.0,0.0,0.0,0.0,0.0,0.0,0.0,0.0,0.0,0.0,0.0,0.0,0.0,0.0,0.0,0.0,0.0,0.0,0.0,0.0,0.0,0.0,0.0,0.0,0.0,0.0,0.0,0.0,0.0,0.0,0.0,0.0,0.0,0.0,0.0,0.0,0.0,0.0,0.0,0.0,0.0,0.0,0.0,0.0,0.0,0.0,0.0,0.0,0.0,0.0,0.0,0.0,0.0,0.0,0.0,0.0,0.0,0.0,0.0,0.0,0.0,0.0,0.0,0.0,0.0,0.0,0.0,0.0,0.0,0.0,0.0,0.0,0.0,0.0,0.0,0.0,0.0,0.0,0.0,0.0,0.0,0.0,0.0,0.0,0.0,0.0,0.0,0.0,0.0,0.0,0.0,0.0,0.0,0.0,0.0,0.0,0.0,0.0,0.0,0.0,0.0,0.0,0.0,0.0,0.0,0.0,0.0,0.0,0.0,0.0,0.0,0.0,0.0,0.0,0.0,0.0,0.0,0.0,0.0,0.0,0.0,0.0,0.0,0.0,0.0,0.0,0.0,0.0,0.0,0.0,0.0,0.0,0.0,0.0,0.0,0.0,0.0,0.0,0.0,0.0,0.0,0.0,0.0,0.0,0.0,0.0,0.0,0.0,0.0,0.0,0.0,0.0,0.0,0.0,0.0,0.0,0.0,0.0,0.0,0.0,0.0,0.0,0.0,0.0,0.0,0.0,0.0,0.0,0.0,0.0,0.0,0.0,0.0,0.0,0.0,0.0,0.0,0.0,0.0,0.0,0.0,0.0,0.0,0.0,0.0,0.0,0.0,0.0,0.0,0.0,0.0,0.0,0.0,0.0,0.0,0.0,0.0,0.0,0.0,0.0,0.0,0.0,0.0,0.0,0.0,0.0,0.0,0.0,0.0,0.0,0.0,0.0,0.0,0.0,0.0,0.0,0.0,0.0,0.0,0.0,0.0,0.0,0.0,0.0,0.0,0.0,0.0,0.0,0.0,0.0,0.0,0.0,0.0,0.0,0.0,0.0,0.0,0.0,0.0,0.0,0.0,0.0,0.0,0.0,0.0,0.0,0.0,0.0,0.0,0.0,0.0,0.0,0.0,0.0,0.0,0.0,0.0,0.0,0.0,0.0,0.0,0.0,0.0,0.0,0.0,0.0,0.0,0.0,0.0,0.0,0.0,0.0,0.0,0.0,0.0,0.0,0.0,0.0,0.0,0.0,0.0,0.0,0.0,0.0,0.0,0.0,0.0,0.0,0.0,0.0,0.0,0.0,0.0,0.0,0.0,0.0,0.0,0.0,0.0,0.0,0.0,0.0,0.0,0.0,0.0,0.0,0.0,0.0,0.0,0.0,0.0,0.0,0.0,0.0,0.0,0.0,0.0,0.0,0.0,0.0,0.0,0.0,0.0,0.0,0.0,0.0,0.0,0.0,0.0,0.0,0.0,0.0,0.0,0.0,0.0,0.0,0.0,0.0,0.0,0.0,0.0,0.0,0.0,0.0,0.0,0.0,0.0,0.0,0.0,0.0,0.0,0.0,0.0,0.0,0.0,0.0,0.0,0.0,0.0,0.0,0.0,0.0,0.0,0.0,0.0,0.0,0.0,0.0,0.0,0.0,0.0,0.0,0.0,0.0,0.0,0.0,0.0,0.0,0.0,0.0,0.0,0.0,0.0,0.0,0.0,0.0,0.0,0.0,0.0,0.0,0.0,0.0,0.0,0.0,0.0,0.0,0.0,0.0,0.0,0.0,0.0,0.0,0.0,0.0,0.0,0.0,0.0,0.0,0.0,0.0,0.0,0.0,0.0,0.0,0.0,0.0,0.0,0.0,0.0,0.0,0.0,0.0,0.0,0.0,0.0,0.0,0.0,0.0,0.0,0.0,0.0,0.0,0.0,0.0,0.0,0.0,0.0,0.0,0.0,0.0,0.0,0.0,0.0,0.0,0.0,0.0,0.0,0.0,0.0,0.0,0.0,0.0,0.0,0.0,0.0,0.0,0.0,0.0,0.0,0.0,0.0,0.0,0.0,0.0,0.0,0.0,0.0,0.0,0.0,0.0,0.0,0.0,0.0,0.0,0.0,0.0,0.0,0.0,0.0,0.0,0.0,0.0,0.0,0.0,0.0,0.0,0.0,0.0,0.0,0.0,0.0,0.0,0.0,0.0,0.0,0.0,0.0,0.0,0.0,0.0,0.0,0.0,0.0,0.0,0.0,0.0,0.0,0.0,0.0,0.0,0.0,0.0,0.0,0.0,0.0,0.0,0.0,0.0,0.0,0.0,0.0,0.0,0.0,0.0,0.0,0.0,0.0,0.0,0.0,0.0,0.0,0.0,0.0,0.0,0.0,0.0,0.0,0.0,0.0,0.0,0.0,0.0,0.0,0.0,0.0,0.0,0.0,0.0,0.0,0.0,0.0,0.0,0.0,0.0,0.0,0.0,0.0,0.0,0.0,0.0,0.0,0.0,0.0,0.0,0.0,0.0,0.0,0.0,0.0,0.0,0.0,0.0,0.0,0.0,0.0,0.0,0.0,0.0,0.0,0.0,0.0,0.0,0.0,0.0,0.0,0.0,0.0,0.0,0.0,0.0,0.0,0.0,0.0,0.0,0.0,0.0,0.0,0.0,0.0,0.0,0.0,0.0,0.0,0.0,0.0,0.0,0.0,0.0,0.0,0.0,0.0,0.0,0.0,0.0,0.0,0.0,0.0,0.0,0.0,0.0,0.0,0.0,0.0,0.0,0.0,0.0,0.0,0.0,0.0,0.0,0.0,0.0,0.0,0.0,0.0,0.0,0.0,0.0,0.0,0.0,0.0,0.0,0.0,0.0,0.0,0.0,0.0,0.0,0.0,0.0,0.0,0.0,0.0,0.0,0.0,0.0,0.0,0.0,0.0,0.0,0.0,0.0,0.0,0.0,0.0,0.0,0.0,0.0,0.0,0.0,0.0,0.0,0.0,0.0,0.0,0.0,0.0,0.0,0.0,0.0,0.0,0.0,0.0,0.0,0.0,0.0,0.0,0.0,0.0,0.0,0.0,0.0,0.0,0.0,0.0,0.0,0.0,0.0,0.0,0.0,0.0,0.0,0.0,0.0,0.0,0.0,0.0,0.0,0.0,0.0,0.0,0.0,0.0,0.0,0.0,0.0,0.0,0.0,0.0,0.0,0.0,0.0,0.0,0.0,0.0,0.0,0.0,0.0,0.0,0.0,0.0,0.0,0.0,0.0,0.0,0.0,0.0,0.0,0.0,0.0,0.0,0.0,0.0,0.0,0.0,0.0,0.0,0.0,0.0,0.0,0.0,0.0,0.0,0.0,0.0,0.0,0.0,0.0,0.0,0.0,0.0,0.0,0.0,0.0,0.0,0.0,0.0,0.0,0.0,0.0,0.0,0.0,0.0,0.0,0.0,0.0,0.0,0.0,0.0,0.0,0.0,0.0,0.0,0.0,0.0,0.0,0.0,0.0,0.0,0.0,0.0,0.0,0.0,0.0,0.0,0.0,0.0,0.0,0.0,0.0,0.0,0.0,0.0,0.0,0.0,0.0,0.0,0.0,0.0,0.0,0.0,0.0,0.0,0.0,0.0,0.0,0.0,0.0,0.0,0.0,0.0,0.0,0.0,0.0,0.0,0.0,0.0,0.0,0.0,0.0,0.0,0.0,0.0,0.0,0.0,0.0,0.0,0.0,0.0,0.0,0.0,0.0,0.0,0.0,0.0,0.0,0.0,0.0,0.0,0.0,0.0,0.0,0.0,0.0,0.0,0.0,0.0,0.0,0.0,0.0,0.0,0.0,0.0,0.0,0.0,0.0,0.0,0.0,0.0,0.0,0.0,0.0,0.0,0.0,0.0,0.0,0.0,0.0,0.0,0.0,0.0,0.0,0.0,0.0,0.0,0.0,0.0,0.0,0.0,0.0,0.0,0.0,0.0,0.0,0.0,0.0,0.0,0.0,0.0,0.0,0.0,0.0,0.0,0.0,0.0,0.0,0.0,0.0,0.0,0.0,0.0,0.0,0.0,0.0,0.0,0.0,0.0,0.0,0.0,0.0,0.0,0.0,0.0,0.0,0.0,0.0,0.0,0.0,0.0,0.0,0.0,0.0,0.0,0.0,0.0,0.0,0.0,0.0,0.0,0.0,0.0,0.0,0.0,0.0,0.0,0.0,0.0,0.0,0.0,0.0,0.0,0.0,0.0,0.0,0.0,0.0,0.0,0.0,0.0,0.0,0.0,0.0,0.0,0.0,0.0,0.0,0.0,0.0,0.0,0.0,0.0,0.0,0.0,0.0,0.0,0.0,0.0,0.0,0.0,0.0,0.0,0.0,0.0,0.0,0.0,0.0,0.0,0.0,0.0,0.0,0.0,0.0,0.0,0.0,0.0,0.0,0.0,0.0,0.0,0.0,0.0,0.0,0.0,0.0,0.0,0.0,0.0,0.0,0.0,0.0,0.0,0.0,0.0,0.0,0.0,0.0,0.0,0.0,0.0,0.0,0.0,0.0,0.0,0.0,0.0,0.0,0.0,0.0,0.0,0.0,0.0,0.0,0.0,0.0,0.0,0.0,0.0,0.0,0.0,0.0,0.0,0.0,0.0,0.0,0.0,0.0,0.0,0.0,0.0,0.0,0.0,0.0,0.0,0.0,0.0,0.0,0.0,0.0,0.0,0.0,0.0,0.0,0.0,0.0,0.0,0.0,0.0,0.0,0.0,0.0,0.0,0.0,0.0,0.0,0.0,0.0,0.0,0.0,0.0,0.0,0.0,0.0,0.0,0.0,0.0,0.0,0.0,0.0,0.0,0.0,0.0,0.0,0.0,0.0,0.0,0.0,0.0,0.0,0.0,0.0,0.0,0.0,0.0,0.0,0.0,0.0,0.0,0.0,0.0,0.0,0.0,0.0,0.0,0.0,0.0,0.0,0.0,0.0,0.0,0.0,0.0,0.0,0.0,0.0,0.0,0.0,0.0,0.0,0.0,0.0,0.0,0.0,0.0,0.0,0.0,0.0,0.0,0.0,0.0,0.0,0.0,0.0,0.0,0.0,0.0,0.0,0.0,0.0,0.0,0.0,0.0,0.0,0.0,0.0,0.0,0.0,0.0,0.0,0.0,0.0,0.0,0.0,0.0,0.0,0.0,0.0,0.0,0.0,0.0,0.0,0.0,0.0,0.0,0.0,0.0,0.0,0.0,0.0,0.0,0.0,0.0,0.0,0.0,0.0,0.0,0.0,0.0,0.0,0.0,0.0,0.0,0.0,0.0,0.0,0.0,0.0,0.0,0.0,0.0,0.0,0.0,0.0,0.0,0.0,0.0,0.0,0.0,0.0,0.0,0.0,0.0,0.0,0.0,0.0,0.0,0.0,0.0,0.0,0.0,0.0,0.0,0.0,0.0,0.0,0.0,0.0,0.0,0.0,0.0,0.0,0.0,0.0,0.0,0.0,0.0,0.0,0.0,0.0,0.0,0.0,0.0,0.0,0.0,0.0,0.0,0.0,0.0,0.0,0.0,0.0,0.0,0.0,0.0,0.0,0.0,0.0,0.0,0.0,0.0,0.0,0.0,0.0,0.0,0.0,0.0,0.0,0.0,0.0,0.0,0.0,0.0,0.0,0.0,0.0,0.0,0.0,0.0,0.0,0.0,0.0,0.0,0.0,0.0,0.0,0.0,0.0,0.0,0.0,0.0,0.0,0.0,0.0,0.0,0.0,0.0,0.0,0.0,0.0,0.0,0.0,0.0,0.0,0.0,0.0,0.0,0.0,0.0,0.0,0.0,0.0,0.0,0.0,0.0,0.0,0.0,0.0,0.0,0.0,0.0,0.0,0.0,0.0,0.0,0.0,0.0,0.0,0.0,0.0,0.0,0.0,0.0,0.0,0.0,0.0,0.0,0.0,0.0,0.0,1.1505,0.0,0.0,0.0,0.0,0.0,0.0,0.0,0.0,0.0,0.0,0.0,0.0,0.0,0.0,0.0,0.0,0.0,0.0,0.0,0.0,0.0,0.0,0.0,0.0,1.2496,1.2917,1.3068,1.3084,1.3012,1.2861,0.0,0.0,0.0,0.0,0.0,1.3122,1.4034,1.459,1.472,1.589,1.6534,1.6635,1.6373,1.6166,1.5932,0.0,0.0,0.0,0.0,0.0,0.0,0.0,0.0,0.0,0.0,0.0,0.0,0.0,0.0,0.0,0.0,0.0,0.0,0.0,0.0,0.0,0.0,0.0,0.0,0.0,0.0,0.0,0.0,0.0,0.0,0.0,0.0,0.0,0.0,0.0,0.0,0.0,0.0,0.0,0.0,0.0,0.0,0.0,0.0,0.0,0.0,0.0,0.0,0.0,0.0,0.0,0.0,0.0,0.0,0.0,0.0,0.0,0.0,0.0,0.0,0.0,0.0,0.0,0.0,0.0,0.0,0.0,0.0,0.0,0.0,0.0,1.2105,0.0,0.0,0.0,0.0,0.0,0.0,0.0,0.0,0.0,0.0,0.0,0.0,0.0,0.0,0.0,0.0,0.0,0.0,0.0,0.0,0.0,1.1477,1.2087,1.2759,1.3313,1.3735,1.3711,1.3561,1.3282,1.3155,0.0,0.0,0.0,1.2983,1.343,1.4462,1.5174,1.5537,1.7427,1.8468,1.8624,1.8129,1.7877,1.7776,1.6981,0.0,0.0,0.0,0.0,0.0,0.0,0.0,0.0,0.0,0.0,0.0,0.0,0.0,0.0,0.0,0.0,0.0,0.0,0.0,0.0,0.0,0.0,0.0,0.0,0.0,0.0,0.0,0.0,0.0,0.0,0.0,0.0,0.0,0.0,0.0,0.0,0.0,0.0,0.0,0.0,0.0,0.0,0.0,0.0,0.0,0.0,0.0,0.0,0.0,0.0,0.0,0.0,0.0,0.0,0.0,0.0,0.0,0.0,0.0,0.0,0.0,0.0,0.0,1.5795,1.6057,1.6306,1.6306,1.6274,1.6088,1.458,1.3892,1.374,0.0,0.0,0.0,0.0,0.0,0.0,0.0,0.0,0.0,0.0,0.0,0.0,0.0,0.0,0.0,0.0,0.0,0.0,0.0,0.0,1.1518,1.2585,1.3078,1.3671,1.4407,1.422,1.4021,1.3982,1.3418,0.0,0.0,1.3269,1.3305,1.3172,1.4142,1.4964,1.5573,1.7342,1.8839,1.9943,1.9392,1.9802,2.0878,1.8566,1.8158,1.9119,0.0,0.0,0.0,0.0,0.0,0.0,0.0,0.0,0.0,0.0,0.0,0.0,0.0,0.0,0.0,0.0,0.0,0.0,0.0,0.0,0.0,0.0,0.0,0.0,0.0,0.0,0.0,0.0,0.0,0.0,0.0,0.0,0.0,0.0,0.0,0.0,0.0,0.0,0.0,0.0,0.0,1.3316,1.336,0.0,0.0,0.0,0.0,0.0,0.0,0.0,0.0,0.0,0.0,0.0,0.0,0.0,1.7035,1.7283,1.7603,1.7923,1.8293,1.8337,1.8381,1.8424,1.8424,1.8144,1.7618,1.7369,0.0,1.4716,1.3753,0.0,0.0,0.0,0.0,0.0,0.0,0.0,0.0,0.0,0.0,0.0,0.0,0.0,0.0,0.0,0.0,0.0,0.0,0.0,0.0,0.0,1.3723,1.4573,1.5327,1.5428,1.525,1.4809,1.4316,1.3766,1.3124,1.3396,1.3494,1.3362,1.4806,1.6413,1.8205,1.8412,1.9196,2.04,1.992,2.0327,2.1419,2.0578,2.0188,2.0038,1.8559,0.0,0.0,0.0,0.0,0.0,0.0,0.0,0.0,0.0,0.0,0.0,0.0,0.0,0.0,0.0,0.0,0.0,0.0,0.0,0.0,0.0,0.0,0.0,0.0,0.0,0.0,0.0,0.0,0.0,0.0,0.0,0.0,0.0,0.0,0.0,0.0,0.0,0.0,0.0,1.3543,1.4245,1.4062,1.4362,1.4311,0.0,0.0,0.0,0.0,0.0,0.0,0.0,0.0,0.0,1.7508,1.7933,1.8306,1.8635,1.8774,1.9016,1.9338,1.9338,1.9433,1.9601,1.9601,1.9362,1.8955,1.8828,1.8086,1.6884,1.5583,1.4617,1.3906,0.0,0.0,0.0,0.0,1.2378,1.2325,0.0,0.0,0.0,0.0,0.0,0.0,0.0,0.0,0.0,0.0,0.0,0.0,1.3422,1.4479,1.5418,1.6308,1.6369,1.6163,1.5738,1.5079,1.435,1.3672,1.36,1.3664,1.3854,1.5696,1.7706,1.986,1.9425,1.9683,2.0554,2.0256,2.0761,2.1852,2.2319,2.2015,2.1181,2.0324,1.9034,1.744,0.0,0.0,0.0,0.0,0.0,0.0,0.0,0.0,0.0,0.0,0.0,0.0,0.0,0.0,0.0,0.0,0.0,0.0,0.0,0.0,0.0,0.0,0.0,0.0,0.0,0.0,0.0,0.0,0.0,0.0,0.0,0.0,0.0,0.0,0.0,0.0,0.0,1.4587,1.5284,1.4889,1.5621,1.5716,0.0,0.0,0.0,0.0,0.0,0.0,1.7647,1.7786,1.8196,1.9016,1.9199,1.944,1.9769,1.9689,1.985,2.0252,2.0091,2.0135,2.0307,2.0307,2.0146,1.988,1.9697,1.9359,1.8819,1.7238,1.6116,1.5387,1.4779,1.4282,1.3886,1.4109,1.3918,1.3729,0.0,0.0,0.0,0.0,0.0,0.0,0.0,0.0,0.0,0.0,0.0,1.2777,1.4958,1.5228,1.5873,1.7318,1.6566,1.6258,1.6772,1.525,1.4566,1.507,1.4117,1.3902,1.4542,1.6636,1.8097,1.8864,1.9853,2.0371,2.0395,2.0702,2.172,2.3302,2.3331,2.3383,2.3408,2.2656,2.1766,2.0648,1.7946,0.0,0.0,0.0,0.0,0.0,0.0,0.0,0.0,0.0,0.0,0.0,0.0,0.0,0.0,0.0,0.0,0.0,0.0,0.0,0.0,0.0,0.0,0.0,0.0,0.0,0.0,0.0,0.0,0.0,0.0,0.0,0.0,0.0,0.0,0.0,0.0,0.0,0.0,1.5921,1.7216,0.0,0.0,0.0,0.0,1.7184,1.7801,1.8321,1.8694,1.9008,1.9397,1.9757,2.0303,2.0779,2.1108,2.0808,2.0969,2.1591,2.0969,2.0684,2.0698,2.0698,2.0475,2.0176,2.0161,2.0146,1.9975,1.8215,1.7302,1.6944,1.6327,1.5899,1.5676,1.569,1.5318,1.4872,0.0,0.0,0.0,0.0,0.0,0.9588,0.9588,0.9892,1.0258,1.0733,1.205,1.3352,1.4338,1.5732,1.6795,1.7305,1.7224,1.7146,1.7114,1.6049,1.5434,1.5576,1.5186,1.5578,1.6969,1.7954,1.8907,1.9836,2.021,2.0512,2.0734,2.0861,2.1202,2.1812,2.2512,2.3041,2.3467,2.3406,2.2853,2.1818,1.9665,1.8143,0.0,0.0,0.0,0.0,0.0,0.0,0.0,0.0,0.0,0.0,0.0,0.0,0.0,0.0,0.0,0.0,0.0,0.0,0.0,0.0,0.0,0.0,0.0,0.0,0.0,0.0,0.0,0.0,0.0,0.0,0.0,0.0,0.0,0.0,0.0,0.0,0.0,1.7165,1.8196,0.0,1.7545,1.805,1.8482,1.8577,1.8994,1.9564,2.0303,2.0457,2.0772,2.1306,2.1547,2.1715,2.1832,2.1723,2.1781,2.2008,2.1774,2.1554,2.135,2.135,2.1174,2.0859,2.0859,2.0742,2.046,1.9838,1.905,1.8174,1.7554,1.7152,1.6957,1.6957,1.6832,1.6625,0.0,0.0,0.0,0.0,0.9391,0.9588,0.9588,0.998,1.0463,1.1004,1.2584,1.3945,1.4746,1.6213,1.7252,1.7425,1.7589,1.7566,1.7377,1.6545,1.6099,1.6164,1.6221,1.6873,1.8271,1.8875,1.9574,2.0392,2.0512,2.0694,2.0925,2.0925,2.107,2.1471,2.2173,2.2921,2.3659,2.4077,2.3861,2.3049,2.1565,2.0301,1.9116,0.0,0.0,0.0,0.0,0.0,0.0,0.0,0.0,0.0,0.0,0.0,0.0,0.0,0.0,0.0,0.0,0.0,0.0,0.0,0.0,0.0,0.0,0.0,0.0,0.0,0.0,0.0,0.0,0.0,0.0,0.0,0.0,0.0,0.0,0.0,1.8306,1.8306,1.936,1.9791,1.903,1.955,1.9974,2.0084,2.0398,2.0859,2.1503,2.154,2.1737,2.2169,2.2184,2.2228,2.233,2.2235,2.2235,2.233,2.2228,2.2067,2.1862,2.1862,2.1686,2.1372,2.1372,2.1189,2.0874,2.0772,2.023,1.9423,1.8795,1.8311,1.8017,1.8017,1.7853,1.7633,0.0,0.0,0.0,0.8983,0.9318,0.9588,0.9588,1.017,1.0931,1.1865,1.3184,1.4643,1.6213,1.6712,1.7174,1.7743,1.7508,1.7426,1.766,1.6736,1.6405,1.6881,1.7191,1.766,1.8351,1.9368,2.0067,2.0408,2.0766,2.0933,2.0925,2.0925,2.1471,2.2476,2.2476,2.3061,2.407,2.4651,2.4758,2.4444,2.3598,2.2418,2.1052,0.0,0.0,0.0,0.0,0.0,0.0,0.0,0.0,0.0,0.0,0.0,0.0,0.0,0.0,0.0,0.0,0.0,0.0,0.0,0.0,0.0,0.0,0.0,0.0,0.0,0.0,0.0,0.0,0.0,0.0,0.0,0.0,0.0,1.8043,1.8742,1.9375,1.9382,2.0742,2.1342,2.0336,2.1445,2.2052,2.1737,2.2008,2.2184,2.2198,2.2198,2.2206,2.2213,2.2213,2.2345,2.2637,2.2352,2.2352,2.2637,2.2345,2.2206,2.2198,2.2198,2.2023,2.1715,2.1701,2.1518,2.1203,2.0874,2.0728,2.0662,2.0018,1.9374,1.8818,1.8811,1.8455,1.7882,0.0,0.0,0.8628,0.8628,0.9173,0.9588,0.9588,1.017,1.0887,1.1628,1.3433,1.4893,1.5613,1.6806,1.7523,1.7417,1.733,1.723,1.7141,1.6565,1.6425,1.6934,1.7961,1.8871,1.9521,2.0253,2.0678,2.0774,2.1079,2.1119,2.0925,2.0925,2.107,2.1326,2.1326,2.192,2.2961,2.3105,2.3825,2.4828,2.4362,2.3753,2.2967,0.0,0.0,0.0,0.0,0.0,0.0,0.0,0.0,0.0,0.0,0.0,0.0,0.0,0.0,0.0,0.0,0.0,0.0,0.0,0.0,0.0,0.0,0.0,0.0,0.0,0.0,0.0,0.0,0.0,0.0,0.0,0.0,2.0071,1.974,2.0825,2.137,2.0759,2.1489,2.1942,2.1672,2.1972,2.2147,2.2059,2.2132,2.2271,2.2491,2.2506,2.2608,2.2849,2.2857,2.2893,2.2974,2.2893,2.2893,2.2974,2.2893,2.2732,2.2506,2.2506,2.2337,2.2037,2.1796,2.1642,2.154,2.1211,2.094,2.0662,2.0018,1.9705,1.9522,1.9228,1.8884,1.8556,0.0,0.7913,0.8471,0.8606,0.9159,0.9588,0.9588,1.017,1.0916,1.1845,1.3587,1.5021,1.5745,1.6894,1.7479,1.7157,1.7501,1.7428,1.6749,1.6647,1.6802,1.7266,1.8516,1.9509,2.021,2.099,2.1417,2.1576,2.1934,2.1926,2.1576,2.1425,2.1282,2.1087,2.0937,2.1275,2.1878,2.2325,2.3327,2.4641,2.4673,2.4713,2.4592,2.3401,2.2501,2.1756,2.0834,2.0255,1.9893,1.9613,0.0,0.0,0.0,0.0,0.0,0.0,0.0,0.0,0.0,0.0,0.0,0.0,0.0,0.0,0.0,0.0,0.0,0.0,0.0,0.0,0.0,0.0,0.0,0.0,2.2584,2.2878,2.2936,2.2373,2.1919,2.1789,2.2132,2.2418,2.2557,2.2571,2.2571,2.2571,2.2571,2.2645,2.282,2.2828,2.2915,2.3106,2.3106,2.3106,2.3106,2.3106,2.3106,2.3106,2.3106,2.301,2.2828,2.2828,2.2659,0.0,2.2037,2.1825,2.1672,2.1342,2.1094,0.0,0.0,0.0,0.0,0.0,1.9155,1.8994,0.0,0.7944,0.8434,0.8739,0.9231,0.9588,0.9588,1.017,1.1055,1.2317,1.3623,1.4944,1.622,1.6857,1.7121,1.6917,1.7677,1.7721,1.6653,1.7024,1.745,1.7824,1.8946,1.9888,2.0522,2.1503,2.215,2.249,2.2847,2.2839,2.2537,2.2234,2.1862,2.1499,2.1103,2.098,2.1032,2.1945,2.292,2.3962,2.4487,2.5228,2.5865,2.5016,2.4416,2.3919,2.3039,2.2201,2.1497,2.1445,0.0,0.0,0.0,0.0,0.0,0.0,0.0,0.0,0.0,0.0,0.0,0.0,0.0,0.0,0.0,0.0,0.0,0.0,0.0,0.0,0.0,0.0,0.0,0.0,2.6161,2.6267,2.6272,2.3723,2.2022,2.2763,2.2835,2.2914,2.3076,2.3106,2.3106,2.3106,2.3106,2.3106,2.3106,0.0,0.0,0.0,0.0,2.3106,2.3106,2.3106,2.3106,2.3106,2.3106,2.3106,2.3106,2.3106,2.2952,2.2659,2.2359,2.2052,2.1723,2.1401,2.124,2.1181,2.0852,2.0333,1.9779,1.9492,1.9308,1.9279,0.0,0.8068,0.857,0.8632,0.9085,0.9439,0.9439,1.0088,1.1055,1.2317,1.3433,1.4567,1.5862,1.633,1.6675,1.6881,1.726,1.7523,1.753,1.7886,1.8216,1.8546,1.9553,2.0369,2.0971,2.1717,2.2235,2.2517,2.2868,2.2967,2.2903,2.2545,2.2347,2.2259,2.1579,2.1293,2.1278,2.1242,2.1818,2.2811,2.2941,2.437,2.6418,2.5823,2.5347,2.4902,2.4301,2.3991,2.3784,2.3463,2.2915,2.2325,2.1952,0.0,0.0,0.0,0.0,0.0,0.0,0.0,0.0,0.0,0.0,0.0,0.0,0.0,0.0,0.0,0.0,0.0,0.0,0.0,0.0,2.598,2.6445,2.6353,2.516,2.5243,2.514,2.4335,2.4436,2.4201,2.323,2.3106,2.3106,2.3106,2.3106,2.3106,2.3106,2.3106,0.0,2.3106,2.3106,2.3106,2.3106,2.3106,2.3106,2.3106,0.0,0.0,2.3106,2.3106,2.3076,2.2996,2.2674,2.2367,2.2067,2.1737,2.1445,2.1181,2.0852,2.0333,1.9808,1.9749,1.9558,1.9279,0.7913,0.831,0.8637,0.8788,0.9132,0.9387,0.9309,0.995,1.0811,1.1868,1.2842,1.3897,1.5141,1.5539,1.5813,1.5899,1.6191,1.6739,1.775,1.8116,1.8518,1.9016,1.9966,2.074,2.1406,2.2065,2.263,2.3025,2.3371,2.3541,2.3551,2.2975,2.275,2.272,2.2013,2.1608,2.1388,2.1206,2.1693,2.2476,2.2476,2.3633,2.5321,2.5149,2.5279,2.5471,2.4745,2.4497,2.4466,2.4281,2.3908,2.3494,2.3256,2.2397,2.128,0.0,0.0,0.0,0.0,0.0,0.0,0.0,0.0,0.0,0.0,0.0,0.0,0.0,0.0,2.5458,0.0,0.0,2.7743,2.798,2.8298,2.8296,2.7517,2.755,2.702,2.5105,2.5029,2.4826,2.4154,2.3472,2.3106,2.3106,2.3106,2.3106,2.3106,2.3106,2.3106,2.3106,2.3106,2.3106,2.3106,2.3106,2.3106,2.3106,2.3106,2.3106,2.3106,2.3106,2.3106,2.3091,2.2762,2.2535,2.2367,2.1891,2.1503,2.1196,2.1035,2.0669,2.0201,1.9933,1.9713,1.9551,0.8404,0.8558,0.8702,0.8915,0.9159,0.9304,0.9235,0.9827,1.0546,1.1395,1.2221,1.3128,1.4198,1.4567,1.4799,1.4995,1.5403,1.633,1.7808,1.8394,1.8913,1.944,2.0333,2.1112,2.1797,2.2312,2.2947,2.3574,2.3847,2.3994,2.4012,2.3348,2.2998,2.2916,2.2269,2.1802,2.1534,2.1452,2.1742,2.2274,2.2207,2.2767,2.3699,2.3692,2.4477,2.5491,2.4648,2.4378,2.4383,2.4466,2.4113,2.3669,2.3939,2.3299,2.2347,2.168,2.1124,0.0,0.0,0.0,0.0,0.0,0.0,0.0,0.0,0.0,2.424,2.5106,2.6351,2.7524,2.8389,2.8766,2.9232,3.0077,3.032,3.0282,3.0016,2.9549,2.8444,2.6095,2.5615,2.5378,2.5133,2.4092,2.3479,2.3479,2.323,2.3106,2.3106,2.3106,2.3106,2.3106,2.3106,2.3106,2.3106,2.3106,2.3106,2.3106,2.3106,2.3106,2.3106,2.3106,2.3106,2.3091,2.2762,2.2623,2.2571,2.1957,2.154,2.1298,2.1233,2.105,2.075,2.0164,1.9925,1.9779,0.0,0.8758,0.8791,0.8824,0.8936,0.9124,0.933,0.9798,1.0464,1.1388,1.185,1.2438,1.3242,1.3386,1.3921,1.5236,1.6184,1.7135,1.8182,1.936,1.9993,2.0128,2.0786,2.1445,2.2119,2.2207,2.2711,2.3613,2.3651,2.3686,2.3657,2.3297,2.2946,2.2651,2.2178,2.1962,2.1884,2.1551,2.1425,2.1518,2.1198,2.1527,2.2166,2.1791,2.2793,2.4428,2.4028,2.3911,2.4012,2.4363,2.3657,2.2784,2.4024,2.3493,2.2468,2.2848,0.0,2.1538,2.1021,2.0917,2.1352,2.3008,2.3494,2.4198,0.0,0.0,2.7112,2.7976,2.8938,2.9663,2.9766,3.05,3.1045,3.1019,3.097,3.0551,2.9223,2.9992,3.0147,2.8623,2.7486,2.6346,2.5194,2.4949,2.4887,2.4887,2.3783,2.3106,2.3106,2.3106,2.3106,2.3106,2.3106,2.3106,2.3106,2.3106,2.3106,2.3106,2.3106,2.3106,2.3106,2.3106,2.3106,2.3091,2.2762,2.2623,2.2571,2.1957,2.1679,2.1613,2.132,2.1189,2.1115,2.075,2.0252,1.9808,0.0,0.8804,0.8804,0.8804,0.8903,0.9058,0.9247,0.9684,1.0223,1.0903,1.1226,1.1641,1.2242,1.2543,1.3014,1.387,1.5233,1.6389,1.725,1.8979,2.004,2.0176,2.0859,2.1423,2.1891,2.1898,2.2178,2.2815,2.2815,2.2862,2.3067,2.2683,2.2523,2.2597,2.223,2.1956,2.1733,2.1364,2.1207,2.1162,2.0809,2.0804,2.109,2.1244,2.1857,2.2687,2.2925,2.2978,0.0,0.0,2.2591,2.2212,2.2787,2.2413,2.1853,2.2592,2.2511,0.0,2.2625,2.2915,2.3319,0.0,2.5264,2.619,2.7282,2.78,2.8235,2.8876,2.9746,3.0481,3.075,3.121,3.1564,0.0,3.1449,3.0991,3.0392,2.9753,2.9184,2.8639,2.8111,2.737,2.633,2.4826,2.3969,2.3969,2.3417,2.3106,2.3106,2.3106,2.3106,2.3106,2.3106,2.3106,2.3106,2.3106,2.3106,2.3106,2.3106,2.3106,2.3106,2.3106,2.3106,2.3098,2.2959,2.2798,2.2601,2.2337,2.2023,2.1686,2.1547,2.1379,2.1167,2.0845,2.0552,2.0296,0.0,0.8804,0.8804,0.8804,0.8883,0.9031,0.9305,0.9625,1.0035,1.0544,1.0774,1.1021,1.1396,1.1757,1.2215,1.2819,1.4191,1.5474,1.6595,1.8411,1.9628,2.0091,2.0728,2.1233,2.1554,2.165,2.1854,2.2184,2.2184,2.2312,2.2438,2.2149,2.2043,2.2186,2.2051,2.1812,2.1471,2.1191,2.1018,2.0831,2.0398,2.0163,2.0103,2.0416,2.0538,2.0686,2.195,2.2343,0.0,0.0,2.1697,2.1525,2.1778,2.1628,2.1548,2.2582,2.2967,2.3205,2.3877,2.4478,0.0,2.5647,2.6724,2.7665,2.7838,2.8431,2.9094,2.9425,3.0129,3.0791,3.1122,3.1474,3.1799,3.206,3.1822,3.1556,3.1441,3.0055,2.9028,2.898,2.8522,2.8024,2.7423,2.5725,2.4687,2.4687,2.4023,2.3658,2.3658,2.3293,2.3106,2.3106,2.3106,2.3106,2.3106,2.3106,2.3106,2.3106,2.3106,2.3106,2.3106,2.3106,2.3106,2.3106,2.3106,2.2974,2.2747,2.2659,2.2308,2.1825,2.173,2.1496,2.1181,2.0947,2.0801,2.0691,0.0,0.0,0.8804,0.8804,0.8804,0.9005,0.9579,0.9708,0.9923,1.0512,1.06,1.067,1.0803,1.1024,1.1595,1.2705,1.3509,1.4791,1.6755,1.794,1.8897,1.9747,2.0391,2.0889,2.1218,2.1533,2.1854,2.2184,2.2184,2.2023,2.1708,2.1701,2.1525,2.1283,2.1554,2.1538,2.12,2.1137,2.0903,2.0529,1.988,1.9422,1.9089,1.8722,1.8332,1.8393,2.1321,0.0,0.0,2.1811,2.1187,2.0596,2.1533,2.1739,0.0,2.3432,2.4136,2.4445,2.4466,0.0,2.6061,2.7019,2.7893,2.869,2.9145,2.9611,2.9953,2.9973,3.0356,3.0688,3.0708,3.1433,3.1932,3.1651,3.1962,3.2143,3.1845,3.1348,3.0897,3.069,2.9136,2.8179,0.0,2.8514,2.8733,2.8733,2.6459,2.501,2.501,2.3783,2.3106,2.3106,2.3106,2.3106,2.3106,2.3106,2.3106,2.3106,2.3106,2.3106,2.3106,2.3106,2.3106,2.3106,2.3106,2.3106,2.3069,2.2754,2.244,2.214,2.1818,2.1496,2.1211,2.1196,2.0998,2.072,0.0,0.0,0.0,0.9352,0.9385,0.9519,0.9913,0.9806,0.9826,1.0214,1.0472,0.0,0.0,0.0,0.0,0.0,1.3021,1.4205,1.5262,1.7023,1.8187,1.8564,1.957,2.0135,2.0252,2.0567,2.0779,2.0896,2.0896,2.0837,2.0728,2.0728,2.0613,2.0567,2.067,2.0612,2.0541,2.0325,2.0405,2.052,1.97,1.9378,1.946,1.9471,1.9216,1.899,0.0,0.0,2.0013,2.007,1.9883,1.9709,2.0341,0.0,0.0,2.2398,2.2939,2.3269,2.4961,0.0,2.6044,2.7729,2.8046,2.8244,2.9497,2.9274,2.8968,2.9435,2.9911,3.0129,2.9829,3.0522,3.1192,3.1436,3.1681,3.1844,3.1805,3.1244,3.0737,3.0443,2.9831,0.0,0.0,0.0,0.0,2.7649,2.6831,2.6346,2.6346,2.5133,2.4456,2.4456,2.3534,2.3106,2.3106,2.3106,2.3106,2.3106,2.3106,2.3106,2.3106,2.3106,2.3106,2.3106,2.3106,2.3106,2.3098,2.2988,2.2645,2.2169,2.2059,2.1686,2.1211,2.1211,2.1137,2.105,0.0,0.0,0.0,0.0,0.0,0.0,0.0,0.0,0.0,0.0,0.0,0.0,0.0,0.0,0.0,0.0,0.0,1.3432,1.4233,1.5828,1.6943,1.7332,1.8303,1.8855,1.8971,1.922,1.9484,1.9718,1.9718,1.9777,1.9894,1.9894,1.9894,1.9894,1.9894,1.9828,1.9703,1.9499,1.9567,1.9724,1.8857,1.8607,1.8761,1.8556,1.8333,0.0,0.0,0.0,1.8179,1.8627,1.8968,1.9287,1.9707,1.9972,2.04,2.197,2.2658,2.3393,2.549,2.604,2.6397,2.8035,2.8147,2.8111,2.9104,2.8981,2.8687,2.8993,2.9166,2.9166,2.8866,2.9301,3.0015,3.0977,3.1196,3.1482,3.2031,3.1586,3.1077,3.0717,3.0465,3.0322,0.0,0.0,0.0,2.8376,2.7975,2.7667,2.7667,2.6468,2.5806,2.5806,2.4517,2.3783,2.3783,2.3355,2.3106,2.3106,2.3106,2.3106,2.3106,2.3106,2.3106,2.3106,2.3106,2.3106,2.3106,2.3106,2.274,2.2184,2.2184,2.1789,2.1211,2.1211,2.1211,2.1211,0.0,0.0,0.0,0.0,0.0,0.0,0.0,0.0,0.0,0.0,0.0,0.0,0.0,0.0,0.0,0.0,0.0,0.0,1.3747,1.4462,1.5223,1.6053,1.665,1.7072,1.7428,1.7642,1.8094,1.8716,1.8716,1.8877,1.9177,1.9177,1.9177,1.9177,1.9177,1.9001,1.8716,1.8716,1.854,1.8245,1.7585,1.7321,1.7228,1.6176,0.0,0.0,0.0,0.0,1.6558,1.7653,1.8568,0.0,0.0,0.0,2.1787,2.221,2.3334,2.4736,2.5976,2.6588,2.7104,2.7965,2.8169,2.8169,2.8247,2.8729,2.9023,2.8638,2.8152,2.781,0.0,0.0,2.8483,3.0284,3.0657,3.1195,3.2483,3.2297,3.1896,0.0,0.0,0.0,0.0,0.0,0.0,3.0859,0.0,2.8979,2.8979,2.7796,2.7073,2.7073,2.5859,2.5194,2.5071,2.3783,2.3106,2.3106,2.3106,2.3106,2.3106,2.3106,2.3106,2.3106,2.3106,2.3106,2.3106,2.3106,2.2747,2.2206,2.2191,2.1796,2.1233,2.1218,2.1211,2.1211,0.0,0.0,0.0,0.0,0.0,0.0,0.0,0.0,0.0,0.0,0.0,0.0,0.0,0.0,0.0,0.0,0.0,0.0,1.3049,1.3756,1.4267,1.4566,1.5541,1.6223,1.6445,1.6951,1.7355,1.7699,1.7699,1.7743,1.7823,1.7823,1.7823,1.7823,1.7823,1.7779,1.7699,1.7699,1.7988,1.8364,0.0,1.7788,1.8117,0.0,0.0,0.0,0.0,1.6393,1.7903,0.0,0.0,0.0,0.0,2.0727,2.159,2.2308,0.0,2.4223,2.5159,2.6024,2.6877,2.7951,2.7571,2.727,2.8689,2.8215,2.7522,2.7613,2.6962,2.6299,0.0,0.0,0.0,2.8959,3.0305,0.0,3.2287,3.2099,0.0,3.1387,0.0,3.0827,3.0829,3.0935,0.0,0.0,3.0577,3.0401,3.0401,2.9116,2.8444,2.8444,2.7185,2.6042,2.5133,2.3783,2.3106,2.3106,2.3106,2.3106,2.3106,2.3106,2.3106,2.3106,2.3106,2.3106,2.3106,2.3106,2.2871,2.2484,2.2264,2.1935,2.154,2.1298,2.1211,2.1211,0.0,0.0,0.0,0.0,0.0,0.0,0.0,0.0,0.0,0.0,0.0,0.0,0.0,0.0,0.0,0.0,0.0,0.0,0.0,1.3438,1.3885,1.3583,1.4377,1.5095,1.5693,1.5813,1.6191,1.679,1.6551,1.6454,1.6454,1.6454,1.6454,1.6454,1.6454,1.6454,1.6454,1.6454,1.6928,0.0,0.0,0.0,0.0,0.0,0.0,0.0,1.5522,1.6328,1.7878,0.0,0.0,2.0132,2.0316,2.0931,2.1755,2.2844,0.0,2.4197,2.5796,2.6013,2.6009,2.7194,2.6847,2.6354,2.7023,2.6963,2.6655,2.6151,2.5502,0.0,2.4685,0.0,0.0,0.0,0.0,0.0,3.2004,3.2193,3.2143,0.0,3.1576,0.0,3.1286,3.116,3.1112,0.0,3.1054,3.0995,3.0898,3.0216,2.9785,2.9785,2.8513,2.7246,2.592,2.4641,2.3969,2.3969,2.3355,2.3106,2.3106,2.3106,2.3106,2.3106,0.0,2.3106,2.3106,2.3106,2.2915,2.2593,2.2301,2.1986,2.1657,2.1328,2.1211,2.1211,0.0,0.0,0.0,0.0,0.0,0.0,0.0,0.0,0.0,0.0,0.0,0.0,0.0,0.0,0.0,0.0,0.0,0.0,0.0,0.0,1.3954,1.3171,1.3584,1.4267,1.5134,1.4894,1.5209,1.6197,1.5675,1.5415,1.5415,1.534,1.5258,1.5258,1.5381,1.5415,1.5415,1.5539,1.5986,1.6589,1.6364,0.0,0.0,0.0,0.0,0.0,1.6031,1.6442,1.7056,1.8346,1.9582,2.0597,2.0628,2.1132,2.2045,2.3509,2.3849,2.4316,2.6927,2.6378,2.5331,2.65,2.6341,2.564,2.5034,2.5624,2.5955,2.4683,0.0,2.3691,2.3691,2.4157,2.5199,2.7396,0.0,2.9942,3.1729,3.2328,3.2607,3.2659,3.2143,3.1787,3.1787,3.1344,3.1112,3.1325,3.1383,3.1276,3.1005,3.0947,3.0889,3.0889,2.9599,2.8385,2.7254,2.5981,2.5378,2.5317,2.4031,2.3355,2.3355,2.3168,2.3106,2.3106,0.0,0.0,2.3106,2.3106,2.2945,2.2652,2.2315,2.2008,2.1715,2.135,2.1211,2.1211,0.0,0.0,0.0,0.0,0.0,0.0,0.0,0.0,0.0,0.0,1.1623,1.1443,0.0,0.0,0.0,0.0,0.0,0.0,0.0,0.0,0.0,1.3835,1.4746,1.5141,1.4877,1.5659,1.6226,1.6598,1.5894,1.5576,1.5537,1.4934,1.468,1.4673,1.5272,1.5576,1.5615,1.6236,1.6779,1.7221,0.0,0.0,0.0,0.0,0.0,0.0,1.6905,1.6657,1.6454,1.8453,1.9538,2.0143,2.0674,2.1322,2.2221,2.374,2.4151,2.4564,2.6683,2.6747,2.6573,2.8119,2.721,2.6091,2.6673,2.5704,0.0,0.0,2.3318,2.2739,2.2739,2.3722,2.4993,2.6558,2.8214,2.9942,0.0,0.0,3.1943,0.0,0.0,0.0,0.0,0.0,0.0,0.0,0.0,3.1672,3.1682,3.117,3.0889,3.0889,2.9599,2.8801,2.8564,2.7315,2.665,2.665,2.5378,2.4764,2.4702,2.3596,2.3106,2.3106,2.3106,0.0,2.3106,2.3106,2.3076,2.2967,2.2403,2.2147,2.2023,2.143,2.1211,2.1211,0.0,0.0,0.0,0.0,0.0,0.0,0.0,1.3332,1.3958,1.4486,1.4395,1.3835,1.2506,1.2228,1.2333,0.0,0.0,0.0,0.0,0.0,0.0,0.0,1.5336,1.5743,1.5886,0.0,0.0,0.0,0.0,0.0,0.0,0.0,0.0,0.0,0.0,0.0,0.0,0.0,0.0,0.0,0.0,0.0,0.0,0.0,0.0,0.0,0.0,1.7681,1.744,1.8742,1.9597,2.0183,2.074,2.1401,2.229,2.3761,2.3762,2.3876,2.6433,2.6361,2.5998,2.7547,2.6981,2.6028,2.5752,0.0,0.0,0.0,2.2449,2.2139,2.2139,2.307,0.0,2.5326,2.6848,2.8607,3.0677,0.0,0.0,0.0,0.0,0.0,0.0,0.0,0.0,0.0,0.0,3.1787,3.1787,3.1334,3.1112,3.1112,3.049,3.0128,3.0128,2.8861,2.8256,2.8256,2.6762,2.6103,2.6042,2.4764,2.4154,2.4154,2.4154,0.0,2.4154,2.4154,2.4154,2.4047,2.283,2.2315,2.2125,2.1642,2.1357,2.1211,0.0,0.0,0.0,0.0,0.0,0.0,0.0,1.4852,1.5651,1.6636,1.7245,1.6596,1.3967,1.3337,1.3314,0.0,0.0,0.0,0.0,0.0,0.0,0.0,0.0,1.6411,0.0,0.0,0.0,0.0,0.0,0.0,0.0,0.0,0.0,0.0,0.0,0.0,0.0,0.0,0.0,0.0,0.0,0.0,0.0,0.0,0.0,0.0,0.0,1.8563,1.8448,1.8974,1.954,2.0163,2.0679,2.1301,2.2162,2.355,2.3273,2.3161,2.6113,2.6095,2.552,2.705,2.6836,2.5977,2.4837,2.4045,0.0,0.0,2.1807,2.1807,2.1807,2.248,2.337,0.0,2.5595,2.7268,2.9528,0.0,0.0,0.0,0.0,0.0,0.0,0.0,0.0,0.0,0.0,0.0,3.1787,3.1614,3.1441,3.1325,3.1383,3.1383,3.1325,3.0353,2.9914,2.9914,2.8256,2.7486,2.7486,2.6103,2.5501,2.5501,2.5501,0.0,0.0,2.5493,2.5378,2.497,2.3513,2.2615,2.2132,2.1737,2.143,2.1211,0.0,0.0,0.0,0.0,0.0,0.0,0.0,1.5727,1.6983,1.7226,1.8515,1.8716,1.6806,1.61,1.5479,0.0,0.0,0.0,0.0,0.0,0.0,0.0,0.0,0.0,0.0,0.0,0.0,0.0,0.0,0.0,0.0,0.0,0.0,0.0,0.0,0.0,0.0,0.0,0.0,0.0,0.0,0.0,0.0,0.0,0.0,0.0,0.0,0.0,0.0,0.0,0.0,1.9444,2.0281,2.095,2.1707,2.2953,0.0,0.0,2.5964,2.6536,2.6745,2.8324,2.7545,2.6251,2.5819,0.0,0.0,2.1894,2.1807,2.1807,2.1807,2.2221,2.2998,2.428,2.5326,2.6744,2.9042,0.0,0.0,0.0,0.0,0.0,0.0,0.0,0.0,0.0,0.0,0.0,3.1845,3.2076,3.1903,3.1325,3.1614,3.1614,3.1325,3.1498,3.1604,3.1546,2.9924,2.9207,2.9148,2.7547,2.6831,2.6831,2.6831,0.0,0.0,2.6823,2.6164,2.5,2.4265,2.3242,2.2103,2.1489,2.1233,2.1211,0.0,0.0,0.0,0.0,0.0,0.0,1.5939,1.6643,1.7623,1.9354,1.9947,1.9955,1.9359,1.8625,1.7491,1.5723,0.0,0.0,0.0,0.0,0.0,0.0,0.0,0.0,0.0,0.0,0.0,0.0,0.0,0.0,0.0,0.0,0.0,0.0,0.0,0.0,0.0,0.0,0.0,0.0,0.0,0.0,0.0,0.0,0.0,0.0,0.0,0.0,0.0,0.0,0.0,0.0,1.9642,2.0166,0.0,0.0,2.2972,2.3858,2.4327,2.5461,2.6626,2.7184,2.6578,2.5809,2.5521,0.0,2.2635,2.1948,2.1807,2.1807,2.1807,2.1952,2.2356,2.3174,2.3608,2.4633,2.692,0.0,0.0,0.0,0.0,0.0,0.0,0.0,0.0,0.0,0.0,0.0,3.2326,3.2315,3.219,3.1903,3.2018,3.2018,3.1903,3.2018,3.2076,3.2076,3.1247,3.0772,3.048,2.9098,2.8316,2.8146,2.8146,0.0,0.0,2.8146,2.7838,2.7185,2.5174,2.3976,2.3217,2.1956,2.1379,2.1211,0.0,0.0,0.0,0.0,0.0,1.5111,1.6872,1.7211,1.8064,2.0375,2.0624,2.0652,2.0791,1.9921,1.8702,1.7117,1.6599,0.0,0.0,0.0,0.0,0.0,0.0,0.0,0.0,0.0,0.0,0.0,0.0,0.0,0.0,0.0,0.0,0.0,0.0,0.0,0.0,0.0,0.0,0.0,0.0,0.0,0.0,0.0,0.0,0.0,0.0,0.0,0.0,0.0,0.0,0.0,0.0,2.0145,2.1078,0.0,2.2881,2.4101,2.3426,2.468,2.6186,2.64,2.5892,2.5338,0.0,2.4167,2.2925,2.1994,2.1807,2.1807,2.1807,2.1807,2.1952,2.2418,2.2729,2.3598,2.564,2.6506,0.0,0.0,0.0,0.0,0.0,0.0,0.0,0.0,0.0,0.0,0.0,3.2487,3.2373,3.2305,3.2373,3.2373,3.2305,3.2373,3.243,3.243,3.2076,3.1845,3.1556,3.047,2.9816,2.958,0.0,0.0,0.0,2.953,2.9344,2.8797,2.6456,2.4931,2.3959,2.2945,2.2242,2.1759,0.0,0.0,0.0,0.0,0.0,0.0,1.6147,1.7304,1.845,1.9474,2.0363,2.0884,2.0895,1.9583,1.8862,1.9241,1.7992,0.0,0.0,0.0,0.0,0.0,0.0,0.0,0.0,0.0,1.9902,1.9902,2.038,0.0,0.0,0.0,0.0,0.0,0.0,0.0,0.0,0.0,0.0,0.0,0.0,0.0,0.0,0.0,0.0,0.0,0.0,0.0,0.0,0.0,0.0,0.0,0.0,2.128,2.209,2.1618,2.238,2.3408,2.3808,2.4601,2.5576,2.6647,2.5947,2.5058,2.5163,2.4167,2.2925,2.1994,2.1807,2.1807,2.1807,2.1807,2.1952,2.2418,2.3267,2.4375,2.5689,2.7055,0.0,0.0,0.0,0.0,0.0,0.0,0.0,0.0,0.0,0.0,0.0,3.2669,3.2555,3.2315,3.2555,3.2555,3.2305,3.2555,3.2669,3.2669,3.243,3.2305,3.2248,3.1614,3.1267,0.0,0.0,0.0,0.0,3.0995,3.0314,2.93,2.8212,2.6278,2.4162,2.4505,2.3958,2.3143,0.0,0.0,0.0,0.0,0.0,0.0,0.0,1.6211,1.6989,1.8405,1.8801,1.924,1.9953,1.8984,1.8508,1.9041,1.8191,0.0,0.0,0.0,0.0,0.0,0.0,0.0,0.0,0.0,2.0508,2.0781,2.0957,2.0908,2.0771,0.0,0.0,0.0,0.0,0.0,0.0,0.0,0.0,0.0,0.0,0.0,0.0,0.0,0.0,0.0,0.0,0.0,0.0,0.0,0.0,0.0,0.0,0.0,0.0,2.1232,2.2852,0.0,2.2916,2.3734,2.4918,2.4629,2.4009,2.354,2.378,2.3256,2.2542,2.1932,2.1807,2.1807,2.1807,2.1807,2.2066,2.2842,2.3215,2.3877,0.0,0.0,0.0,0.0,0.0,0.0,0.0,0.0,0.0,0.0,0.0,0.0,0.0,3.2669,3.2669,3.2555,3.2669,3.2669,3.2555,3.2669,3.2669,3.2669,3.2612,3.2487,3.2305,3.2076,0.0,0.0,0.0,0.0,0.0,3.1218,3.0976,3.0577,2.9013,2.7814,2.6786,2.5716,2.4948,2.4578,0.0,0.0,0.0,0.0,0.0,0.0,0.0,1.5588,1.6199,1.7593,1.7769,1.8212,1.9417,1.8601,1.8369,1.9285,1.8686,0.0,0.0,0.0,0.0,0.0,0.0,0.0,0.0,2.038,2.0869,2.1444,2.1444,2.1522,2.1668,2.1435,2.0889,0.0,0.0,0.0,0.0,0.0,0.0,0.0,0.0,0.0,0.0,0.0,0.0,0.0,0.0,0.0,0.0,0.0,0.0,0.0,0.0,0.0,0.0,0.0,2.2152,2.3493,2.2621,2.3239,2.4098,2.393,2.3237,2.2728,2.3094,2.2832,2.2366,2.1901,2.1807,2.1807,2.1807,2.1807,2.1994,2.2573,2.2956,2.3608,0.0,0.0,0.0,0.0,0.0,0.0,0.0,0.0,0.0,0.0,0.0,0.0,0.0,3.2669,3.2669,3.2669,3.2669,3.2669,3.2669,3.2669,3.2669,3.2669,3.2669,3.2612,3.243,3.2373,0.0,0.0,0.0,0.0,0.0,3.1556,3.1456,3.1294,2.9937,2.8866,2.8005,2.7212,2.6535,2.6063,0.0,0.0,0.0,0.0,0.0,0.0,0.0,1.5395,1.5992,1.698,1.7111,1.7673,1.9089,1.8356,1.8321,1.9762,0.0,0.0,0.0,0.0,0.0,0.0,0.0,0.0,1.9951,2.0391,2.1075,2.1885,2.1953,2.2178,2.2559,2.2588,2.1904,2.0693,2.0693,0.0,0.0,0.0,0.0,0.0,0.0,0.0,0.0,0.0,0.0,0.0,0.0,0.0,0.0,0.0,0.0,0.0,0.0,0.0,0.0,0.0,0.0,0.0,0.0,2.2915,2.3097,2.3995,2.3185,2.2306,2.2879,2.2656,0.0,2.1838,2.1756,2.1776,2.1849,2.1828,2.1849,2.1983,2.2718,0.0,0.0,0.0,0.0,0.0,0.0,0.0,0.0,0.0,0.0,0.0,0.0,0.0,0.0,3.2669,3.2669,3.2669,3.2669,3.2669,3.2669,3.2669,3.2669,3.2669,3.2669,3.2669,3.2669,3.243,0.0,0.0,0.0,0.0,0.0,3.193,3.1724,3.1523,3.0777,2.9544,2.8227,2.891,2.8475,2.7663,0.0,0.0,0.0,0.0,0.0,0.0,0.0,0.0,0.0,0.0,1.6315,1.6807,1.7645,1.7497,1.7795,0.0,0.0,0.0,0.0,0.0,0.0,0.0,0.0,0.0,2.0449,2.085,2.1348,2.1885,2.2582,2.2953,2.3061,2.334,2.2803,2.1572,2.1572,2.1124,0.0,0.0,0.0,0.0,0.0,0.0,0.0,0.0,0.0,0.0,0.0,0.0,0.0,0.0,0.0,0.0,0.0,0.0,0.0,0.0,2.0031,2.0187,2.0508,0.0,2.1512,2.1401,2.1114,2.089,0.0,2.0953,2.0943,2.1228,2.128,2.1487,2.2201,2.2045,2.2263,2.3629,2.4042,2.4664,0.0,0.0,0.0,0.0,0.0,0.0,0.0,0.0,0.0,0.0,0.0,0.0,0.0,3.2669,3.2669,3.2669,3.2669,3.2669,3.2669,3.2669,3.2669,3.2669,3.2669,3.2669,3.2669,3.2612,0.0,0.0,0.0,0.0,3.2285,3.1814,3.161,3.1549,3.0881,3.0286,2.9691,2.978,2.9501,2.9122,0.0,0.0,0.0,0.0,0.0,0.0,0.0,0.0,0.0,0.0,0.0,0.0,0.0,0.0,0.0,0.0,0.0,0.0,0.0,0.0,0.0,0.0,0.0,2.0029,2.0264,2.0869,2.1502,2.2168,2.2875,2.3403,2.374,2.3769,2.3213,2.2148,2.1543,2.1055,0.0,0.0,0.0,0.0,0.0,0.0,0.0,0.0,0.0,0.0,1.8315,1.8623,0.0,1.9219,1.9801,2.0396,0.0,0.0,0.0,0.0,1.9647,1.9482,1.9482,2.042,2.1373,2.1124,2.1062,2.1062,2.1062,2.0695,2.0457,2.0741,2.0969,2.1269,2.1766,2.2004,2.2522,0.0,2.4228,0.0,0.0,0.0,0.0,0.0,0.0,0.0,0.0,0.0,0.0,0.0,0.0,0.0,0.0,3.2669,3.2669,3.2669,3.2669,3.2669,3.2669,3.2669,3.2669,3.2669,3.2669,3.2669,3.2669,3.2669,3.2612,0.0,0.0,0.0,3.2159,3.1902,3.1562,3.1141,3.082,3.0446,3.0124,3.0035,2.9889,2.9774,0.0,0.0,0.0,0.0,0.0,0.0,0.0,0.0,0.0,0.0,0.0,0.0,0.0,0.0,0.0,0.0,0.0,0.0,0.0,0.0,0.0,0.0,0.0,2.0049,2.0117,2.081,2.158,2.2412,2.2988,2.3623,2.4316,2.4092,2.3457,2.2461,2.1221,2.0664,0.0,0.0,0.0,0.0,0.0,0.0,0.0,0.0,0.0,0.0,0.0,0.0,0.0,1.8994,1.9453,1.993,2.0222,0.0,0.0,0.0,0.0,0.0,1.9274,2.0514,2.1756,2.1549,2.16,2.1683,2.1611,2.0953,2.0405,2.0478,2.0808,2.1176,2.1393,2.2076,0.0,0.0,0.0,0.0,0.0,0.0,0.0,0.0,0.0,0.0,0.0,0.0,0.0,0.0,0.0,0.0,0.0,3.2669,3.2669,3.2669,3.2669,3.2669,3.2669,3.2669,3.2669,3.2669,3.2669,3.2669,3.2669,3.2669,3.2638,0.0,0.0,0.0,3.1874,3.1802,3.1381,3.0677,3.0605,3.0336,2.9994,2.9994,2.9994,2.9994,0.0,0.0,0.0,0.0,0.0,0.0,0.0,0.0,0.0,0.0,0.0,0.0,0.0,0.0,0.0,0.0,0.0,0.0,0.0,0.0,0.0,2.0507,2.0507,2.0644,2.0986,2.1122,2.1444,2.1982,2.3135,2.376,2.3896,2.456,2.4023,2.2471,2.1502,2.0918,2.0605,0.0,0.0,0.0,0.0,0.0,0.0,0.0,0.0,0.0,0.0,0.0,0.0,1.8301,1.8965,1.9832,1.9513,0.0,0.0,0.0,0.0,0.0,2.0006,2.099,2.1528,2.0394,2.0659,2.1087,2.0731,2.0488,2.0498,2.0928,2.1062,2.1476,2.2656,2.2987,2.3608,0.0,0.0,0.0,0.0,0.0,0.0,0.0,0.0,0.0,0.0,0.0,0.0,0.0,0.0,0.0,0.0,0.0,3.2669,3.2669,3.2669,3.2669,3.2669,3.2669,3.2669,3.2669,3.2669,3.2669,3.2669,3.2669,3.2463,0.0,0.0,3.1888,3.1443,3.106,3.0812,3.0646,3.0253,3.0056,2.9994,2.9994,2.9994,2.9994,0.0,0.0,0.0,0.0,0.0,0.0,0.0,0.0,0.0,0.0,0.0,0.0,0.0,0.0,0.0,0.0,0.0,0.0,0.0,0.0,0.0,2.0605,2.0605,2.0781,2.1181,2.1648,2.2256,2.291,2.3965,2.46,2.4834,2.4277,2.3359,2.2139,2.126,2.0762,2.0605,2.0605,0.0,0.0,0.0,0.0,0.0,0.0,0.0,0.0,0.0,0.0,0.0,0.0,1.8896,1.95,1.9157,0.0,0.0,0.0,0.0,0.0,1.9582,2.0545,2.128,2.0648,2.1373,2.218,2.1963,2.1528,2.1228,2.1445,2.1683,2.2056,2.2697,0.0,2.4592,2.6651,0.0,0.0,0.0,0.0,0.0,0.0,0.0,0.0,0.0,0.0,0.0,0.0,0.0,0.0,0.0,0.0,3.2669,3.2669,3.2669,3.2669,3.2669,3.2669,3.2669,3.2669,3.2669,3.2669,3.2669,3.2421,3.2184,3.1977,0.0,3.1422,3.0988,3.077,3.0543,3.0294,3.0077,2.9994,2.9994,2.9994,2.9994,2.9994,0.0,0.0,0.0,0.0,0.0,0.0,0.0,0.0,0.0,0.0,0.0,0.0,0.0,0.0,0.0,0.0,0.0,0.0,0.0,0.0,2.0498,2.0595,2.0605,2.082,2.1337,2.2031,2.2793,2.3643,2.4502,2.5088,2.5343,2.3857,2.2695,2.1855,2.1074,2.0703,2.0605,2.0605,2.0605,0.0,0.0,0.0,0.0,0.0,0.0,0.0,0.0,0.0,0.0,0.0,0.0,0.0,0.0,0.0,0.0,1.8975,1.8859,1.9015,1.9336,2.0079,2.0876,2.1197,2.2076,2.2946,2.3277,2.2718,2.219,2.2408,2.2822,2.3101,0.0,2.4188,0.0,2.7914,0.0,0.0,0.0,0.0,0.0,0.0,0.0,0.0,0.0,0.0,0.0,0.0,0.0,0.0,0.0,0.0,3.2669,3.2669,3.2566,3.2514,3.2514,3.2468,3.252,3.2669,3.2566,3.2514,3.2494,3.2095,3.1826,3.1702,3.136,3.0946,3.0522,3.0522,3.0315,2.9994,2.9994,2.9994,2.9994,2.9994,2.9994,2.9994,0.0,0.0,0.0,0.0,0.0,0.0,0.0,0.0,0.0,0.0,0.0,0.0,0.0,0.0,0.0,0.0,0.0,0.0,0.0,0.0,2.0137,2.0586,2.0605,2.1006,2.1816,2.1894,2.2353,2.3257,2.4053,2.4482,2.4492,2.3584,2.2748,2.1865,2.1396,2.0957,2.0605,2.0605,2.0605,2.0527,0.0,0.0,0.0,0.0,0.0,0.0,0.0,0.0,0.0,0.0,0.0,0.0,0.0,0.0,1.9173,1.8883,1.8633,1.8702,1.9975,2.01,2.0197,2.1435,2.1828,2.2242,2.3536,2.3443,2.3329,2.4125,2.4673,2.4859,0.0,2.5854,0.0,0.0,0.0,0.0,0.0,0.0,0.0,0.0,0.0,0.0,0.0,0.0,0.0,0.0,0.0,0.0,0.0,0.0,0.0,3.2669,3.2256,3.2039,3.2039,3.1681,3.1899,3.2669,3.2246,3.2039,3.2019,3.1629,3.1195,3.0781,3.075,3.047,3.0046,3.0046,3.0025,2.9994,2.9994,2.9994,2.9994,2.9994,2.9994,2.9994,0.0,0.0,0.0,0.0,0.0,0.0,0.0,0.0,0.0,0.0,0.0,0.0,0.0,0.0,0.0,0.0,0.0,0.0,0.0,1.9619,1.999,2.0156,2.042,2.085,2.1465,2.2266,2.3276,2.4392,2.4941,2.4904,2.4394,2.3281,2.2305,2.1465,2.1016,2.0723,2.0605,2.0605,2.0605,2.0527,1.9666,0.0,0.0,0.0,0.0,0.0,0.0,0.0,0.0,0.0,1.7549,1.8125,1.7497,1.8184,1.9072,1.8438,1.8322,1.8528,1.9013,1.9655,2.0369,2.1176,2.1807,2.2594,2.3981,2.4592,2.5119,2.6041,2.6372,2.6434,0.0,0.0,0.0,0.0,0.0,0.0,0.0,0.0,0.0,0.0,0.0,0.0,0.0,0.0,0.0,0.0,0.0,0.0,0.0,0.0,0.0,3.1899,3.1723,3.1629,3.1629,3.1464,3.1547,3.1888,3.1712,3.1629,3.1609,3.1153,3.0853,3.0667,3.0387,3.016,2.9994,2.9994,2.9994,2.9994,2.9994,2.9994,2.9994,2.9994,2.9994,2.9994,0.0,0.0,0.0,0.0,0.0,0.0,0.0,0.0,0.0,0.0,0.0,0.0,0.0,0.0,0.0,0.0,0.0,0.0,1.8588,1.9143,1.957,1.9707,2.0127,2.0566,2.1016,2.2295,2.3501,2.4509,2.4902,2.4746,2.3994,2.2852,2.2002,2.1416,2.0869,2.0683,2.0762,2.0517,2.04,2.0283,1.9424,1.9082,0.0,0.0,0.0,0.0,0.0,0.0,0.0,0.0,1.7002,1.7496,1.7048,1.777,1.867,1.8089,1.8226,1.8631,1.8631,1.9385,2.0358,2.0969,2.1921,2.3111,2.4623,2.544,2.6216,2.7486,2.7572,2.7562,2.79,0.0,0.0,0.0,0.0,0.0,0.0,0.0,0.0,0.0,0.0,0.0,0.0,0.0,0.0,0.0,0.0,0.0,0.0,0.0,0.0,0.0,3.1236,3.1153,3.1153,3.1008,3.0946,3.0946,3.0946,3.1019,3.1143,3.0677,3.047,3.045,3.0129,2.9994,2.9994,2.9994,2.9994,2.9994,2.9994,2.9994,2.9994,2.9994,2.9994,2.9994,0.0,0.0,0.0,0.0,0.0,0.0,0.0,0.0,0.0,0.0,0.0,0.0,0.0,0.0,0.0,0.0,0.0,0.0,1.8568,1.8598,1.8792,1.9268,1.9697,2.0117,2.0595,2.1836,2.2715,2.3218,2.3584,2.3564,2.3178,2.2285,2.1885,2.1836,2.0997,2.081,2.1122,2.0283,1.9912,1.9834,1.8939,1.8598,0.0,0.0,0.0,0.0,0.0,0.0,0.0,0.0,1.6357,1.6775,1.7236,1.7625,1.7898,1.7896,1.8461,1.9108,1.9088,1.944,2.0021,2.0897,2.217,2.3681,2.5482,2.5941,2.6413,2.8245,2.8255,2.8214,2.9135,2.8556,0.0,0.0,0.0,0.0,0.0,0.0,0.0,0.0,0.0,0.0,0.0,0.0,0.0,0.0,0.0,0.0,0.0,0.0,0.0,0.0,3.0915,3.0677,3.0677,3.0222,2.9994,2.9994,2.9994,3.0232,3.0667,3.0201,2.9994,2.9994,2.9994,2.9994,2.9994,2.9994,2.9994,2.9994,2.9994,2.9994,2.9994,2.9994,2.9994,2.9994,0.0,0.0,0.0,0.0,0.0,0.0,0.0,0.0,0.0,0.0,0.0,0.0,0.0,0.0,0.0,0.0,0.0,0.0,1.8184,1.8432,1.8792,1.9268,1.9697,2.0117,2.0595,2.126,2.2266,2.3603,2.3418,2.2969,2.2298,2.2002,2.1553,2.0997,2.1016,2.0762,2.0283,2.0019,1.9746,1.9424,1.8822,1.8598,0.0,0.0,0.0,0.0,0.0,0.0,0.0,0.0,0.0,0.0,1.6447,1.7263,1.8085,1.755,1.8119,1.8775,1.8277,1.9396,2.0855,2.1455,2.335,2.5388,2.6625,2.7096,2.7748,2.927,2.9218,2.898,2.9259,0.0,0.0,0.0,0.0,0.0,0.0,0.0,0.0,0.0,0.0,0.0,0.0,0.0,0.0,0.0,0.0,0.0,0.0,0.0,0.0,0.0,3.0274,3.0201,3.0201,3.0067,2.9994,2.9994,2.9994,3.0067,3.0191,3.0056,2.9994,2.9994,2.9994,2.9994,2.9994,2.9994,2.9994,2.9994,2.9994,2.9994,2.9994,2.9994,2.9994,2.9994,0.0,0.0,0.0,0.0,0.0,0.0,0.0,0.0,0.0,0.0,1.8008,1.8008,0.0,0.0,0.0,0.0,0.0,0.0,0.0,1.8217,1.8539,1.9014,1.9434,2.0029,2.081,2.1094,2.165,2.251,2.2422,2.2077,2.1621,2.1621,2.1435,2.1143,2.1377,2.1064,2.0372,2.0068,1.957,1.8994,1.8529,1.8354,1.8227,0.0,0.0,0.0,0.0,0.0,0.0,0.0,0.0,0.0,1.6036,1.6758,1.7489,1.7384,1.8183,1.9076,1.8959,2.0277,2.1859,2.2687,2.4395,2.6314,2.7786,2.8421,2.9032,3.0056,2.9901,2.9642,2.9818,0.0,0.0,0.0,0.0,0.0,0.0,0.0,0.0,0.0,0.0,0.0,0.0,0.0,0.0,0.0,0.0,0.0,0.0,0.0,0.0,0.0,2.9994,2.9994,2.9994,2.9994,2.9994,2.9994,2.9994,2.9994,2.9994,2.9994,2.9994,2.9994,2.9994,2.9994,2.9994,2.9994,2.9994,2.9973,2.9798,2.9715,2.9704,2.9508,2.9559,2.9694,0.0,0.0,0.0,0.0,0.0,0.0,0.0,0.0,0.0,0.0,1.8008,1.8008,0.0,0.0,0.0,0.0,0.0,0.0,0.0,0.0,1.8213,1.8637,1.915,1.9961,2.1112,2.1093,2.0908,2.0546,2.0957,2.1112,2.1073,2.1151,2.1445,2.1826,2.1826,2.1543,2.0956,2.0117,1.9212,1.8393,1.8013,1.7891,1.7803,1.695,0.0,0.0,0.0,0.0,0.0,0.0,0.0,0.0,1.5958,1.6215,1.6515,1.7278,1.8439,1.962,2.043,2.1573,2.2833,2.4166,2.5337,2.6693,2.8876,2.9694,3.0118,3.0532,0.0,3.0118,3.0553,0.0,0.0,0.0,0.0,0.0,0.0,0.0,0.0,0.0,0.0,0.0,0.0,0.0,0.0,0.0,0.0,0.0,0.0,0.0,0.0,0.0,2.9994,2.9994,2.9994,2.9994,2.9994,0.0,2.9994,2.9994,2.9994,2.9994,2.9994,2.9994,2.9994,2.9994,2.9994,2.9953,2.9932,2.9891,2.9425,2.9239,2.9187,2.8773,2.8876,2.9177,0.0,0.0,0.0,0.0,0.0,0.0,0.0,0.0,0.0,0.0,0.0,0.0,0.0,0.0,0.0,0.0,0.0,0.0,0.0,0.0,1.835,1.9121,1.992,2.0458,2.0703,2.0371,2.0156,2.0059,2.0498,2.0537,2.0177,2.0869,2.1239,2.1337,2.1337,2.0752,1.9648,1.8789,1.793,1.7106,1.7009,1.697,1.6911,1.6416,1.6242,0.0,0.0,0.0,0.0,0.0,0.0,0.0,1.5958,1.6453,1.6833,1.6767,1.7901,1.9233,1.9414,2.109,2.3084,2.4206,2.6253,2.8338,2.957,2.9922,3.0025,3.0118,3.0067,3.0025,0.0,0.0,0.0,0.0,0.0,0.0,0.0,0.0,0.0,0.0,0.0,0.0,0.0,0.0,0.0,0.0,0.0,0.0,0.0,0.0,0.0,2.9994,2.9994,2.9994,2.9994,2.9994,2.9994,0.0,2.9994,2.9994,2.9994,2.9994,2.9994,2.9994,2.9994,2.9994,2.9973,2.9601,2.9456,2.9404,2.8938,2.8763,2.8752,2.8649,2.868,2.8752,0.0,0.0,0.0,0.0,0.0,0.0,0.0,0.0,0.0,0.0,0.0,0.0,0.0,0.0,0.0,0.0,0.0,0.0,0.0,1.7705,1.8184,1.9238,1.9902,2.0254,2.0254,2.0029,1.9717,1.927,1.9531,1.9736,1.9932,2.0928,2.1459,2.1543,2.1624,2.0889,1.9531,1.8672,1.7662,1.6697,1.6697,1.6697,1.6629,1.5996,1.5752,1.5664,1.5029,0.0,0.0,0.0,0.0,0.0,0.0,0.0,1.6118,1.6606,1.7502,1.8613,1.9914,2.1449,2.3165,2.5024,2.7076,2.8794,2.9508,2.9839,2.9994,2.9994,2.9994,0.0,0.0,0.0,0.0,0.0,0.0,0.0,0.0,0.0,0.0,0.0,0.0,0.0,0.0,0.0,0.0,0.0,0.0,0.0,0.0,2.9994,2.9994,2.9994,2.9994,2.9994,2.9994,2.9994,2.9994,2.9994,2.9766,2.9549,2.9342,2.9798,2.9994,2.9984,2.9766,2.9663,2.9632,2.9166,2.897,2.8928,2.8462,2.8276,2.8255,2.8048,2.81,2.8255,0.0,0.0,0.0,0.0,0.0,0.0,0.0,0.0,0.0,0.0,0.0,0.0,0.0,0.0,0.0,0.0,0.0,0.0,0.0,1.7412,1.7959,1.9023,1.9541,1.9775,1.9697,1.9619,1.9238,1.849,1.8492,1.9001,2.0124,2.1036,2.1659,2.1958,2.1964,2.1115,1.9592,1.8588,1.7467,1.6356,1.6278,1.6248,1.6171,1.5439,1.5195,1.5069,1.4358,1.4338,1.4687,1.4756,0.0,0.0,0.0,0.0,1.5244,1.6317,1.6961,1.7849,2.0129,2.1573,2.3174,2.6034,2.7541,2.8545,2.9166,2.9601,2.9901,2.9973,0.0,0.0,0.0,0.0,0.0,0.0,0.0,0.0,0.0,0.0,0.0,0.0,0.0,0.0,0.0,0.0,0.0,0.0,0.0,0.0,2.9994,2.9994,2.9953,2.988,2.988,2.9839,2.9756,2.9756,2.9756,2.9746,2.9363,2.899,2.8638,2.9404,2.9756,2.9735,2.9352,2.9187,2.9145,2.868,2.8493,2.8452,2.7986,2.781,2.7769,2.7396,2.7489,2.7759,0.0,0.0,0.0,0.0,0.0,0.0,0.0,0.0,0.0,0.0,1.8008,1.7852,1.7432,1.7383,0.0,0.0,0.0,0.0,1.6785,0.0,0.0,1.8174,1.8945,1.9199,1.8783,1.8532,1.8321,1.8096,1.7949,1.8929,2.0874,2.0945,2.1402,2.2134,2.1392,2.0208,1.8666,1.709,1.5909,1.501,1.4601,1.4455,1.4436,1.4319,1.428,1.426,1.4143,1.4143,1.425,1.4658,1.4852,0.0,0.0,0.0,0.0,1.5114,1.5914,1.6921,1.7462,2.0003,2.3246,2.6428,2.7351,2.7769,2.9021,0.0,2.9508,0.0,0.0,0.0,0.0,0.0,0.0,0.0,0.0,0.0,0.0,0.0,0.0,0.0,0.0,0.0,0.0,0.0,0.0,0.0,0.0,0.0,2.9994,2.9994,2.9808,2.9415,2.9394,2.9208,2.8804,2.8794,2.8794,2.8794,2.8731,2.868,2.8618,2.8742,2.8794,2.8794,2.8731,2.8711,2.8669,2.8204,2.7968,2.7966,2.7521,2.7392,2.7382,2.733,2.734,2.7382,0.0,0.0,0.0,0.0,0.0,0.0,0.0,0.0,0.0,0.0,0.0,1.7754,1.709,1.7021,0.0,0.0,0.0,0.0,1.6338,1.6943,0.0,0.0,1.8018,1.8042,1.7658,1.7471,1.7288,1.7147,1.6764,1.8058,2.0956,2.0908,2.1708,2.311,2.2362,2.1108,1.943,1.7728,1.6274,1.5098,1.4668,1.4903,1.543,1.4211,1.4375,1.5059,1.3857,1.3584,1.3821,1.425,1.4635,1.4925,1.499,0.0,0.0,0.0,1.526,1.62,1.8317,2.0866,2.3401,2.5585,2.6693,2.7465,2.8017,2.8556,2.898,0.0,0.0,0.0,0.0,0.0,0.0,0.0,0.0,0.0,0.0,0.0,0.0,0.0,0.0,0.0,0.0,0.0,0.0,0.0,0.0,2.9611,2.9611,2.9363,2.9125,2.8918,2.8918,2.8825,2.8618,2.8618,2.8483,2.8224,2.8224,2.81,2.7852,2.7852,2.8131,2.8597,2.8338,2.8224,2.8193,2.7738,2.7552,2.7531,2.7382,2.7309,2.7309,2.7309,2.7309,2.7309,0.0,0.0,0.0,0.0,0.0,0.0,0.0,0.0,0.0,0.0,0.0,0.0,1.6785,0.0,0.0,0.0,0.0,0.0,1.5752,0.0,0.0,0.0,0.0,1.7017,1.6541,1.6489,1.6375,1.6108,1.5907,1.7557,2.0886,2.1046,2.2216,2.4209,2.341,2.2006,2.0102,1.8454,1.7022,1.5851,1.537,1.5782,1.655,1.5232,1.5595,1.6493,1.4511,1.3992,1.425,0.0,0.0,0.0,0.0,0.0,0.0,0.0,0.0,1.539,1.8783,2.0752,2.2273,2.4229,2.5564,2.6594,0.0,0.0,0.0,0.0,0.0,0.0,0.0,0.0,0.0,0.0,0.0,0.0,0.0,0.0,0.0,0.0,0.0,0.0,0.0,0.0,0.0,0.0,0.0,2.9125,2.9125,2.8804,2.8556,2.8442,2.8442,2.838,2.8266,2.8266,2.809,2.7759,2.7759,2.7583,2.7309,2.7309,2.7624,2.8245,2.7903,2.7759,2.7728,2.7396,2.7309,2.7309,2.7309,2.7309,2.7309,2.7309,2.7309,2.7309,0.0,0.0,0.0,0.0,0.0,0.0,0.0,0.0,0.0,0.0,0.0,0.0,1.6746,1.6697,1.6346,1.5488,0.0,0.0,0.0,0.0,0.0,0.0,0.0,0.0,1.5498,1.5771,1.5648,1.5087,1.594,1.7925,2.0896,2.1504,2.2957,2.5073,2.4007,2.2207,1.9833,1.8472,1.7616,1.7142,1.6486,1.6417,1.682,1.7788,1.8312,1.8367,1.6778,1.6228,0.0,0.0,0.0,0.0,0.0,1.4501,1.4077,0.0,0.0,0.0,1.7079,1.7915,1.8835,2.2408,2.3681,2.4655,0.0,0.0,0.0,0.0,0.0,0.0,0.0,0.0,0.0,0.0,0.0,0.0,0.0,0.0,0.0,0.0,0.0,0.0,0.0,0.0,0.0,0.0,0.0,2.8649,2.8649,2.8628,2.8411,2.7976,2.7966,2.7759,2.7382,2.7372,2.7372,2.734,2.734,2.733,2.7309,2.7309,2.733,2.7372,2.7351,2.734,2.734,2.732,2.7309,2.7309,2.7309,2.7309,2.7309,2.7309,2.7309,2.7309,0.0,0.0,0.0,0.0,0.0,0.0,0.0,0.0,0.0,0.0,0.0,0.0,0.0,1.6475,1.5957,1.5078,1.501,0.0,0.0,0.0,0.0,0.0,0.0,0.0,1.5133,1.4968,1.4859,1.4861,1.4926,1.6413,1.9318,2.0141,2.1404,2.3049,2.3267,2.2796,2.1678,1.9477,1.8555,1.8496,1.7694,1.8119,1.9166,1.8734,1.9333,2.0147,1.8485,0.0,0.0,0.0,0.0,0.0,1.527,1.4942,1.4553,1.3814,1.4035,1.4842,1.6436,1.7491,1.8671,2.0866,2.2439,2.3722,2.4883,2.5796,0.0,0.0,0.0,0.0,0.0,0.0,0.0,0.0,0.0,0.0,0.0,0.0,0.0,0.0,0.0,0.0,0.0,0.0,0.0,0.0,0.0,0.0,2.8173,2.7903,2.7665,2.75,2.7489,2.7475,2.7309,2.7309,2.7309,2.7309,2.7309,2.7309,2.7309,2.7309,2.7309,2.7309,2.7309,2.7309,2.7309,2.7309,2.7309,2.7309,2.7309,2.7309,2.7309,2.7309,2.7309,2.7404,0.0,0.0,0.0,0.0,0.0,0.0,0.0,0.0,1.7383,1.7383,0.0,0.0,0.0,0.0,1.5937,1.5068,1.5,1.4932,1.4795,1.5243,0.0,0.0,0.0,0.0,1.5101,1.4829,1.4636,1.4578,1.4604,1.5773,1.7947,1.8901,2.0145,2.158,2.1735,2.2183,2.2652,2.0864,2.0022,1.9864,1.9509,2.0042,2.0995,2.0836,2.1425,2.2167,0.0,0.0,0.0,0.0,0.0,0.0,1.614,1.5283,1.4417,1.3772,1.4159,1.4894,1.5515,1.6589,1.7916,1.9748,2.0897,2.2056,2.3908,0.0,0.0,0.0,0.0,0.0,0.0,0.0,0.0,0.0,0.0,0.0,0.0,0.0,0.0,0.0,0.0,0.0,0.0,0.0,0.0,0.0,0.0,0.0,2.7696,2.7475,2.7309,2.7309,2.7309,2.7309,2.7309,2.7309,2.7309,2.7309,2.7309,2.7309,2.7309,2.7309,2.7489,2.7762,2.7762,2.7584,2.7299,2.7631,2.7762,2.7809,2.8128,2.8269,2.8269,2.8269,2.8269,2.8351,0.0,0.0,0.0,0.0,0.0,0.0,0.0,0.0,1.7425,1.7416,0.0,0.0,0.0,0.0,0.0,1.5527,1.5439,1.5254,1.4862,1.5377,0.0,0.0,0.0,0.0,1.5343,1.5358,1.4975,1.4114,1.5172,1.6125,1.6996,1.7916,1.9313,2.1,1.971,2.0363,2.2418,2.2377,2.189,2.1191,2.1806,2.1968,2.209,2.4108,2.4736,0.0,2.3351,2.2735,0.0,2.0753,0.0,0.0,0.0,1.5494,1.3696,1.3686,1.4018,1.4391,0.0,0.0,0.0,0.0,0.0,0.0,0.0,0.0,0.0,0.0,0.0,0.0,0.0,0.0,0.0,0.0,0.0,0.0,0.0,0.0,0.0,0.0,0.0,0.0,0.0,0.0,0.0,0.0,0.0,2.7309,2.7309,2.7309,2.7309,2.7309,2.7309,2.7309,2.7309,2.7309,2.7357,2.7357,2.7357,2.7357,2.7357,2.7357,2.7857,2.8678,2.8724,2.8222,2.7441,2.8362,2.8724,2.8863,2.9806,3.0215,3.0215,3.0215,3.0215,3.0215,0.0,0.0,0.0,0.0,0.0,1.9129,1.8368,1.8258,1.8138,0.0,0.0,0.0,1.7738,1.7388,1.6965,1.6593,1.6367,1.6028,1.5495,1.5699,1.5806,1.5647,1.5825,1.5864,1.5733,1.5492,1.5127,1.4619,1.5007,1.5494,1.6084,1.6955,1.8206,1.9634,1.9627,1.9958,2.0487,1.9468,2.0234,2.2045,2.1215,2.2041,0.0,0.0,0.0,0.0,0.0,2.4537,2.3784,0.0,2.1711,2.001,0.0,1.6757,1.5719,1.5825,1.6111,1.6256,1.5624,0.0,0.0,0.0,0.0,0.0,0.0,0.0,0.0,0.0,0.0,0.0,0.0,0.0,0.0,0.0,0.0,0.0,0.0,0.0,0.0,0.0,0.0,0.0,0.0,0.0,0.0,0.0,2.7309,2.7309,2.7309,2.7309,2.7309,2.7309,2.7309,2.7309,2.7309,2.7998,2.8315,2.8315,2.8315,2.8315,2.8315,2.8315,2.8445,2.8724,2.9452,2.9624,2.9395,2.9669,2.9806,2.9806,3.0079,3.0215,3.0215,3.0215,3.0215,3.0306,0.0,0.0,0.0,1.9485,1.9722,1.9747,1.9233,1.9152,1.8956,0.0,0.0,0.0,1.817,1.8304,1.813,1.7438,1.7081,1.6668,1.6117,1.6033,1.599,1.599,1.6058,1.6178,1.6361,1.5989,1.5687,1.5457,1.5353,1.5421,1.5701,1.6229,1.7005,1.7978,1.8061,1.83,1.8547,1.7378,1.8723,2.1662,2.1966,0.0,0.0,2.5099,2.5585,0.0,0.0,0.0,2.5101,2.5316,2.387,0.0,0.0,0.0,0.0,1.705,1.7523,1.7944,1.7167,1.7407,0.0,0.0,0.0,0.0,0.0,2.0096,0.0,0.0,0.0,0.0,0.0,0.0,0.0,0.0,0.0,0.0,0.0,0.0,0.0,0.0,0.0,0.0,0.0,0.0,0.0,2.7029,2.7019,2.6983,2.6832,2.6972,2.6972,2.6822,2.7182,2.7367,2.7274,2.8158,2.8599,2.8599,2.8599,2.8745,2.8945,2.8945,2.9284,2.9943,3.0531,3.1036,3.1392,3.1392,3.1169,3.0857,3.1258,3.1392,3.1392,3.1392,3.1392,3.148,0.0,0.0,2.0026,2.0026,2.0076,2.0107,2.0107,2.0066,1.9915,0.0,1.947,1.9374,1.9079,1.9697,1.9631,1.8405,1.7873,1.7346,1.6789,1.6402,1.6194,1.6142,1.6358,1.6612,1.6934,1.6632,1.6433,1.633,1.5887,1.5691,1.5691,1.5691,1.5908,1.6309,1.5905,1.6136,1.682,1.6249,1.7678,2.0529,2.303,2.4022,0.0,0.0,2.6345,2.6127,2.6635,2.6556,2.6372,2.7238,2.5757,0.0,0.0,0.0,0.0,0.0,1.8851,1.9756,1.9094,1.9207,1.9663,0.0,0.0,0.0,2.1213,2.0805,0.0,0.0,0.0,0.0,0.0,0.0,0.0,0.0,0.0,0.0,0.0,0.0,0.0,0.0,0.0,0.0,0.0,2.7154,2.6988,2.6573,2.6624,2.6539,2.6166,2.6515,2.6604,2.6359,2.7106,2.7492,2.736,2.8255,2.8674,2.8674,2.8674,2.8916,2.9397,2.9454,3.0217,3.1496,3.1689,3.2264,3.3124,3.3124,3.2581,3.1857,3.2754,3.3124,3.3124,3.3124,3.3124,3.3124,0.0,2.0561,2.0869,2.0869,2.1178,2.1425,2.1425,2.1106,2.0972,2.1261,2.1292,2.1405,2.1721,2.1539,2.1237,2.0832,1.9873,1.888,1.7856,1.7205,1.6688,1.6366,1.6696,1.6788,1.6508,1.6748,1.655,1.5853,1.5732,1.5691,1.5691,1.5691,1.5742,1.5815,1.5732,1.5784,1.6032,1.7346,0.0,2.0,2.0866,0.0,2.5047,2.574,2.647,2.7144,2.8004,2.825,2.8182,2.845,2.6869,2.4668,0.0,0.0,0.0,0.0,0.0,2.2829,2.2323,0.0,0.0,0.0,0.0,0.0,0.0,1.9707,0.0,0.0,0.0,0.0,0.0,0.0,0.0,0.0,0.0,0.0,0.0,0.0,0.0,0.0,0.0,0.0,0.0,2.6144,2.6194,2.6281,2.6945,2.6936,2.6021,2.685,2.7316,2.725,2.7557,2.7994,2.8471,2.9454,2.9888,2.9701,2.9701,2.9748,2.9867,3.0326,3.0675,3.1011,3.2253,3.2939,3.3124,3.3283,3.3142,3.2853,3.3025,3.3124,3.3124,3.3124,3.3124,3.3124,2.0385,2.0979,2.1455,2.1455,2.1652,2.188,2.2118,2.1952,2.1973,2.2439,2.2697,2.2749,2.2522,2.2501,2.2276,2.1696,2.0519,1.9365,1.8315,1.7482,1.681,1.6423,1.6591,1.6819,1.7046,1.6829,1.6715,1.6715,1.6022,1.5691,1.5691,1.5691,1.5929,1.6314,1.5887,1.6187,1.7046,1.7315,1.8331,1.9958,2.1745,0.0,2.5282,2.6227,2.6905,2.7357,2.7809,2.8631,2.9352,2.8539,2.7812,0.0,0.0,2.5594,2.5298,0.0,2.4278,2.4755,0.0,0.0,0.0,2.2929,0.0,0.0,0.0,0.0,2.0575,0.0,0.0,0.0,0.0,0.0,0.0,0.0,0.0,0.0,0.0,0.0,0.0,0.0,0.0,0.0,0.0,2.6962,2.7195,2.7128,2.7453,2.7403,2.6893,2.7445,2.774,2.7633,2.8166,2.8551,2.8781,2.9852,3.0226,3.005,3.0158,3.0335,3.0608,3.077,3.1001,3.1297,3.2361,3.2866,3.2891,3.3369,3.3471,3.3398,3.3283,3.324,3.324,3.3154,3.3154,3.324,2.0364,2.1093,2.1642,2.1559,2.1683,2.1932,2.2304,2.2366,2.2594,2.3236,2.3795,2.3888,2.3225,2.3329,2.3215,2.2635,2.1213,1.9969,1.9096,1.8112,1.7296,1.6817,1.6713,1.6984,1.7688,1.6922,1.6829,1.744,1.627,1.5691,1.5691,1.5691,1.6084,1.6727,1.6198,1.685,1.8351,1.7346,0.0,2.0695,0.0,2.4538,2.4995,2.6444,2.704,2.7108,2.7652,2.8991,3.0289,2.8998,0.0,2.9258,2.7837,2.7272,0.0,0.0,0.0,0.0,0.0,0.0,0.0,0.0,0.0,2.3985,0.0,0.0,0.0,2.2838,0.0,0.0,0.0,0.0,0.0,0.0,0.0,0.0,0.0,0.0,0.0,0.0,0.0,0.0,0.0,2.7442,2.7862,2.7914,2.7711,2.764,2.7747,2.8131,2.8291,2.8119,2.8834,2.9211,2.9157,3.0011,3.0381,3.0152,3.033,3.0637,3.1047,3.0967,3.1193,3.165,3.225,3.2479,3.253,3.3286,3.3601,3.3572,3.3518,3.3484,3.3441,3.3283,3.3313,3.3484,2.0348,2.0798,2.1062,2.0612,2.1259,2.1828,2.188,2.188,2.2346,2.3629,2.455,2.5181,2.5461,2.483,2.4621,2.5357,2.3432,0.0,2.1455,0.0,1.9098,1.8227,1.7781,1.7595,1.7699,1.7203,1.68,1.6558,1.5998,1.5691,1.5691,1.5691,1.5742,1.5877,1.6541,1.742,1.8434,0.0,2.0363,0.0,2.365,2.3732,0.0,2.5412,2.6086,2.6407,2.8945,3.0531,3.1484,0.0,3.0898,2.9761,0.0,2.8893,2.9056,0.0,0.0,0.0,0.0,0.0,0.0,0.0,2.7281,0.0,0.0,0.0,2.3255,2.1994,0.0,0.0,0.0,0.0,0.0,0.0,0.0,0.0,0.0,0.0,0.0,0.0,0.0,0.0,0.0,0.0,2.6035,2.7139,2.705,2.7097,2.7515,2.8648,2.9238,2.9213,2.9498,2.9922,3.0495,3.0622,3.0571,3.0368,3.0406,3.0432,3.0509,3.0983,3.12,3.129,3.1813,3.2069,3.2147,3.2929,3.3256,3.3294,3.3575,3.367,3.367,3.3641,3.3641,3.367,1.9955,2.041,2.0612,2.0416,2.0741,2.1186,2.1725,2.3153,2.4291,2.4623,2.5678,2.6475,2.6708,2.5865,0.0,0.0,0.0,2.3267,0.0,0.0,2.0255,1.9592,1.863,1.8237,1.8506,1.7858,1.7286,1.6738,1.6367,1.5859,1.5297,1.5566,1.6249,1.7294,1.7647,0.0,2.1124,0.0,2.1073,0.0,0.0,0.0,0.0,2.5733,2.7043,2.7756,2.9568,3.08,3.1536,0.0,3.0859,0.0,0.0,0.0,0.0,0.0,0.0,0.0,0.0,0.0,0.0,0.0,0.0,0.0,2.4311,0.0,2.31,0.0,0.0,0.0,0.0,0.0,0.0,0.0,0.0,0.0,0.0,0.0,0.0,0.0,0.0,0.0,0.0,0.0,0.0,0.0,0.0,2.7797,2.8758,2.9541,3.005,3.0152,3.0241,3.0406,3.0698,3.0811,3.0761,3.0571,3.0685,3.0748,3.0761,3.0854,3.0919,3.0958,3.1473,3.1705,3.1783,3.2577,3.3099,3.3437,3.3589,3.3749,3.3894,3.3768,3.381,3.3937,1.9533,1.9934,2.0203,2.0079,2.0369,2.0928,2.1859,2.3784,2.5161,2.5179,2.6196,2.7123,2.762,2.692,0.0,0.0,2.633,2.4952,0.0,0.0,2.1759,2.1207,1.9862,0.0,0.0,1.8521,1.7713,1.7017,1.6507,1.5961,1.538,1.5587,1.6519,1.804,1.8569,2.0301,2.276,0.0,2.2232,2.3193,2.3895,2.4166,2.4388,2.6229,2.767,2.8806,2.9852,3.08,3.148,3.0834,3.1075,0.0,3.1436,0.0,0.0,0.0,0.0,0.0,2.8762,0.0,0.0,0.0,0.0,0.0,0.0,0.0,0.0,0.0,0.0,0.0,0.0,0.0,0.0,0.0,0.0,0.0,0.0,0.0,0.0,0.0,0.0,0.0,0.0,0.0,0.0,0.0,0.0,0.0,2.9714,3.0132,3.0441,3.0761,3.0773,3.0773,3.0773,3.0911,3.0911,3.0773,3.0911,3.0986,3.0986,3.0849,3.0773,3.0786,3.1176,3.1344,3.1435,3.2137,3.2712,3.3143,3.347,3.3753,3.3952,3.3927,3.4021,3.4202,1.9119,1.9502,1.9679,1.9222,2.0213,2.1404,2.2335,2.2925,2.3743,2.5013,0.0,0.0,0.0,0.0,0.0,0.0,0.0,2.7614,2.7185,0.0,2.3991,2.3143,2.1766,2.0824,0.0,0.0,1.7937,1.7017,1.6136,1.5936,1.635,1.5915,1.6187,1.713,1.893,2.0549,2.1901,2.276,2.4395,2.6433,2.6562,2.737,2.8288,0.0,2.7098,2.8806,2.9852,0.0,0.0,3.1997,3.2148,0.0,0.0,0.0,0.0,0.0,0.0,0.0,0.0,0.0,0.0,2.7329,0.0,0.0,0.0,0.0,2.4575,0.0,0.0,0.0,0.0,0.0,0.0,0.0,0.0,0.0,0.0,0.0,0.0,0.0,0.0,0.0,0.0,0.0,0.0,0.0,0.0,0.0,2.9624,2.9991,3.0375,3.0973,3.0986,3.0986,3.0986,3.0986,3.0986,3.0986,3.0986,3.0986,3.0986,3.0986,3.0986,3.0986,3.0999,3.1013,3.1052,3.1588,3.1836,3.1967,3.3143,3.36,3.3679,3.4201,3.4397,3.4397,1.9564,1.9927,1.9965,1.9233,1.9741,2.0881,2.2677,2.3857,2.514,0.0,0.0,0.0,0.0,3.0025,3.0129,0.0,0.0,2.9763,2.9747,2.7631,0.0,0.0,0.0,2.2895,0.0,0.0,1.9684,1.8382,1.8193,1.7791,1.7274,1.7552,1.8177,1.9136,2.1284,2.286,0.0,0.0,0.0,0.0,0.0,2.748,2.8691,0.0,0.0,2.9897,3.1524,3.2295,0.0,3.2757,3.2528,3.2252,3.2453,3.1989,3.1424,3.1625,3.1537,0.0,0.0,0.0,3.1323,2.8737,0.0,0.0,0.0,0.0,0.0,0.0,0.0,0.0,0.0,0.0,0.0,0.0,0.0,0.0,0.0,0.0,0.0,0.0,0.0,0.0,0.0,0.0,0.0,0.0,0.0,0.0,0.0,2.9304,3.0069,3.0375,3.079,3.0986,3.0986,3.0986,3.0986,3.0986,3.0986,3.0986,3.0986,3.0986,3.0986,3.0986,3.0986,3.0986,3.0999,3.1196,3.1496,3.1876,3.2698,3.3247,3.3652,3.4201,3.4397,3.4397,1.9996,2.01,2.0006,1.945,0.0,2.1207,2.3339,0.0,0.0,0.0,2.8473,0.0,3.1195,0.0,3.1184,0.0,3.1433,3.1008,3.0686,2.915,0.0,2.984,2.7017,0.0,0.0,2.4171,2.2421,2.0759,0.0,1.987,1.8982,1.9238,1.9678,2.0295,0.0,2.3542,2.4516,0.0,2.7064,0.0,0.0,2.8634,0.0,0.0,3.026,2.9897,0.0,3.2581,3.2624,3.2982,3.283,3.2591,3.2998,3.2579,3.2014,3.2164,3.2102,3.1901,3.1499,3.1788,0.0,2.9741,2.8963,0.0,2.5912,0.0,0.0,0.0,0.0,0.0,0.0,0.0,0.0,0.0,0.0,0.0,0.0,0.0,0.0,0.0,0.0,0.0,0.0,0.0,2.1852,2.3706,0.0,0.0,0.0,0.0,2.9757,3.01,3.0699,3.0986,3.0986,3.0986,3.0986,3.0986,3.0986,3.0986,3.0986,3.0986,3.0986,3.0986,3.0986,3.0986,3.0986,3.0986,3.1196,3.1575,3.2385,3.2934,3.3365,3.4123,3.4397,3.4397,2.0457,2.0193,0.0,0.0,2.1041,0.0,0.0,0.0,2.692,0.0,2.8814,2.9901,3.1298,3.1443,3.1795,3.2654,3.2277,3.1516,3.0317,3.014,0.0,0.0,2.8901,2.8754,2.7082,2.6885,2.5838,0.0,0.0,0.0,2.1377,2.0927,2.0641,2.0588,2.1751,0.0,2.3787,2.6372,2.7997,2.8945,2.9897,3.08,3.1581,3.1581,3.0441,2.9084,3.0991,3.1669,3.1813,3.2766,3.3124,3.3124,3.3124,3.3124,3.3011,3.2416,3.2641,3.2842,3.1763,3.1851,3.1876,3.0306,0.0,0.0,0.0,0.0,2.8059,0.0,0.0,0.0,0.0,0.0,0.0,0.0,0.0,0.0,0.0,0.0,0.0,0.0,0.0,0.0,0.0,0.0,2.0797,2.3544,2.3386,0.0,0.0,0.0,2.9431,2.9996,3.066,3.0986,3.0986,3.0986,3.0986,3.0986,3.0986,3.0986,3.0986,3.0986,3.0986,3.0986,3.0986,3.0986,3.0986,3.0986,3.0999,3.1143,3.2254,3.2725,3.2908,3.3992,3.4397,3.4397,2.1455,2.1911,2.2522,0.0,2.3049,2.3443,0.0,0.0,0.0,0.0,2.9973,3.0853,3.223,3.2385,3.2478,3.2659,3.2566,0.0,0.0,0.0,0.0,3.3908,3.1435,3.0566,3.167,2.848,0.0,2.6461,0.0,0.0,2.2868,2.2524,2.2301,2.2274,0.0,0.0,2.5375,2.7672,2.9511,3.0902,3.1125,3.1392,0.0,0.0,3.1303,3.1036,3.2264,3.2711,3.2754,3.3025,3.3124,3.3124,3.3124,3.3124,3.3056,3.2893,3.2968,3.3061,3.2717,3.2742,3.2654,3.18,3.0984,3.0143,0.0,0.0,0.0,0.0,0.0,0.0,0.0,0.0,0.0,0.0,0.0,0.0,0.0,0.0,0.0,0.0,0.0,0.0,0.0,0.0,2.0627,2.1472,0.0,0.0,0.0,0.0,0.0,2.8804,3.0228,3.0986,3.0986,3.0986,3.0986,3.0986,3.0986,3.0986,3.0986,3.0986,3.0986,3.0986,3.0986,3.0986,3.0986,3.0986,3.1235,3.1654,3.2411,3.3208,3.3992,3.4293,3.4397,3.4397,2.2677,0.0,0.0,2.5037,0.0,0.0,2.662,0.0,0.0,2.9777,3.0574,0.0,3.2736,3.2761,3.3105,3.4134,3.3762,0.0,3.4609,0.0,0.0,3.5329,3.3777,3.3217,3.398,3.1063,0.0,2.9136,0.0,0.0,2.4344,2.3717,2.3131,2.2634,0.0,2.5206,2.5623,2.8578,3.0616,3.1877,3.2166,0.0,0.0,3.2264,3.2264,3.2351,3.2896,3.3124,3.3124,3.3124,3.3124,3.3124,3.3124,3.3124,3.3124,3.3124,3.3124,3.3124,3.3124,3.3124,3.3006,3.2667,3.2139,3.1486,3.067,3.0733,3.0771,0.0,0.0,0.0,0.0,0.0,0.0,0.0,0.0,0.0,0.0,0.0,0.0,0.0,0.0,0.0,0.0,0.0,0.0,0.0,0.0,0.0,0.0,0.0,0.0,2.8381,2.9836,3.0725,3.0986,3.0986,3.0986,3.0986,3.0986,3.0986,3.0986,3.0986,3.0986,3.0986,3.0986,3.0986,3.0986,3.0986,3.1326,3.1889,3.2764,3.3626,3.4397,3.4397,3.4397,3.4397,2.396,0.0,0.0,0.0,0.0,0.0,0.0,2.8676,0.0,3.0109,0.0,3.2129,3.2955,3.2836,3.3547,3.5542,0.0,3.4592,3.4765,3.5638,3.5737,3.4648,3.5749,3.6028,3.5151,3.3822,0.0,0.0,0.0,2.6624,2.5473,2.4469,2.3389,0.0,0.0,0.0,0.0,2.9386,3.1418,3.2365,3.288,3.3124,3.3124,3.3124,3.3124,3.3124,3.3124,3.3124,3.3124,3.3124,3.3124,3.3124,3.3124,3.3124,3.3124,3.3124,3.3124,3.3124,3.3124,3.3124,3.3124,3.3124,3.3124,3.286,3.1838,3.1612,3.1653,3.1653,3.0396,2.9717,0.0,0.0,0.0,0.0,0.0,0.0,0.0,0.0,0.0,0.0,0.0,0.0,0.0,0.0,0.0,0.0,0.0,0.0,0.0,0.0,0.0,2.8242,2.9448,0.0,3.0973,0.0,3.0986,3.0986,3.0986,3.0986,3.0986,3.0986,3.0986,3.0986,3.0986,3.0986,3.0986,3.0986,3.1365,3.2032,3.3247,3.3979,3.4397,3.4397,3.4397,3.4397,0.0,0.0,0.0,0.0,0.0,2.9904,2.9662,3.0817,3.1568,3.1223,3.2785,3.3628,3.2874,3.2737,3.2898,3.3275,3.4043,0.0,0.0,0.0,0.0,3.6594,3.6809,3.6887,3.6758,3.4539,3.2904,0.0,2.8574,2.6222,2.4946,2.4305,2.3389,0.0,0.0,0.0,2.9073,3.063,0.0,3.293,3.3074,3.3124,3.3124,3.3124,3.3124,3.3124,3.3124,3.3124,3.3124,3.3124,3.3124,3.3124,3.3124,3.3124,3.3124,3.3124,3.3124,3.3124,3.3124,3.3124,3.3124,3.3124,3.3124,3.3074,3.2872,3.278,3.2865,3.3022,3.206,3.1202,3.1223,0.0,0.0,0.0,0.0,0.0,0.0,0.0,0.0,0.0,0.0,0.0,0.0,0.0,0.0,0.0,0.0,0.0,0.0,0.0,0.0,0.0,2.9239,0.0,0.0,0.0,3.0986,3.0986,3.0986,3.0986,3.0986,3.0986,3.0986,3.0986,3.0986,3.0986,3.0986,3.0986,3.1601,3.2659,3.3809,3.4319,3.4397,3.4397,3.4397,3.4397,0.0,0.0,0.0,0.0,0.0,0.0,0.0,3.3153,0.0,3.1675,3.2812,3.377,3.3813,3.4207,3.5013,3.6208,3.6263,3.6534,3.7138,3.7725,3.8158,3.8447,3.8165,0.0,3.7626,3.5546,3.3896,3.2667,2.9477,2.7124,2.5649,2.4519,0.0,2.2794,0.0,2.7205,0.0,0.0,0.0,3.2654,3.2955,3.3124,3.3124,3.3124,3.3124,3.3124,3.3124,3.3124,3.3124,3.3124,3.3124,3.3124,3.3124,3.3124,3.3124,3.3124,3.3124,3.3124,3.3124,3.3124,3.3124,3.3124,3.3197,3.3283,3.3283,3.3356,3.3441,3.3556,3.2676,3.1554,3.0509,2.8899,0.0,0.0,0.0,0.0,0.0,0.0,0.0,0.0,0.0,0.0,0.0,0.0,0.0,0.0,0.0,0.0,0.0,0.0,0.0,0.0,0.0,0.0,0.0,0.0,0.0,3.0986,3.0986,3.0986,3.0986,3.0986,3.0986,3.0986,3.0986,3.0986,3.1039,3.1627,3.2202,3.2803,3.3953,3.4397,3.4397,3.4397,3.4397,3.4397,0.0,2.931,0.0,0.0,3.1104,0.0,3.3489,3.5256,3.5551,3.2789,3.3387,3.4369,3.5033,3.5757,3.6954,3.8816,3.8319,3.8319,3.9258,3.9581,3.9697,3.9697,3.9283,3.8781,3.8203,3.6684,3.5027,0.0,0.0,2.831,2.6461,2.5167,0.0,0.0,0.0,0.0,0.0,0.0,3.1888,3.2441,3.2893,3.3124,3.3124,3.3124,3.3124,3.3124,3.3124,3.3124,3.3124,3.3124,3.3124,3.3124,3.3124,3.3124,3.3124,3.3124,3.3124,3.3124,3.3124,3.3124,3.3124,3.3154,3.3283,3.3398,3.3441,3.3598,3.3687,3.3614,3.2744,3.1537,2.9855,2.8895,0.0,0.0,0.0,0.0,0.0,0.0,0.0,0.0,0.0,0.0,0.0,0.0,0.0,0.0,0.0,0.0,2.0633,2.206,0.0,0.0,0.0,2.914,3.0607,0.0,3.0986,0.0,3.0986,3.0986,3.0986,3.0986,3.0986,3.0986,3.0986,3.0986,3.1078,3.2215,3.2685,3.2803,3.3953,3.4397,3.4397,3.4397,3.4397,3.4397,0.0,0.0,0.0,0.0,0.0,0.0,3.5582,3.6677,3.714,3.5913,3.6759,3.708,3.6156,3.6128,3.6294,3.6522,3.7394,3.795,3.8056,3.9089,3.9697,3.9697,3.9647,3.9358,3.8856,3.7638,3.5981,0.0,0.0,2.9089,2.6499,2.6336,0.0,0.0,0.0,0.0,0.0,3.1687,3.2466,3.3006,3.3099,3.3124,3.3124,3.3124,3.3124,3.3124,3.3124,3.3124,3.3124,3.3124,3.3124,3.3124,3.3124,3.3124,3.3124,3.3124,3.3124,3.3124,3.3124,3.3124,3.3154,3.3313,3.3398,3.3441,3.3641,3.367,3.3614,3.3292,3.2486,3.1395,3.0038,3.0266,3.0288,0.0,0.0,0.0,0.0,0.0,0.0,0.0,0.0,0.0,0.0,0.0,0.0,0.0,0.0,0.0,2.0581,2.1302,2.296,2.5858,0.0,2.876,2.9467,3.0464,0.0,3.0986,3.0986,3.0986,3.0986,3.0986,3.0986,3.0986,3.0986,3.0986,3.1078,3.2215,3.2685,3.2803,3.3953,3.4397,3.4397,3.4397,3.4397,3.4397,0.0,0.0,0.0,0.0,0.0,0.0,0.0,3.7378,3.8069,3.9111,3.7714,3.6376,3.5636,3.6203,3.6804,3.7203,3.7619,3.8214,3.8921,3.9413,3.9697,3.9697,3.9697,3.9433,3.8932,3.809,3.6759,0.0,0.0,3.0507,2.8485,2.777,0.0,0.0,0.0,3.0545,3.1625,3.2403,3.3056,3.3608,3.3935,3.3872,3.3571,3.3571,3.3571,3.3571,3.3571,3.3784,3.406,3.406,3.3621,3.3124,3.3124,3.3124,3.3124,3.324,3.3283,3.3313,3.3441,3.3484,3.3471,3.3556,3.3683,3.3823,3.3907,3.4021,3.3991,3.3528,3.258,3.1562,3.0665,3.0381,3.0264,0.0,0.0,0.0,0.0,0.0,0.0,0.0,0.0,0.0,0.0,0.0,0.0,0.0,0.0,0.0,0.0,2.0713,0.0,2.5223,0.0,2.832,2.931,3.0411,3.0986,3.0986,3.0986,3.0986,3.0986,3.0986,3.0986,3.0986,3.0986,3.0986,3.1078,3.2215,3.2685,3.2803,3.3953,3.4397,3.4397,3.4397,3.4397,3.4397,3.6521,0.0,3.4802,0.0,3.5959,3.6275,3.8674,3.8852,3.9297,4.1016,3.8674,3.6818,3.6905,3.7545,3.8143,3.8599,3.8522,3.8764,3.9633,3.9697,3.9697,3.9697,3.9697,0.0,3.912,3.8555,3.7525,3.5984,3.4079,0.0,3.0733,0.0,0.0,0.0,3.1336,3.2001,3.2742,3.3319,3.3784,3.4173,3.4562,3.4487,3.4135,3.4135,3.4135,3.4135,3.4135,3.4399,3.468,3.468,3.4211,3.3533,3.337,3.3363,3.3411,3.3406,3.3441,3.3513,3.367,3.3713,3.3725,3.381,3.3949,3.4118,3.416,3.4314,3.4188,3.347,3.2398,3.147,3.1065,3.0535,3.0303,3.0662,0.0,0.0,0.0,0.0,0.0,0.0,0.0,2.3274,0.0,0.0,0.0,0.0,0.0,0.0,0.0,0.0,0.0,0.0,0.0,0.0,0.0,3.0411,3.0986,3.0986,3.0986,3.0986,3.0986,3.0986,3.0986,3.0986,3.0986,3.1078,3.1313,3.2293,3.279,3.3051,3.4018,3.4397,3.4397,3.4397,3.4397,3.4397,3.9764,4.0444,4.0848,3.9721,4.0954,4.2078,4.2145,4.1555,4.1076,4.1076,3.9966,3.9695,4.1051,4.0786,4.046,4.046,3.9959,3.9685,3.9697,3.9697,3.9697,0.0,0.0,3.9697,3.9685,3.9145,3.8304,3.7161,0.0,0.0,3.3074,0.0,3.2478,3.3056,3.3608,3.3872,3.3909,3.4462,3.4655,3.4668,3.468,3.468,3.4668,3.4668,3.4668,3.4668,3.4668,3.4668,3.468,3.468,3.4668,3.4613,3.406,3.4016,3.4065,3.3563,3.3556,3.3713,3.3713,3.3713,3.3755,3.4034,3.4118,3.416,3.4356,3.4397,3.4071,3.2934,3.1797,3.0999,3.0986,3.0986,3.079,3.0205,0.0,0.0,0.0,0.0,0.0,0.0,2.4266,2.2986,2.2425,0.0,0.0,0.0,0.0,0.0,0.0,0.0,0.0,2.5688,2.7471,0.0,2.931,3.0411,3.0986,3.0986,3.0986,3.0986,3.0986,3.0986,3.0986,3.0986,3.0986,3.1313,3.1836,3.245,3.3038,3.3639,3.4188,3.4397,3.4397,3.4397,3.4397,3.4397,4.1071,4.0277,3.9656,4.0466,4.0385,4.0435,4.1314,4.122,4.1386,4.2275,4.2037,4.197,4.2429,4.0461,3.9312,0.0,3.9397,3.9422,0.0,3.9898,3.9697,3.9697,3.9697,3.9697,3.9697,3.9145,3.8743,3.8378,0.0,0.0,0.0,3.3445,3.3658,3.4211,3.4387,3.4462,3.45,3.5006,3.5245,3.527,3.5692,3.5617,3.5245,3.5245,3.5245,3.5278,3.5448,3.5734,3.6109,3.6248,3.6353,3.6251,3.5691,3.5213,3.4762,3.4481,3.4487,3.4482,3.425,3.4189,3.4189,3.4272,3.4314,3.4314,3.4397,3.411,3.3626,3.2855,3.2084,3.1444,3.1052,3.0986,3.0934,3.0738,3.0869,0.0,0.0,0.0,0.0,0.0,0.0,2.4191,0.0,2.2871,0.0,0.0,0.0,0.0,0.0,0.0,0.0,0.0,2.7714,0.0,2.931,3.0411,3.0986,3.0986,3.0986,3.0986,3.0986,3.0986,3.0986,3.1013,3.1405,3.1628,3.1876,3.2894,3.3417,3.3639,3.4188,3.4397,3.4397,3.4397,3.4397,3.4397,4.2163,4.124,4.0521,4.1623,4.1157,4.0928,4.1684,4.1797,4.2093,4.2918,4.2974,4.2974,4.2974,4.1322,0.0,4.0538,4.0055,3.9944,4.0473,4.0199,3.991,3.9697,3.9697,3.9697,3.9697,0.0,0.0,3.8919,3.7048,3.5818,3.5127,3.4926,3.5002,3.5341,3.5341,3.5341,3.5366,3.5705,3.5855,3.5881,3.6314,3.6285,3.5936,3.6075,3.6075,3.6122,3.6294,3.6569,3.6862,3.7062,3.7108,3.7044,3.6836,3.6411,3.5884,3.5386,3.5141,3.4981,3.4786,3.4567,3.4397,3.4397,3.4397,3.4397,3.4397,3.3979,3.3483,3.3104,3.2398,3.1693,3.1365,3.113,3.0986,3.0986,3.0986,3.0712,2.9915,0.0,0.0,0.0,0.0,0.0,0.0,2.4674,0.0,0.0,0.0,0.0,0.0,0.0,0.0,2.6261,2.8438,0.0,2.9951,3.062,3.0986,3.0986,3.0986,3.0986,3.0986,3.0986,3.1104,3.1326,3.1641,3.2058,3.2515,3.3287,3.3705,3.3927,3.4267,3.4397,3.4397,3.4397,3.4397,3.4397,4.2974,4.2974,0.0,0.0,4.2974,0.0,4.2974,4.2974,4.2974,4.2974,4.2974,4.2974,4.2974,4.2974,4.2828,4.2313,0.0,0.0,0.0,4.0588,4.0325,3.9772,3.9747,3.9735,3.9697,3.9697,3.9421,3.8919,3.7814,3.7287,3.7224,3.6719,3.6468,3.6468,3.6417,3.6405,3.6405,3.6405,3.6405,3.6405,3.6628,3.6722,3.6722,3.7015,3.7108,3.7108,3.7108,3.7108,3.7108,3.7155,3.7168,3.7214,3.7459,3.7505,3.7331,3.6204,3.5648,3.5391,3.5312,3.4881,3.445,3.441,3.4397,3.4397,3.4397,3.4005,3.3639,3.36,3.2685,3.185,3.181,3.1365,3.0986,3.0986,3.0947,3.0542,2.9467,0.0,0.0,0.0,0.0,0.0,0.0,2.6687,2.7379,0.0,0.0,0.0,0.0,0.0,2.6274,2.8407,2.9588,3.0451,3.0973,3.0986,3.0986,3.0986,3.0986,3.0986,3.0986,3.1026,3.1339,3.1797,3.1889,3.2581,3.3587,3.3639,3.394,3.4397,3.4397,3.4397,3.4397,3.4397,3.4397,3.4397,0.0,0.0,4.2974,4.2974,4.2974,4.2974,4.2974,4.2974,4.2974,4.2974,4.2974,4.2974,4.2974,4.2974,4.2924,4.2798,4.2338,4.1907,4.1835,4.1379,4.0902,4.0337,4.0325,4.0124,3.9697,3.9697,3.9421,3.8919,3.8655,3.8241,3.7801,3.7249,3.7142,3.7273,3.6688,3.6499,3.6628,3.6628,3.6534,3.6452,3.6828,3.6862,3.6722,3.7015,3.7108,3.7108,3.7307,3.7413,3.7459,3.7657,3.7703,3.7703,3.7808,3.7808,3.7665,3.6921,3.6653,3.641,3.5534,3.5195,3.4972,3.4515,3.4397,3.4397,3.4397,3.4293,3.4084,3.3679,3.2999,3.2359,3.1876,3.1365,3.0986,3.0986,3.062,3.0098,2.9415,2.931,0.0,0.0,2.8503,2.8529,2.7687,2.836,2.8255,0.0,0.0,0.0,0.0,2.8059,2.8538,2.9087,3.0176,3.0856,3.0986,3.0986,3.0986,3.0986,3.0986,3.0986,3.0999,3.1431,3.168,3.185,3.279,3.3339,3.3626,3.4031,3.428,3.4397,3.4397,3.4397,3.4397,3.4397,3.4397,3.4397,4.2974,4.2974,4.2974,4.2974,4.2974,4.2974,4.2974,4.2974,4.2974,4.2974,4.2974,4.2974,4.2974,4.2974,4.2974,4.2974,4.2698,4.2476,4.2225,4.1869,4.1467,4.0862,4.0651,4.0375,4.0074,3.9823,3.9546,3.9245,3.9045,3.8705,3.8391,3.7974,3.7758,3.7758,3.7442,3.7352,3.7495,3.7495,3.7495,3.7543,3.7937,3.7818,3.7493,3.7727,3.7821,3.7868,3.802,3.8067,3.8067,3.8219,3.8109,3.79,3.79,3.79,3.7848,3.7508,3.722,3.6802,3.5913,3.5482,3.5155,3.4554,3.4397,3.4397,3.4397,3.4397,3.4319,3.4018,3.3496,3.2921,3.2333,3.1757,3.1209,3.0673,3.0555,3.0228,2.9392,2.9497,0.0,2.8869,2.9314,2.9431,2.8878,2.9598,2.9562,2.8347,0.0,0.0,2.9131,2.9706,2.9941,2.968,3.0529,3.0986,3.0986,3.0986,3.0986,3.0986,3.0986,3.0986,3.0999,3.1536,3.1941,3.2241,3.3195,3.3731,3.3979,3.428,3.4397,3.4397,3.4397,3.4397,3.4397,3.4397,3.4397,3.4397,4.2974,4.2974,4.2974,4.2974,4.2974,4.2974,4.2974,4.2974,4.2974,4.2974,4.2974,4.2974,4.2974,4.2974,4.2974,4.2974,4.2974,4.2841,4.2363,4.2338,4.2032,4.148,4.1015,4.0689,4.0513,4.0025,3.9736,3.9736,3.9322,3.9095,3.9083,3.8715,3.8437,3.8326,3.8398,3.8458,3.8519,3.8519,3.8653,3.8835,3.9152,3.8951,3.8523,3.876,3.8841,3.8841,3.8841,3.8841,3.8841,3.8841,3.8475,3.8031,3.8031,3.7965,3.79,3.79,3.7547,3.6998,3.6397,3.5783,3.5168,3.4659,3.4463,3.4397,3.4397,3.4397,3.4397,3.4397,3.3966,3.3417,3.2803,3.2228,3.1432,3.0283,3.0542,3.049,2.9467,0.0,2.9918,2.947,2.9915,3.0072,2.9588,3.0411,3.079,3.0257,3.0712,3.0986,0.0,3.0986,3.0764,3.0244,3.0725,3.0986,3.0986,3.0986,3.0986,3.0986,3.1065,3.1117,3.1143,3.1758,3.2332,3.2868,3.3456,3.3979,3.4397,3.4397,3.4397,3.4397,3.4397,3.4397,3.4397,3.4397,3.4397,3.4439,4.2974,4.2974,4.2974,4.2974,4.2974,4.2974,4.2974,4.2974,4.2974,4.2974,4.2974,4.2974,4.2974,4.2974,4.2974,4.2974,4.2974,4.2936,4.2848,4.2904,4.2597,4.2099,4.1999,4.1467,4.0538,4.022,4.0032,4.0032,3.9943,3.9905,3.988,3.9411,3.9344,3.964,3.9005,3.8848,3.9104,3.9104,3.8994,3.8835,3.9358,3.9355,3.9106,3.9372,3.9468,3.9468,3.9468,3.9468,3.9468,3.9468,3.9076,3.8593,3.8593,3.8266,3.79,3.79,3.7835,3.7639,3.7024,3.6096,3.5273,3.5182,3.4776,3.4397,3.4397,3.4397,3.4397,3.4397,3.3966,3.3417,3.2803,3.2228,3.1432,3.0283,3.0179,3.0032,2.9379,0.0,3.0061,2.9983,3.0503,3.0817,3.0725,3.0919,3.0947,3.0869,3.0934,3.0986,3.0986,3.0986,3.0947,3.0856,3.0934,3.0986,3.0986,3.0986,3.0986,3.0999,3.147,3.1667,3.1706,3.2829,3.3365,3.3483,3.4031,3.4319,3.4397,3.4397,3.4397,3.4397,3.4397,3.4397,3.4397,3.4397,3.4397,3.4522,4.2974,4.2974,4.2974,4.2974,4.2974,4.2974,4.2974,4.2974,4.2974,4.2974,4.2974,4.2974,4.2974,4.2974,4.2974,4.2974,4.2974,4.2974,4.2974,4.2974,4.2861,4.2665,4.2363,4.189,4.119,4.0767,4.063,4.0785,4.0492,4.0338,4.0338,4.0184,4.022,4.0245,4.0011,3.9995,4.0107,4.0107,4.0107,4.0156,4.0428,4.0233,3.9884,3.9995,4.0043,4.0043,4.0043,4.0043,4.0043,4.0043,3.9664,3.9141,3.8815,3.854,3.8279,3.7991,3.7678,3.7351,3.7077,3.6384,3.5665,3.5365,3.509,3.4789,3.4463,3.4397,3.4397,3.4397,3.4201,3.3849,3.3287,3.2698,3.1993,3.1145,3.0753,0.0,0.0,3.0424,3.0594,3.0594,3.083,3.0986,3.0986,3.0986,3.0986,3.0986,3.0986,3.0986,3.0986,3.0986,3.0986,3.0986,3.0986,3.0986,3.0986,3.0986,3.1143,3.1444,3.168,3.1967,3.2333,3.3195,3.3587,3.3626,3.4162,3.4397,3.4397,3.4397,3.4397,3.4397,3.4397,3.4675,3.5032,3.4551,3.4978,3.5722,4.2974,4.2974,4.2974,4.2974,4.2974,4.2974,4.2974,4.2974,4.2974,4.2974,4.2974,4.2974,4.2974,4.2974,4.2974,4.2974,4.2974,4.2974,4.2974,4.2974,4.2974,4.2974,4.2557,4.2242,4.208,4.1548,4.1361,4.1492,4.1016,4.0734,4.0605,4.0795,4.0846,4.0707,4.0896,4.0997,4.0997,4.0997,4.1097,4.1311,4.1311,4.1036,4.0618,4.0618,4.0618,4.0618,4.0618,4.0618,4.0618,4.0618,4.0252,3.9716,3.9246,3.9024,3.8815,3.8253,3.7678,3.7207,3.7207,3.6776,3.6175,3.5626,3.5391,3.5142,3.4541,3.4397,3.4397,3.4397,3.4397,3.4241,3.3692,3.3208,3.262,3.1745,0.0,0.0,0.0,3.0895,3.0986,3.0986,3.0986,3.0986,3.0986,3.0986,3.0986,3.0986,3.0986,3.0986,3.0986,3.0986,3.0986,3.0986,3.0986,3.0986,3.0986,3.1117,3.1405,3.1797,3.2071,3.2476,3.2921,3.3509,3.3783,3.3796,3.4449,3.4716,3.4716,3.4909,3.4978,3.4978,3.4978,3.5372,3.5896,3.5223,3.5803,3.6841,4.2974,4.2974,4.2974,4.2974,4.2974,4.2974,4.2974,4.2974,4.2974,4.2974,4.2974,4.2974,4.2974,4.2974,4.2974,4.2974,4.2974,4.2974,4.2974,4.2974,4.2974,4.2974,4.2734,4.2691,4.291,4.26,4.2216,4.1776,4.1737,4.1427,4.0883,4.0883,4.1047,4.1261,4.1261,4.1261,4.1261,4.1261,4.1261,4.1311,4.1311,4.1285,4.1246,4.1246,4.1246,4.1246,4.1246,4.1246,4.1246,4.1246,4.0853,4.0344,4.0305,3.9952,3.9429,3.8828,3.8266,3.7835,3.7835,3.7403,3.6789,3.6188,3.5665,3.5142,3.4541,3.4397,3.4397,3.4397,3.4397,3.4241,3.3692,3.3548,3.2986,3.1313,0.0,0.0,3.0309,3.066,3.0986,3.0986,3.0986,3.0986,3.0986,3.0986,3.0986,3.0986,3.0986,3.0986,3.0986,3.0986,3.0986,3.0986,3.0986,3.0986,3.0986,3.1471,3.1758,3.181,3.2947,3.3483,3.3548,3.4084,3.4332,3.4374,3.5251,3.5588,3.5655,3.6425,3.6724,3.6724,3.6724,3.6763,3.6802,3.6724,3.6802,3.7011,4.2974,4.2974,4.2974,4.2974,4.2974,4.2974,4.2974,4.2974,4.2974,4.2974,4.2974,4.2974,4.2974,4.2974,4.2974,4.2974,4.3129,4.324,4.324,4.3432,4.3376,4.3042,4.305,4.3212,4.3566,4.3246,4.3111,4.3127,4.2723,4.2254,4.1732,4.1732,4.155,4.1311,4.1311,4.1311,4.1311,4.1311,4.1311,4.1311,4.1311,4.1311,4.1311,4.1311,4.1311,4.1311,4.1311,4.1311,4.1311,4.1311,4.1167,4.0906,4.054,4.0278,3.9926,3.8985,3.8566,3.8331,3.7991,3.773,3.7416,3.6815,3.6227,3.5652,3.509,3.4672,3.4397,3.4397,3.4397,3.4332,3.4123,3.3809,3.3483,3.3156,0.0,3.2346,3.2293,3.215,3.2045,3.2045,3.1731,3.1522,3.1522,3.1196,3.0986,3.0986,3.0986,3.0986,3.0986,3.0986,3.1143,3.1509,3.1522,3.1522,3.1522,3.1693,3.2176,3.2934,3.3378,3.377,3.4138,3.4857,3.5196,3.5237,3.6082,3.6425,3.6464,3.6763,3.688,3.688,3.688,3.7218,3.763,3.7088,3.7548,3.8435,4.2974,4.3085,4.3085,4.303,4.3085,4.3085,4.303,4.2974,4.2974,4.2974,4.3085,4.3129,4.3129,4.3129,4.3129,4.3129,4.3295,4.3394,4.3394,4.3708,4.3721,4.3321,4.3517,4.3806,4.3997,4.3857,4.3828,4.3926,4.348,4.2997,4.2435,4.2303,4.1964,4.1572,4.1389,4.1311,4.1311,4.1311,4.1311,4.1311,4.1311,4.1311,4.1311,4.1311,4.1311,4.1311,4.1311,4.1311,4.1311,4.1311,4.1311,4.1246,4.0827,4.0566,4.0226,3.9272,3.8854,3.8593,3.8057,3.79,3.7756,3.7155,3.6684,3.624,3.5678,3.5103,3.4672,3.4672,3.4528,3.4397,3.4397,3.4097,3.3914,3.411,3.3483,3.3051,3.3273,3.2947,3.2685,3.2685,3.2346,3.2071,3.2071,3.1757,3.1522,3.1522,3.1522,3.1522,3.1522,3.1522,3.1705,3.2058,3.2071,3.2163,3.2346,3.2359,3.2803,3.3587,3.3757,3.4031,3.4439,3.5305,3.5709,3.5749,3.683,3.7295,3.7333,3.7563,3.7677,3.7677,3.7677,3.8046,3.8501,3.7919,3.842,3.9316,4.2974,4.324,4.3338,4.303,4.324,4.3283,4.303,4.2974,4.2974,4.2974,4.324,4.3394,4.3394,4.3394,4.3394,4.3394,4.3394,4.3394,4.3394,4.3708,4.3899,4.3899,4.4161,4.4313,4.4313,4.4572,4.4447,4.3939,4.3939,4.3585,4.3023,4.2448,4.2224,4.2198,4.1585,4.1324,4.1324,4.1324,4.1324,4.1324,4.1311,4.1311,4.1311,4.1311,4.1311,4.1311,4.1311,4.1311,4.1311,4.1311,4.1311,4.1311,4.1311,4.0906,4.0318,3.9769,3.9194,3.8606,3.8057,3.7913,3.7769,3.7168,3.6998,3.6841,3.624,3.5691,3.5312,3.5299,3.4816,3.441,3.4397,3.4397,3.4228,3.3679,3.36,3.3391,3.279,3.2698,3.2698,3.2698,3.2698,3.2698,3.2698,3.2685,3.2685,3.2685,3.2685,3.2685,3.2685,3.2685,3.2685,3.2698,3.2698,3.2986,3.3587,3.3587,3.3587,3.36,3.4136,3.4397,3.4439,3.5305,3.5709,3.583,3.7477,3.8202,3.8277,3.9083,3.9388,3.9388,3.9388,3.9388,3.9388,3.9388,3.9388,3.9388,4.324,4.3338,4.3462,4.3598,4.353,4.3394,4.3295,4.3141,4.3085,4.324,4.3338,4.3517,4.3708,4.3764,4.3764,4.3764,4.3929,4.4136,4.4287,4.4409,4.4463,4.4463,4.4367,4.4313,4.4313,4.4572,4.4643,4.4474,4.4474,4.4186,4.3611,4.3441,4.3154,4.2762,4.2592,4.2513,4.2487,4.2082,4.1912,4.1873,4.1481,4.1311,4.1311,4.1311,4.1311,4.1311,4.1311,4.1311,4.1311,4.1311,4.1311,4.1311,4.1311,4.1193,4.0932,4.0344,4.0043,3.969,3.8723,3.8462,3.8331,3.7782,3.7312,3.6959,3.6776,3.6279,3.5757,3.5378,3.5155,3.4894,3.4476,3.4397,3.4345,3.4188,3.4162,3.4097,3.3914,3.3888,3.3888,3.3888,3.3548,3.3326,3.3326,3.2947,3.2685,3.2685,3.2685,3.2685,3.2685,3.2685,3.2881,3.3313,3.3326,3.3587,3.4162,3.3783,3.3783,3.4162,3.4319,3.4716,3.5345,3.6162,3.6869,3.7529,3.8575,3.9046,3.9083,3.9301,3.9388,3.9388,3.9388,3.9388,3.9388,3.9388,3.9388,3.9388,4.353,4.3683,4.3806,4.3887,4.3819,4.3683,4.3449,4.3364,4.3364,4.3394,4.3628,4.3806,4.4052,4.4052,4.4052,4.4052,4.4203,4.4422,4.4681,4.4668,4.4668,4.4668,4.4518,4.4463,4.4463,4.4626,4.4668,4.4668,4.4668,4.4552,4.4199,4.3977,4.3689,4.335,4.3127,4.3023,4.2997,4.2657,4.2513,4.2474,4.2134,4.199,4.1964,4.1742,4.1651,4.1625,4.1402,4.1311,4.1311,4.1311,4.1311,4.1311,4.1311,4.1311,4.1193,4.0592,4.0409,4.0213,3.9311,3.8893,3.8632,3.8305,3.7782,3.7364,3.7364,3.6894,3.6305,3.573,3.5443,3.5116,3.4502,3.4397,3.4397,3.4397,3.4397,3.4397,3.4397,3.4397,3.4397,3.4397,3.411,3.3914,3.3914,3.3587,3.3365,3.3365,3.3365,3.3365,3.3365,3.3365,3.3535,3.3901,3.4256,3.4414,3.4397,3.4427,3.4427,3.4397,3.4758,3.5196,3.5749,3.6869,3.7706,3.824,3.9046,3.9388,3.9388,3.9388,3.9388,3.9388,3.9388,3.9388,3.9388,3.9388,3.9388,3.9388,4.3887,4.4107,4.4203,4.3997,4.4161,4.4136,4.356,4.3708,4.3776,4.3517,4.3971,4.4313,4.4313,4.4367,4.4367,4.4367,4.4367,4.4409,4.4681,4.4668,4.4668,4.4668,4.4668,4.4668,4.4668,4.4668,4.4668,4.4668,4.4668,4.4668,4.4668,4.4199,4.3951,4.3925,4.3415,4.318,4.318,4.3127,4.3101,4.3101,4.3036,4.3023,4.2971,4.2448,4.2264,4.2146,4.1585,4.1363,4.1311,4.1311,4.1311,4.1311,4.1311,4.1311,4.1206,4.0657,4.0501,4.0383,3.9834,3.9272,3.8841,3.8736,3.8344,3.7965,3.7913,3.7482,3.692,3.6305,3.5744,3.5195,3.458,3.4437,3.4397,3.4397,3.4397,3.4397,3.4397,3.4397,3.4397,3.4397,3.4397,3.4397,3.4397,3.4397,3.4397,3.4397,3.4481,3.4522,3.4522,3.4522,3.4551,3.4634,3.5305,3.5345,3.4634,3.5426,3.5386,3.4522,3.5305,3.579,3.599,3.7491,3.824,3.8352,3.9068,3.9388,3.9388,3.9388,3.9388,3.9388,3.9388,3.9388,3.9388,3.9388,3.9388,3.9388,4.4161,4.4258,4.4367,4.4518,4.4422,4.4258,4.4136,4.3997,4.3942,4.4094,4.4203,4.4367,4.4572,4.4626,4.4626,4.4626,4.4626,4.4626,4.4668,4.4668,4.4668,4.4668,4.4668,4.4668,4.4668,4.4668,4.4668,4.4668,4.4668,4.4668,4.4668,4.4604,4.4539,4.4539,4.4408,4.4302,4.433,4.3872,4.3689,4.365,4.3206,4.3023,4.301,4.2879,4.2565,4.2198,4.2081,4.169,4.1311,4.1311,4.1311,4.1311,4.1311,4.1311,4.1285,4.1154,4.1115,4.0997,4.0396,4.0148,3.9834,3.8932,3.8619,3.8423,3.8004,3.7808,3.7534,3.6933,3.6345,3.5757,3.5208,3.4711,3.4397,3.4397,3.4397,3.4397,3.4397,3.4397,3.4397,3.4397,3.4397,3.4397,3.4397,3.4397,3.4397,3.4397,3.5032,3.5426,3.5426,3.5426,3.5696,3.6346,3.5923,3.5923,3.6346,3.6543,3.6241,3.5426,3.5629,3.6373,3.7682,3.8037,3.8538,3.9156,3.9301,3.9388,3.9388,3.9388,3.9388,3.9388,3.9388,3.9388,3.9388,3.9388,3.9388,3.9388,4.4409,4.4463,4.4518,4.4681,4.4572,4.4463,4.4313,4.4313,4.4313,4.4313,4.4422,4.4518,4.4681,4.4668,4.4668,4.4668,4.4668,4.4668,4.4668,4.4668,4.4668,4.4668,4.4668,4.4668,4.4668,4.4668,4.4668,4.4668,4.4668,4.4668,4.4668,4.4668,4.4668,4.4668,4.4668,4.4668,4.4655,4.4408,4.4278,4.4251,4.3951,4.378,4.3807,4.3533,4.3245,4.2957,4.2421,4.1794,4.1311,4.1311,4.1311,4.1311,4.1311,4.1311,4.1311,4.1311,4.1311,4.1246,4.0932,4.0631,4.0278,3.9677,3.9115,3.8566,3.8031,3.79,3.773,3.7129,3.675,3.6279,3.5443,3.5038,3.4737,3.445,3.4397,3.4397,3.4397,3.4397,3.4397,3.4397,3.4397,3.4551,3.4991,3.5032,3.5182,3.5561,3.6002,3.6281,3.6281,3.6281,3.6464,3.688,3.6922,3.6922,3.688,3.7295,3.7309,3.6897,3.6897,3.7376,3.8202,3.859,3.8995,3.9388,3.9388,3.9388,3.9388,3.9388,3.9388,3.9388,3.9388,3.9388,3.9388,3.9388,3.9388,3.9388,4.4681,4.4668,4.4668,4.4668,4.4668,4.4626,4.4422,4.4572,4.4626,4.4422,4.4572,4.4668,4.4668,4.4668,4.4668,4.4668,4.4668,4.4668,4.4668,4.4668,4.4668,4.4668,4.4668,4.4668,4.4668,4.4668,4.4668,4.4668,4.4668,4.4668,4.4668,4.4668,4.4668,4.4668,4.4668,4.4668,4.4668,4.4668,4.4668,4.4668,4.4668,4.4668,4.467,4.4199,4.3964,4.3808,4.2853,4.203,4.1455,4.1455,4.1402,4.1311,4.1311,4.1311,4.1311,4.1311,4.1311,4.1311,4.1311,4.0945,4.054,4.0448,3.9703,3.8828,3.8187,3.7965,3.7756,3.726,3.7077,3.6711,3.5757,3.543,3.5142,3.4633,3.4463,3.4397,3.4397,3.4397,3.4397,3.4397,3.4397,3.4758,3.5629,3.5709,3.6042,3.6841,3.7049,3.7127,3.7127,3.7127,3.7204,3.7319,3.791,3.791,3.7319,3.806,3.8389,3.8389,3.8389,3.8389,3.8427,3.9119,3.9388,3.9388,3.9388,3.9388,3.9388,3.9388,3.9388,3.9388,3.9388,3.9388,3.9388,3.9388,3.9388,3.9388,4.4668,4.4668,4.4668,4.4668,4.4668,4.4668,4.4681,4.4681,4.4668,4.4681,4.4681,4.4668,4.4668,4.4668,4.4668,4.4668,4.4668,4.4668,4.4668,4.4668,4.4668,4.4668,4.4668,4.4668,4.4668,4.4668,4.4668,4.4668,4.4668,4.4668,4.4668,4.4668,4.4668,4.4668,4.4668,4.4668,4.4668,4.4668,4.4668,4.4668,4.4668,4.4668,4.4668,4.4643,4.4304,4.3912,4.3755,4.301,4.2107,4.2107,4.1716,4.1311,4.1311,4.1311,4.1311,4.1311,4.1311,4.1311,4.1311,4.1259,4.1076,4.054,4.0292,3.9899,3.8841,3.824,3.7874,3.7795,3.7364,3.6959,3.6802,3.5966,3.5273,3.5195,3.4737,3.4397,3.4397,3.4397,3.4397,3.4397,3.4397,3.4758,3.5629,3.5709,3.6042,3.6841,3.7591,3.8037,3.8037,3.8037,3.8337,3.9031,3.8501,3.8464,3.9068,3.9192,3.9228,3.9228,3.9228,3.9228,3.9228,3.9337,3.9388,3.9388,3.9388,3.9388,3.9388,3.9388,3.9388,3.9388,3.9388,3.9388,3.9388,3.9388,3.9388,3.9388,4.4668,4.4668,4.4668,4.4668,4.4668,4.4668,4.4668,4.4668,4.4668,4.4668,4.4668,4.4668,4.4668,4.4668,4.4668,4.4668,4.4668,4.4668,4.4668,4.4668,4.4668,4.4668,4.4668,4.4668,4.4668,4.4668,4.4668,4.4668,4.4668,4.4668,4.4668,4.4668,4.4668,4.4668,4.4668,4.4668,4.4668,4.4668,4.4668,4.4668,4.4668,4.4668,4.4668,4.4668,4.4565,4.4304,4.399,4.3337,4.2592,4.2278,4.199,4.1729,4.1415,4.1311,4.1311,4.1311,4.1311,4.1311,4.1311,4.1311,4.1259,4.0984,4.0671,4.0278,3.9782,3.8985,3.8266,3.7965,3.7691,3.7403,3.7063,3.6593,3.6136,3.5796,3.5659,3.5553,3.5553,3.5697,3.5803,3.5803,3.5803,3.6122,3.7014,3.7092,3.7438,3.8234,3.8634,3.8885,3.8885,3.8885,3.9031,3.9388,3.9083,3.9046,3.9388,3.9388,3.9388,3.9388,3.9388,3.9388,3.9388,3.9388,3.9388,3.9388,3.9388,3.9388,3.9388,3.9388,3.9388,3.9388,3.9388,3.9388,3.9388,3.9388,3.9388,3.9424]}]]